[[{"header":{"parameterUnit":"m.s-1","parameterCategory":1,"la1":31.0,"la2":29.5877,"lo1":-88.7671,"lo2":-86.6584,"dy":0.0162,"dx":0.0185,"nx":115,"ny":88,"refTime":"2023-03-16T06:00:00:Z","depth":0,"parameterNumber":2,"parameterNumberName":"U-component_of_WINDS"},"data":[0.0,0.0,0.0,0.0,0.0,0.0,0.0,0.0,0.0,0.0,0.0,0.0,0.0,0.0,0.0,0.0,0.0,0.0,0.0,0.0,0.0,0.0,0.0,0.0,0.0,0.0,0.0,0.0,0.0,0.0,0.0,0.0,0.0,0.0,0.0,0.0,0.0,0.0,0.0,0.0,0.0,0.0,0.0,0.0,0.0,0.0,0.0,0.0,0.0,0.0,0.0,0.0,0.0,0.0,0.0,0.0,0.0,0.0,0.0,0.0,0.0,0.0,0.0,0.0,0.0,0.0,0.0,0.0,0.0,0.0,0.0,0.0,0.0,0.0,0.0,0.0,0.0,0.0,0.0,0.0,0.0,0.0,0.0,0.0,0.0,0.0,0.0,0.0,0.0,0.0,0.0,0.0,0.0,0.0,0.0,0.0,0.0,0.0,0.0,0.0,0.0,0.0,0.0,0.0,0.0,0.0,0.0,0.0,0.0,0.0,0.0,0.0,0.0,0.0,0.0,0.0,0.0,0.0,0.0,0.0,0.0,0.0,0.0,0.0,0.0,0.0,0.0,0.0,0.0,0.0,0.0,0.0,0.0,0.0,0.0,0.0,0.0,0.0,0.0,0.0,0.0,0.0,0.0,0.0,0.0,0.0,0.0,0.0,0.0,0.0,0.0,0.0,0.0,0.0,0.0,0.0,0.0,0.0,0.0,0.0,0.0,0.0,0.0,0.0,0.0,0.0,0.0,0.0,0.0,0.0,0.0,0.0,0.0,0.0,0.0,0.0,0.0,0.0,0.0,0.0,0.0,0.0,0.0,0.0,0.0,0.0,0.0,0.0,0.0,0.0,0.0,0.0,0.0,0.0,0.0,0.0,0.0,0.0,0.0,0.0,0.0,0.0,0.0,0.0,0.0,0.0,0.0,0.0,0.0,0.0,0.0,0.0,0.0,0.0,0.0,0.0,0.0,0.0,0.0,0.0,0.0,0.0,0.0,0.0,0.0,0.0,0.0,0.0,0.0,0.0,0.0,0.0,0.0,0.0,0.0,0.0,0.0,0.0,0.0,0.0,0.0,0.0,0.0,0.0,0.0,0.0,0.0,0.0,0.0,0.0,0.0,0.0,0.0,0.0,0.0,0.0,0.0,0.0,0.0,0.0,0.0,0.0,0.0,0.0,0.0,0.0,0.0,0.0,0.0,0.0,0.0,0.0,0.0,0.0,0.0,0.0,0.0,0.0,0.0,0.0,0.0,0.0,0.0,0.0,0.0,0.0,0.0,0.0,0.0,0.0,0.0,0.0,0.0,0.0,0.0,0.0,0.0,0.0,0.0,0.0,0.0,0.0,0.0,0.0,0.0,0.0,0.0,0.0,0.0,0.0,0.0,0.0,0.0,0.0,0.0,0.0,0.0,0.0,0.0,0.0,0.0,0.0,0.0,0.0,0.0,0.0,0.0,0.0,0.0,0.0,0.0,0.0,0.0,0.0,0.0,0.0,0.0,0.0,0.0,0.0,0.0,0.0,0.0,0.0,0.0,0.0,0.0,0.0,0.0,0.0,0.0,0.0,0.0,0.0,0.0,0.0,0.0,0.0,0.0,0.0,0.0,0.0,0.0,0.0,0.0,0.0,0.0,0.0,0.0,0.0,0.0,0.0,0.0,0.0,0.0,0.0,0.0,0.0,0.0,0.0,0.0,0.0,0.0,0.0,0.0,0.0,0.0,0.0,0.0,0.0,0.0,0.0,0.0,0.0,0.0,0.0,0.0,0.0,0.0,0.0,0.0,0.0,0.0,0.0,0.0,0.0,0.0,0.0,0.0,0.0,0.0,0.0,0.0,0.0,0.0,0.0,0.0,0.0,0.0,0.0,0.0,0.0,0.0,0.0,0.0,0.0,0.0,0.0,0.0,0.0,0.0,0.0,0.0,0.0,0.0,0.0,0.0,0.0,0.0,0.0,0.0,0.0,0.0,0.0,0.0,0.0,0.0,0.0,0.0,0.0,0.0,0.0,0.0,0.0,0.0,0.0,0.0,0.0,0.0,0.0,0.0,0.0,0.0,0.0,0.0,0.0,0.0,0.0,0.0,0.0,0.0,0.0,0.0,0.0,0.0,0.0,0.0,0.0,0.0,0.0,0.0,0.0,0.0,0.0,0.0,0.0,0.0,0.0,0.0,0.0,0.0,0.0,0.0,0.0,0.0,0.0,0.0,0.0,0.0,0.0,0.0,0.0,0.0,0.0,0.0,0.0,0.0,0.0,0.0,0.0,0.0,0.0,0.0,0.0,0.0,0.0,0.0,0.0,0.0,0.0,0.0,0.0,0.0,0.0,0.0,0.0,0.0,0.0,0.0,0.0,0.0,0.0,0.0,0.0,0.0,0.0,0.0,0.0,0.0,0.0,0.0,0.0,0.0,0.0,0.0,0.0,0.0,0.0,0.0,0.0,0.0,0.0,0.0,0.0,0.0,0.0,0.0,0.0,0.0,0.0,0.0,0.0,0.0,0.0,0.0,0.0,0.0,0.0,0.0,0.0,0.0,0.0,0.0,0.0,0.0,0.0,0.0,0.0,0.0,0.0,0.0,0.0,0.0,0.0,0.0,0.0,0.0,0.0,0.0,0.0,0.0,0.0,0.0,0.0,0.0,0.0,0.0,0.0,0.0,0.0,0.0,0.0,0.0,0.0,0.0,0.0,0.0,0.0,0.0,0.0,0.0,0.0,0.0,0.0,0.0,0.0,0.0,0.0,0.0,0.0,0.0,0.0,0.0,0.0,0.0,0.0,0.0,0.0,0.0,0.0,0.0,0.0,0.0,0.0,0.0,0.0,0.0,0.0,0.0,0.0,0.0,0.0,0.0,0.0,0.0,0.0,0.0,0.0,0.0,0.0,0.0,0.0,0.0,0.0,0.0,0.0,0.0,0.0,0.0,0.0,0.0,0.0,0.0,0.0,0.0,0.0,0.0,0.0,0.0,0.0,0.0,0.0,0.0,0.0,0.0,0.0,0.0,0.0,0.0,0.0,0.0,0.0,0.0,0.0,0.0,0.0,0.0,0.0,0.0,0.0,0.0,0.0,0.0,0.0,0.0,0.0,0.0,0.0,0.0,0.0,0.0,0.0,0.0,0.0,0.0,0.0,0.0,0.0,0.0,0.0,0.0,0.0,0.0,0.0,0.0,0.0,0.0,0.0,0.0,0.0,0.0,0.0,0.0,0.0,0.0,0.0,0.0,0.0,0.0,0.0,0.0,0.0,0.0,0.0,0.0,0.0,0.0,0.0,0.0,0.0,0.0,0.0,0.0,0.0,0.0,0.0,0.0,0.0,0.0,0.0,0.0,0.0,0.0,0.0,0.0,0.0,0.0,0.0,0.0,0.0,0.0,0.0,0.0,0.0,0.0,0.0,0.0,0.0,0.0,0.0,0.0,0.0,0.0,0.0,0.0,0.0,0.0,0.0,0.0,0.0,0.0,0.0,0.0,0.0,0.0,0.0,0.0,0.0,0.0,0.0,0.0,0.0,0.0,0.0,0.0,0.0,0.0,0.0,0.0,0.0,0.0,0.0,0.0,0.0,0.0,0.0,0.0,0.0,0.0,0.0,0.0,0.0,0.0,0.0,0.0,0.0,0.0,0.0,0.0,0.0,0.0,0.0,0.0,0.0,0.0,0.0,0.0,0.0,0.0,0.0,0.0,0.0,0.0,0.0,0.0,0.0,0.0,0.0,0.0,0.0,0.0,0.0,0.0,0.0,0.0,0.0,0.0,0.0,0.0,0.0,0.0,0.0,0.0,0.0,0.0,0.0,0.0,0.0,0.0,0.0,0.0,0.0,0.0,0.0,0.0,0.0,0.0,0.0,0.0,0.0,0.0,0.0,0.0,0.0,0.0,0.0,0.0,0.0,0.0,0.0,0.0,0.0,0.0,0.0,0.0,0.0,0.0,0.0,0.0,0.0,0.0,0.0,0.0,0.0,0.0,0.0,0.0,0.0,0.0,0.0,0.0,0.0,0.0,0.0,0.0,0.0,0.0,0.0,0.0,0.0,0.0,0.0,0.0,0.0,0.0,0.0,0.0,0.0,0.0,0.0,0.0,0.0,0.0,0.0,0.0,0.0,0.0,0.0,0.0,0.0,0.0,0.0,0.0,0.0,0.0,0.0,0.0,0.0,0.0,0.0,0.0,0.0,0.0,0.0,0.0,0.0,0.0,0.0,0.0,0.0,0.0,0.0,0.0,0.0,0.0,0.0,0.0,0.0,0.0,0.0,0.0,0.0,0.0,0.0,0.0,0.0,4.3124,0.0,0.0,0.0,0.0,0.0,0.0,0.0,0.0,0.0,0.0,0.0,0.0,0.0,0.0,0.0,0.0,0.0,0.0,0.0,0.0,0.0,0.0,0.0,0.0,0.0,0.0,0.0,0.0,0.0,0.0,0.0,0.0,0.0,0.0,0.0,0.0,0.0,0.0,0.0,0.0,0.0,0.0,0.0,0.0,0.0,0.0,0.0,0.0,0.0,0.0,0.0,0.0,0.0,0.0,0.0,0.0,0.0,0.0,0.0,0.0,0.0,0.0,0.0,0.0,0.0,0.0,0.0,0.0,0.0,0.0,0.0,0.0,0.0,0.0,0.0,0.0,0.0,0.0,0.0,0.0,0.0,0.0,0.0,0.0,0.0,0.0,0.0,0.0,0.0,0.0,0.0,0.0,0.0,0.0,0.0,0.0,0.0,0.0,0.0,0.0,0.0,0.0,0.0,0.0,0.0,0.0,0.0,0.0,0.0,0.0,4.5011,4.5013,4.5013,4.4821,4.4472,0.0,0.0,0.0,0.0,0.0,0.0,0.0,0.0,0.0,0.0,0.0,0.0,0.0,0.0,0.0,0.0,0.0,0.0,0.0,0.0,0.0,0.0,0.0,0.0,0.0,0.0,0.0,0.0,0.0,0.0,0.0,0.0,0.0,0.0,0.0,0.0,0.0,0.0,0.0,0.0,0.0,0.0,0.0,0.0,0.0,0.0,0.0,0.0,0.0,0.0,0.0,0.0,0.0,0.0,0.0,0.0,0.0,0.0,0.0,0.0,0.0,0.0,0.0,0.0,0.0,0.0,0.0,0.0,0.0,0.0,0.0,0.0,0.0,0.0,0.0,0.0,0.0,0.0,0.0,0.0,0.0,0.0,0.0,0.0,0.0,0.0,0.0,0.0,0.0,0.0,0.0,0.0,0.0,0.0,0.0,0.0,0.0,0.0,0.0,0.0,0.0,0.0,0.0,0.0,0.0,0.0,0.0,0.0,0.0,0.0,0.0,0.0,4.5592,4.5588,4.5577,0.0,0.0,0.0,0.0,0.0,0.0,0.0,0.0,0.0,0.0,0.0,0.0,0.0,0.0,0.0,0.0,0.0,0.0,0.0,0.0,0.0,0.0,0.0,0.0,0.0,0.0,0.0,0.0,0.0,0.0,0.0,0.0,0.0,0.0,0.0,0.0,0.0,0.0,0.0,0.0,0.0,0.0,0.0,0.0,0.0,0.0,0.0,0.0,0.0,0.0,0.0,0.0,0.0,0.0,0.0,0.0,0.0,0.0,0.0,0.0,0.0,0.0,0.0,0.0,0.0,0.0,0.0,0.0,0.0,0.0,0.0,0.0,0.0,0.0,0.0,0.0,0.0,0.0,0.0,0.0,0.0,0.0,0.0,0.0,0.0,0.0,0.0,0.0,0.0,0.0,0.0,0.0,0.0,0.0,0.0,0.0,0.0,0.0,0.0,0.0,0.0,0.0,0.0,0.0,0.0,0.0,0.0,0.0,0.0,0.0,4.5546,4.5592,4.5592,0.0,4.5489,0.0,0.0,0.0,0.0,0.0,0.0,0.0,0.0,0.0,0.0,0.0,0.0,0.0,0.0,0.0,0.0,0.0,0.0,0.0,0.0,0.0,0.0,0.0,0.0,0.0,0.0,0.0,0.0,0.0,0.0,0.0,0.0,0.0,0.0,0.0,0.0,0.0,0.0,0.0,0.0,0.0,0.0,0.0,0.0,0.0,0.0,0.0,0.0,0.0,0.0,0.0,0.0,0.0,0.0,0.0,0.0,0.0,0.0,0.0,0.0,0.0,0.0,0.0,0.0,0.0,0.0,0.0,0.0,0.0,0.0,0.0,0.0,0.0,0.0,0.0,0.0,0.0,0.0,0.0,0.0,0.0,0.0,0.0,0.0,0.0,0.0,0.0,0.0,0.0,0.0,0.0,0.0,0.0,0.0,0.0,0.0,0.0,0.0,0.0,0.0,0.0,0.0,0.0,0.0,0.0,0.0,0.0,0.0,0.0,0.0,4.5455,4.5505,4.5479,4.5491,0.0,0.0,0.0,0.0,0.0,0.0,0.0,0.0,0.0,0.0,0.0,0.0,0.0,0.0,0.0,0.0,0.0,0.0,0.0,0.0,0.0,0.0,0.0,0.0,0.0,0.0,0.0,0.0,0.0,0.0,0.0,0.0,0.0,0.0,0.0,0.0,0.0,0.0,0.0,0.0,0.0,0.0,0.0,0.0,0.0,0.0,0.0,0.0,0.0,0.0,0.0,0.0,0.0,0.0,0.0,0.0,0.0,0.0,0.0,0.0,0.0,0.0,0.0,0.0,0.0,0.0,0.0,0.0,0.0,0.0,0.0,0.0,0.0,0.0,0.0,0.0,0.0,0.0,0.0,0.0,0.0,0.0,0.0,0.0,0.0,0.0,0.0,0.0,0.0,0.0,0.0,0.0,0.0,0.0,0.0,0.0,0.0,0.0,0.0,0.0,0.0,0.0,0.0,0.0,0.0,0.0,0.0,0.0,0.0,0.0,4.5362,4.537,4.5417,4.5372,4.5378,4.5362,0.0,0.0,0.0,0.0,0.0,0.0,0.0,0.0,0.0,0.0,0.0,0.0,0.0,0.0,0.0,0.0,0.0,0.0,0.0,0.0,0.0,0.0,0.0,0.0,0.0,0.0,0.0,0.0,0.0,0.0,0.0,0.0,0.0,0.0,0.0,0.0,0.0,0.0,0.0,0.0,0.0,0.0,0.0,0.0,0.0,0.0,0.0,0.0,0.0,0.0,0.0,0.0,0.0,0.0,0.0,0.0,0.0,0.0,0.0,0.0,0.0,0.0,0.0,0.0,0.0,0.0,0.0,0.0,0.0,0.0,0.0,0.0,0.0,0.0,0.0,0.0,0.0,0.0,0.0,0.0,0.0,0.0,0.0,0.0,0.0,0.0,0.0,0.0,0.0,0.0,0.0,0.0,0.0,0.0,0.0,0.0,0.0,0.0,0.0,0.0,0.0,0.0,0.0,0.0,0.0,0.0,0.0,0.0,4.531,4.5324,4.535,4.54,4.5357,4.5262,0.0,0.0,0.0,0.0,0.0,0.0,0.0,0.0,0.0,0.0,0.0,0.0,0.0,0.0,0.0,0.0,0.0,0.0,0.0,0.0,0.0,0.0,0.0,0.0,0.0,0.0,0.0,0.0,0.0,0.0,0.0,0.0,0.0,0.0,0.0,0.0,0.0,0.0,0.0,0.0,0.0,0.0,0.0,0.0,0.0,0.0,0.0,0.0,0.0,0.0,0.0,0.0,0.0,0.0,0.0,0.0,0.0,0.0,0.0,0.0,0.0,0.0,0.0,0.0,0.0,0.0,0.0,0.0,0.0,0.0,0.0,0.0,0.0,0.0,0.0,0.0,0.0,0.0,0.0,0.0,0.0,0.0,0.0,0.0,0.0,0.0,0.0,0.0,0.0,0.0,0.0,0.0,0.0,0.0,0.0,0.0,0.0,0.0,0.0,0.0,0.0,0.0,0.0,0.0,0.0,0.0,0.0,0.0,0.0,4.5946,4.5452,4.5184,4.5197,4.5678,4.594,0.0,0.0,0.0,0.0,0.0,0.0,0.0,0.0,0.0,0.0,0.0,0.0,0.0,0.0,0.0,0.0,0.0,0.0,0.0,0.0,0.0,0.0,0.0,0.0,0.0,0.0,0.0,0.0,0.0,0.0,0.0,0.0,0.0,0.0,0.0,0.0,0.0,0.0,0.0,0.0,0.0,0.0,0.0,0.0,0.0,0.0,0.0,0.0,0.0,0.0,0.0,0.0,0.0,0.0,0.0,0.0,0.0,0.0,0.0,0.0,0.0,0.0,0.0,0.0,0.0,0.0,0.0,0.0,0.0,0.0,0.0,0.0,0.0,0.0,0.0,0.0,0.0,0.0,0.0,0.0,0.0,0.0,0.0,0.0,0.0,0.0,0.0,0.0,0.0,0.0,0.0,0.0,0.0,0.0,0.0,0.0,0.0,0.0,0.0,0.0,0.0,0.0,0.0,0.0,0.0,0.0,0.0,0.0,0.0,4.6304,0.0,4.5513,4.5492,4.6025,4.6409,0.0,0.0,0.0,0.0,0.0,0.0,0.0,0.0,0.0,0.0,0.0,0.0,0.0,0.0,0.0,0.0,0.0,0.0,0.0,0.0,0.0,0.0,0.0,0.0,0.0,0.0,0.0,0.0,0.0,0.0,0.0,0.0,0.0,0.0,0.0,0.0,0.0,0.0,0.0,0.0,0.0,0.0,0.0,0.0,0.0,0.0,0.0,0.0,0.0,0.0,0.0,0.0,0.0,0.0,0.0,0.0,0.0,0.0,0.0,0.0,0.0,0.0,0.0,0.0,0.0,0.0,0.0,0.0,0.0,0.0,0.0,0.0,0.0,0.0,0.0,0.0,0.0,0.0,0.0,0.0,0.0,0.0,0.0,0.0,0.0,0.0,0.0,0.0,0.0,0.0,0.0,0.0,0.0,0.0,0.0,0.0,0.0,0.0,0.0,0.0,0.0,0.0,0.0,0.0,0.0,0.0,0.0,0.0,4.7109,4.6377,4.6402,4.6361,4.6307,4.638,4.6692,0.0,0.0,0.0,0.0,0.0,0.0,0.0,0.0,0.0,0.0,0.0,0.0,0.0,0.0,0.0,0.0,0.0,0.0,0.0,0.0,0.0,0.0,0.0,0.0,0.0,0.0,0.0,0.0,0.0,0.0,0.0,0.0,0.0,0.0,0.0,0.0,0.0,0.0,0.0,0.0,0.0,0.0,0.0,0.0,0.0,0.0,0.0,0.0,0.0,0.0,0.0,0.0,0.0,0.0,0.0,0.0,0.0,0.0,0.0,0.0,0.0,0.0,0.0,0.0,0.0,0.0,0.0,0.0,0.0,0.0,0.0,0.0,0.0,0.0,0.0,0.0,0.0,0.0,0.0,0.0,0.0,0.0,0.0,0.0,0.0,0.0,0.0,0.0,0.0,0.0,0.0,0.0,0.0,0.0,0.0,0.0,0.0,0.0,0.0,0.0,0.0,0.0,0.0,0.0,0.0,0.0,0.0,0.0,0.0,4.7985,4.7397,4.709,4.7075,4.7644,4.8048,0.0,0.0,0.0,0.0,0.0,0.0,0.0,0.0,0.0,0.0,0.0,0.0,0.0,0.0,0.0,0.0,0.0,0.0,0.0,0.0,0.0,0.0,0.0,0.0,0.0,0.0,0.0,0.0,0.0,0.0,0.0,0.0,0.0,0.0,0.0,0.0,0.0,0.0,0.0,0.0,0.0,0.0,0.0,0.0,0.0,0.0,0.0,0.0,0.0,0.0,0.0,0.0,0.0,0.0,0.0,0.0,0.0,0.0,0.0,0.0,0.0,0.0,0.0,0.0,0.0,0.0,0.0,0.0,0.0,0.0,0.0,0.0,0.0,0.0,0.0,0.0,0.0,0.0,0.0,0.0,0.0,0.0,0.0,0.0,0.0,0.0,0.0,0.0,0.0,0.0,0.0,0.0,0.0,0.0,0.0,0.0,0.0,0.0,0.0,0.0,0.0,0.0,0.0,0.0,0.0,0.0,0.0,0.0,0.0,5.0289,4.9614,4.9258,4.9288,4.9557,4.9654,4.9655,0.0,0.0,0.0,0.0,0.0,0.0,0.0,0.0,0.0,0.0,0.0,0.0,0.0,0.0,0.0,0.0,0.0,0.0,0.0,0.0,0.0,0.0,0.0,0.0,0.0,0.0,0.0,0.0,0.0,0.0,0.0,0.0,0.0,0.0,0.0,0.0,0.0,0.0,0.0,0.0,0.0,0.0,0.0,0.0,0.0,0.0,0.0,0.0,0.0,0.0,0.0,0.0,0.0,0.0,0.0,0.0,0.0,0.0,0.0,0.0,0.0,0.0,0.0,0.0,0.0,0.0,0.0,0.0,0.0,0.0,0.0,0.0,0.0,0.0,0.0,0.0,0.0,0.0,0.0,0.0,0.0,0.0,0.0,0.0,0.0,0.0,0.0,0.0,0.0,0.0,0.0,0.0,0.0,0.0,0.0,0.0,0.0,0.0,0.0,0.0,0.0,0.0,0.0,0.0,0.0,0.0,0.0,0.0,5.3046,5.2847,5.2682,5.2565,5.1857,5.1368,0.0,0.0,0.0,0.0,0.0,0.0,0.0,0.0,0.0,0.0,0.0,0.0,0.0,0.0,0.0,0.0,0.0,0.0,0.0,0.0,0.0,0.0,0.0,0.0,0.0,0.0,0.0,0.0,0.0,0.0,0.0,0.0,0.0,0.0,0.0,0.0,0.0,0.0,0.0,0.0,0.0,0.0,0.0,0.0,0.0,0.0,0.0,0.0,0.0,0.0,0.0,0.0,0.0,0.0,0.0,0.0,0.0,0.0,0.0,0.0,0.0,0.0,0.0,0.0,0.0,0.0,0.0,0.0,0.0,0.0,0.0,0.0,0.0,0.0,0.0,0.0,0.0,0.0,0.0,0.0,0.0,0.0,0.0,0.0,0.0,0.0,0.0,0.0,0.0,0.0,0.0,0.0,0.0,0.0,0.0,0.0,0.0,0.0,0.0,0.0,0.0,0.0,0.0,0.0,0.0,0.0,0.0,0.0,0.0,5.513,5.6197,5.5881,5.4121,5.342,5.2786,0.0,0.0,0.0,0.0,0.0,0.0,0.0,0.0,0.0,0.0,0.0,0.0,0.0,0.0,0.0,0.0,0.0,0.0,0.0,0.0,0.0,0.0,0.0,0.0,0.0,0.0,0.0,0.0,0.0,0.0,0.0,0.0,0.0,0.0,0.0,0.0,0.0,0.0,0.0,0.0,0.0,0.0,0.0,0.0,0.0,0.0,0.0,0.0,0.0,0.0,0.0,0.0,0.0,0.0,0.0,0.0,0.0,0.0,0.0,0.0,0.0,0.0,0.0,0.0,0.0,0.0,0.0,0.0,0.0,0.0,0.0,0.0,0.0,0.0,0.0,0.0,0.0,0.0,0.0,0.0,0.0,0.0,0.0,0.0,0.0,0.0,0.0,0.0,0.0,0.0,0.0,0.0,0.0,0.0,0.0,0.0,0.0,0.0,0.0,0.0,0.0,0.0,0.0,0.0,0.0,0.0,0.0,0.0,5.4433,5.5922,5.7552,5.7744,5.6305,5.5261,5.4095,0.0,0.0,0.0,0.0,0.0,0.0,0.0,0.0,0.0,0.0,0.0,0.0,0.0,0.0,0.0,0.0,0.0,0.0,0.0,0.0,0.0,0.0,0.0,0.0,0.0,0.0,0.0,0.0,0.0,0.0,0.0,0.0,0.0,0.0,0.0,0.0,0.0,0.0,0.0,0.0,0.0,0.0,0.0,0.0,0.0,0.0,0.0,0.0,0.0,0.0,0.0,0.0,0.0,0.0,0.0,0.0,0.0,0.0,0.0,0.0,0.0,0.0,0.0,0.0,0.0,0.0,0.0,0.0,0.0,0.0,0.0,0.0,0.0,0.0,0.0,0.0,0.0,0.0,0.0,0.0,0.0,0.0,0.0,0.0,0.0,0.0,0.0,0.0,0.0,0.0,0.0,0.0,0.0,0.0,0.0,0.0,0.0,0.0,0.0,0.0,0.0,0.0,0.0,0.0,0.0,0.0,0.0,0.0,5.5235,5.6076,5.7719,5.8597,5.8543,5.701,5.5257,0.0,0.0,0.0,0.0,0.0,0.0,0.0,0.0,0.0,0.0,0.0,0.0,0.0,0.0,0.0,0.0,0.0,0.0,0.0,0.0,0.0,0.0,0.0,0.0,0.0,0.0,0.0,0.0,0.0,0.0,0.0,0.0,0.0,0.0,0.0,0.0,0.0,0.0,0.0,0.0,0.0,0.0,0.0,0.0,0.0,0.0,0.0,0.0,0.0,0.0,0.0,0.0,0.0,0.0,0.0,0.0,0.0,0.0,0.0,0.0,0.0,0.0,0.0,0.0,0.0,0.0,0.0,0.0,0.0,0.0,0.0,0.0,0.0,0.0,0.0,0.0,0.0,0.0,0.0,0.0,0.0,0.0,0.0,0.0,0.0,0.0,0.0,0.0,0.0,0.0,0.0,0.0,0.0,0.0,0.0,0.0,0.0,0.0,0.0,0.0,0.0,0.0,0.0,0.0,0.0,0.0,0.0,0.0,5.5574,5.7198,5.8134,5.8592,5.8602,5.7286,5.5761,0.0,0.0,0.0,0.0,0.0,0.0,0.0,0.0,0.0,0.0,0.0,0.0,0.0,0.0,0.0,0.0,0.0,0.0,0.0,0.0,0.0,0.0,0.0,0.0,0.0,0.0,0.0,0.0,0.0,0.0,0.0,0.0,0.0,0.0,0.0,0.0,0.0,0.0,0.0,0.0,0.0,0.0,0.0,0.0,0.0,0.0,0.0,0.0,4.9575,0.0,0.0,0.0,0.0,0.0,0.0,0.0,0.0,0.0,0.0,0.0,0.0,0.0,0.0,0.0,0.0,0.0,0.0,0.0,0.0,0.0,0.0,0.0,0.0,0.0,0.0,0.0,0.0,0.0,0.0,0.0,0.0,0.0,0.0,0.0,0.0,0.0,0.0,0.0,0.0,0.0,0.0,0.0,0.0,0.0,0.0,0.0,0.0,0.0,0.0,0.0,0.0,0.0,0.0,0.0,0.0,0.0,0.0,0.0,5.67,5.8381,5.9098,5.9444,5.9418,5.8471,5.6858,0.0,0.0,0.0,0.0,0.0,0.0,0.0,0.0,0.0,0.0,0.0,0.0,0.0,0.0,0.0,0.0,0.0,0.0,0.0,0.0,0.0,0.0,0.0,0.0,0.0,0.0,0.0,0.0,0.0,0.0,0.0,0.0,0.0,0.0,0.0,0.0,0.0,0.0,0.0,0.0,0.0,0.0,0.0,0.0,0.0,0.0,0.0,0.0,0.0,0.0,0.0,0.0,0.0,0.0,0.0,0.0,0.0,0.0,0.0,0.0,0.0,0.0,0.0,0.0,0.0,0.0,0.0,0.0,0.0,0.0,0.0,0.0,0.0,0.0,0.0,0.0,0.0,0.0,0.0,0.0,0.0,0.0,0.0,0.0,0.0,0.0,0.0,0.0,0.0,0.0,0.0,0.0,0.0,0.0,0.0,0.0,0.0,0.0,0.0,0.0,0.0,0.0,0.0,0.0,0.0,0.0,0.0,5.6878,5.7941,5.9495,6.01,6.0413,6.0376,5.9742,5.7994,5.5138,0.0,0.0,0.0,0.0,0.0,0.0,0.0,0.0,0.0,0.0,0.0,0.0,0.0,0.0,0.0,0.0,0.0,0.0,0.0,0.0,0.0,0.0,0.0,0.0,0.0,0.0,0.0,0.0,0.0,0.0,0.0,0.0,0.0,0.0,0.0,0.0,0.0,0.0,4.7233,4.7944,0.0,0.0,0.0,0.0,0.0,0.0,0.0,0.0,5.291,0.0,0.0,0.0,0.0,0.0,0.0,0.0,0.0,0.0,0.0,0.0,0.0,0.0,0.0,0.0,0.0,0.0,0.0,0.0,0.0,0.0,0.0,0.0,0.0,0.0,0.0,0.0,0.0,0.0,0.0,0.0,0.0,0.0,0.0,0.0,0.0,0.0,0.0,0.0,0.0,0.0,0.0,0.0,0.0,0.0,0.0,0.0,0.0,0.0,0.0,0.0,0.0,0.0,0.0,0.0,0.0,5.6856,5.7612,5.8753,6.0186,6.0358,6.0413,6.0376,5.9654,5.835,5.6511,0.0,0.0,0.0,0.0,0.0,0.0,0.0,0.0,0.0,0.0,0.0,0.0,0.0,0.0,0.0,0.0,0.0,0.0,0.0,0.0,0.0,0.0,0.0,0.0,0.0,0.0,0.0,0.0,0.0,0.0,0.0,0.0,0.0,0.0,0.0,0.0,0.0,0.0,0.0,4.9953,5.0073,0.0,0.0,0.0,0.0,0.0,0.0,0.0,0.0,5.4012,0.0,0.0,0.0,0.0,0.0,0.0,0.0,0.0,0.0,0.0,0.0,0.0,0.0,0.0,0.0,0.0,0.0,0.0,0.0,0.0,0.0,0.0,0.0,0.0,0.0,0.0,0.0,0.0,0.0,0.0,0.0,0.0,0.0,0.0,0.0,0.0,0.0,0.0,0.0,0.0,0.0,0.0,0.0,0.0,0.0,0.0,0.0,0.0,0.0,0.0,0.0,0.0,0.0,0.0,0.0,5.8162,5.8957,6.0106,6.1588,6.1655,6.1661,6.1624,6.0854,5.9496,0.0,0.0,0.0,0.0,0.0,0.0,0.0,0.0,0.0,0.0,0.0,0.0,0.0,0.0,0.0,0.0,0.0,0.0,0.0,0.0,0.0,0.0,0.0,0.0,0.0,0.0,0.0,0.0,0.0,0.0,0.0,0.0,0.0,0.0,0.0,0.0,0.0,0.0,0.0,0.0,5.1717,5.2123,5.3421,0.0,0.0,0.0,0.0,0.0,0.0,5.6274,5.598,0.0,0.0,0.0,0.0,0.0,0.0,0.0,0.0,0.0,0.0,0.0,0.0,0.0,0.0,0.0,0.0,0.0,0.0,0.0,0.0,0.0,0.0,0.0,0.0,0.0,0.0,0.0,0.0,0.0,0.0,0.0,0.0,0.0,0.0,0.0,0.0,0.0,0.0,0.0,0.0,0.0,0.0,0.0,0.0,0.0,0.0,0.0,0.0,0.0,0.0,0.0,0.0,0.0,0.0,0.0,5.9299,6.021,6.1331,6.2719,6.2793,6.2793,6.2793,6.1845,6.0309,0.0,0.0,0.0,0.0,0.0,0.0,0.0,0.0,0.0,0.0,0.0,0.0,0.0,0.0,0.0,0.0,0.0,0.0,0.0,0.0,0.0,0.0,0.0,0.0,0.0,0.0,0.0,0.0,0.0,0.0,0.0,0.0,0.0,0.0,0.0,0.0,0.0,0.0,0.0,0.0,0.0,5.4183,5.6517,5.5746,0.0,0.0,0.0,0.0,5.7339,5.8002,0.0,0.0,0.0,0.0,0.0,0.0,0.0,0.0,0.0,0.0,0.0,0.0,0.0,0.0,0.0,0.0,0.0,0.0,0.0,0.0,0.0,0.0,0.0,0.0,0.0,0.0,0.0,0.0,0.0,0.0,0.0,0.0,0.0,0.0,0.0,0.0,0.0,0.0,0.0,0.0,0.0,0.0,0.0,0.0,0.0,0.0,0.0,0.0,0.0,0.0,0.0,0.0,0.0,0.0,0.0,0.0,5.9208,6.0719,6.1887,6.2756,6.2793,6.2793,6.2793,6.1331,5.9758,0.0,0.0,0.0,0.0,0.0,0.0,0.0,0.0,0.0,0.0,0.0,0.0,0.0,0.0,0.0,0.0,0.0,0.0,0.0,0.0,0.0,0.0,0.0,0.0,0.0,0.0,0.0,0.0,0.0,0.0,0.0,0.0,0.0,0.0,0.0,0.0,0.0,0.0,0.0,0.0,0.0,5.5743,5.7504,5.7473,5.7303,0.0,0.0,5.9006,5.9753,6.0564,0.0,0.0,0.0,0.0,0.0,0.0,0.0,0.0,0.0,0.0,0.0,0.0,0.0,0.0,0.0,0.0,0.0,0.0,0.0,0.0,0.0,0.0,0.0,0.0,0.0,0.0,0.0,0.0,0.0,0.0,0.0,0.0,0.0,0.0,0.0,0.0,0.0,0.0,0.0,0.0,0.0,0.0,0.0,0.0,0.0,0.0,0.0,0.0,0.0,0.0,0.0,0.0,0.0,0.0,0.0,5.8939,6.0529,6.1698,6.2462,6.2793,6.2793,6.2793,6.2793,6.1661,6.0309,0.0,0.0,0.0,0.0,0.0,0.0,0.0,0.0,0.0,0.0,0.0,0.0,0.0,0.0,0.0,0.0,0.0,0.0,0.0,0.0,0.0,0.0,0.0,0.0,0.0,0.0,0.0,0.0,0.0,0.0,0.0,0.0,0.0,0.0,0.0,0.0,0.0,0.0,0.0,0.0,0.0,0.0,5.829,5.8897,0.0,0.0,0.0,6.0361,6.0266,0.0,0.0,0.0,0.0,0.0,0.0,0.0,0.0,0.0,0.0,0.0,0.0,0.0,0.0,0.0,0.0,0.0,0.0,0.0,0.0,0.0,0.0,0.0,0.0,0.0,0.0,0.0,0.0,0.0,0.0,0.0,0.0,0.0,0.0,0.0,0.0,0.0,0.0,0.0,0.0,0.0,0.0,0.0,0.0,0.0,0.0,0.0,0.0,0.0,0.0,0.0,0.0,0.0,0.0,0.0,0.0,0.0,6.1887,6.2909,6.3417,6.3417,6.3385,6.3366,6.3336,6.2565,0.0,0.0,0.0,0.0,0.0,0.0,0.0,0.0,0.0,0.0,0.0,0.0,0.0,0.0,0.0,0.0,0.0,0.0,0.0,0.0,0.0,0.0,0.0,0.0,0.0,0.0,0.0,4.992,0.0,0.0,0.0,0.0,0.0,0.0,0.0,0.0,0.0,0.0,0.0,0.0,0.0,0.0,5.7505,5.9167,6.0288,6.0965,0.0,0.0,6.1875,6.1545,6.2761,6.3123,0.0,0.0,0.0,0.0,0.0,0.0,0.0,0.0,0.0,0.0,0.0,0.0,0.0,0.0,0.0,0.0,0.0,0.0,0.0,0.0,0.0,0.0,0.0,0.0,0.0,0.0,0.0,0.0,0.0,0.0,0.0,0.0,0.0,0.0,0.0,0.0,0.0,0.0,0.0,0.0,0.0,0.0,0.0,0.0,0.0,0.0,0.0,0.0,0.0,0.0,0.0,0.0,0.0,0.0,0.0,6.2719,6.4304,6.5105,6.5105,6.4951,6.4848,6.4848,6.4073,6.2472,0.0,0.0,0.0,0.0,0.0,0.0,0.0,0.0,0.0,0.0,0.0,0.0,0.0,0.0,0.0,0.0,0.0,0.0,0.0,0.0,0.0,0.0,0.0,0.0,0.0,0.0,0.0,0.0,0.0,0.0,0.0,0.0,0.0,0.0,0.0,0.0,0.0,0.0,0.0,0.0,0.0,5.8642,6.0272,6.1753,6.2856,0.0,0.0,6.3803,6.4793,6.5772,6.5543,6.2955,0.0,0.0,0.0,0.0,0.0,0.0,0.0,0.0,0.0,0.0,0.0,0.0,0.0,0.0,0.0,0.0,0.0,0.0,0.0,0.0,0.0,0.0,0.0,0.0,0.0,0.0,0.0,0.0,0.0,0.0,0.0,0.0,0.0,0.0,0.0,0.0,0.0,0.0,0.0,0.0,0.0,0.0,0.0,0.0,0.0,0.0,0.0,0.0,0.0,0.0,0.0,0.0,0.0,6.1961,6.3576,6.4707,6.5249,6.5097,6.5045,6.4978,6.4885,6.4549,6.3494,0.0,0.0,0.0,0.0,0.0,0.0,0.0,0.0,0.0,0.0,0.0,0.0,0.0,0.0,0.0,0.0,0.0,0.0,0.0,0.0,0.0,0.0,0.0,0.0,0.0,0.0,0.0,0.0,5.6731,5.7326,5.7106,0.0,0.0,0.0,0.0,0.0,0.0,0.0,0.0,0.0,0.0,6.0107,6.1695,6.327,0.0,0.0,6.4575,6.4613,6.4655,6.5459,6.5218,6.2791,6.1464,0.0,0.0,0.0,0.0,0.0,0.0,0.0,0.0,0.0,0.0,0.0,0.0,0.0,0.0,0.0,0.0,0.0,0.0,0.0,0.0,0.0,0.0,0.0,0.0,0.0,0.0,0.0,0.0,0.0,0.0,0.0,0.0,0.0,0.0,0.0,0.0,0.0,0.0,0.0,0.0,0.0,0.0,0.0,0.0,0.0,0.0,0.0,0.0,0.0,0.0,0.0,0.0,6.2681,6.4304,6.5347,6.582,6.5653,6.5605,6.5574,6.5464,6.5457,6.4672,0.0,0.0,0.0,0.0,0.0,0.0,0.0,0.0,0.0,0.0,0.0,0.0,0.0,0.0,0.0,0.0,0.0,0.0,0.0,0.0,0.0,0.0,0.0,0.0,0.0,0.0,0.0,0.0,5.8507,5.8828,5.7639,0.0,0.0,0.0,0.0,0.0,0.0,0.0,0.0,0.0,0.0,6.1607,6.2657,6.4062,6.4911,6.4753,6.4828,6.4847,6.4767,6.5283,6.5153,6.3431,0.0,0.0,0.0,0.0,0.0,0.0,0.0,0.0,0.0,0.0,0.0,0.0,0.0,0.0,0.0,0.0,0.0,0.0,0.0,0.0,0.0,0.0,0.0,0.0,0.0,0.0,0.0,0.0,0.0,0.0,0.0,0.0,0.0,0.0,0.0,0.0,0.0,0.0,0.0,0.0,0.0,0.0,0.0,0.0,0.0,0.0,0.0,0.0,0.0,0.0,0.0,0.0,0.0,6.3324,6.4767,6.6349,6.7181,6.7137,6.7025,6.6997,6.6946,6.6983,6.6155,6.4424,0.0,0.0,0.0,0.0,0.0,0.0,0.0,0.0,0.0,0.0,0.0,0.0,0.0,0.0,0.0,0.0,0.0,0.0,0.0,0.0,0.0,0.0,0.0,0.0,0.0,0.0,5.6488,5.8619,5.9399,0.0,0.0,0.0,0.0,0.0,0.0,0.0,0.0,0.0,0.0,6.1228,6.3012,6.3026,6.3824,6.4316,6.3905,6.4033,6.4519,6.5575,6.5789,6.5698,0.0,0.0,0.0,0.0,0.0,0.0,0.0,0.0,0.0,0.0,0.0,0.0,0.0,0.0,0.0,0.0,0.0,0.0,0.0,0.0,0.0,0.0,0.0,0.0,0.0,0.0,0.0,0.0,5.2808,0.0,0.0,0.0,0.0,0.0,0.0,0.0,0.0,0.0,0.0,0.0,5.7743,5.8097,0.0,0.0,0.0,0.0,0.0,0.0,0.0,0.0,0.0,0.0,0.0,0.0,6.4582,6.5628,6.77,6.8743,6.8684,6.8633,6.8566,6.8441,6.847,6.7686,6.6062,0.0,0.0,0.0,0.0,0.0,0.0,0.0,0.0,0.0,0.0,0.0,0.0,0.0,0.0,0.0,0.0,0.0,0.0,0.0,0.0,0.0,0.0,0.0,0.0,0.0,5.806,0.0,0.0,0.0,0.0,0.0,0.0,0.0,0.0,0.0,0.0,0.0,6.0273,6.0914,6.2316,6.3434,6.3739,6.4617,6.5275,0.0,0.0,0.0,0.0,0.0,0.0,0.0,0.0,0.0,0.0,0.0,0.0,0.0,0.0,6.0391,5.8465,5.8532,5.889,5.8895,0.0,0.0,0.0,0.0,0.0,0.0,0.0,0.0,0.0,0.0,0.0,0.0,0.0,0.0,0.0,0.0,5.5332,0.0,0.0,0.0,0.0,0.0,0.0,0.0,0.0,6.0103,6.0801,6.0853,6.0953,6.0993,0.0,6.1039,5.9981,0.0,0.0,0.0,0.0,0.0,0.0,0.0,0.0,6.5185,6.6305,6.8379,6.9433,6.9328,6.932,6.929,6.9199,6.9199,6.8721,6.7663,6.5852,6.4409,0.0,0.0,0.0,0.0,0.0,0.0,0.0,0.0,0.0,0.0,0.0,0.0,0.0,0.0,0.0,0.0,0.0,0.0,0.0,0.0,0.0,0.0,0.0,5.9542,0.0,0.0,0.0,0.0,0.0,0.0,0.0,0.0,0.0,5.9502,6.114,6.2532,6.2862,6.4098,6.4789,6.4254,0.0,0.0,0.0,0.0,0.0,0.0,0.0,6.606,6.5305,6.5867,6.6394,6.6248,6.6433,6.6587,6.6611,0.0,0.0,6.2073,6.1747,6.1884,6.1884,6.1879,6.1884,6.1921,6.1823,6.1772,0.0,0.0,0.0,0.0,0.0,0.0,0.0,0.0,5.987,5.944,0.0,5.944,0.0,0.0,0.0,0.0,0.0,0.0,0.0,0.0,6.3379,6.4084,6.3389,6.3402,6.3402,6.3402,6.3548,6.3548,6.3308,6.208,0.0,0.0,0.0,0.0,0.0,0.0,6.5272,6.6895,6.8511,6.9308,6.9308,6.9308,6.9308,6.9308,6.9272,6.9236,6.9199,6.8416,6.7286,6.5743,6.5038,0.0,0.0,0.0,0.0,0.0,0.0,0.0,0.0,0.0,0.0,0.0,0.0,0.0,0.0,0.0,0.0,0.0,0.0,0.0,0.0,5.9908,0.0,0.0,0.0,0.0,0.0,0.0,0.0,0.0,0.0,0.0,6.0449,6.2806,6.4601,6.4463,0.0,0.0,0.0,0.0,6.7003,6.4708,6.509,6.5737,6.5768,6.6432,6.72,6.7802,0.0,0.0,6.9138,6.8654,6.8274,6.8265,6.8702,6.8207,6.522,6.41,6.359,6.3547,6.3627,6.3479,6.3473,6.3768,6.3651,6.1263,0.0,0.0,0.0,0.0,6.088,6.1614,6.2212,6.2212,6.2103,6.1849,6.1516,0.0,0.0,0.0,0.0,0.0,0.0,6.2989,6.3517,6.5394,6.6388,6.6641,6.7331,6.7585,6.7496,6.7541,6.7534,6.746,6.7092,6.5749,6.3493,0.0,0.0,0.0,0.0,6.7474,6.854,7.0053,7.0842,7.085,7.0842,7.085,7.0842,7.0307,7.0061,7.0061,6.93,6.8387,6.7366,6.7215,0.0,0.0,0.0,0.0,0.0,0.0,0.0,0.0,0.0,0.0,0.0,0.0,0.0,0.0,0.0,0.0,0.0,0.0,0.0,6.1087,6.197,6.2219,0.0,0.0,0.0,0.0,0.0,0.0,0.0,0.0,0.0,6.4697,6.5016,6.5484,0.0,0.0,6.6012,6.5218,6.6269,6.7031,6.6715,0.0,0.0,0.0,6.8399,6.8633,6.876,6.9823,7.0673,7.0673,7.0972,7.1234,7.1223,7.0926,7.0335,6.9529,6.8666,6.8118,6.8118,6.8118,6.8118,6.8125,6.8118,6.8095,6.437,6.3711,6.3032,6.2447,6.2023,6.3069,6.4147,6.5091,6.5091,6.5091,6.5084,6.4932,6.4547,6.3978,6.3028,0.0,0.0,0.0,6.5605,6.633,6.736,6.8078,6.8503,6.9057,6.9275,6.9199,6.9586,6.9724,6.967,6.9724,6.8781,6.6801,0.0,0.0,6.6561,6.7769,6.879,6.9699,7.0879,7.1494,7.1494,7.1494,7.1494,7.1494,7.1068,7.0814,7.0814,7.0379,6.9764,6.8995,6.9014,6.8115,0.0,0.0,0.0,0.0,0.0,0.0,0.0,0.0,0.0,0.0,0.0,5.8727,0.0,0.0,0.0,0.0,6.1781,6.2858,6.3254,6.3541,0.0,0.0,0.0,0.0,0.0,0.0,0.0,6.3314,6.4948,6.6468,6.7451,6.7215,6.7136,6.7611,6.7516,6.7204,6.6537,0.0,6.8486,6.8228,6.8569,6.9041,6.9439,6.9824,7.0182,7.0432,7.1157,7.1754,7.1791,7.2195,7.2488,7.2452,7.2085,7.177,7.1756,7.1359,7.0814,7.0227,7.011,7.011,7.011,7.011,7.011,6.7077,6.7475,6.4673,6.3589,6.3913,6.5306,6.6721,6.8082,6.8082,6.8126,6.8155,6.8866,6.8351,6.6996,6.7003,0.0,0.0,6.7756,6.8452,6.9199,6.9264,6.9308,6.93,6.9344,6.9373,6.9417,7.0279,7.0635,7.0612,7.0715,7.0743,7.0641,6.901,6.8236,6.8321,6.8922,6.9697,7.0677,7.135,7.1704,7.1712,7.1668,7.1712,7.1712,7.1639,7.1603,7.1595,7.1523,7.1205,7.0532,7.0488,6.98,6.8271,0.0,0.0,0.0,0.0,0.0,0.0,0.0,0.0,0.0,0.0,0.0,0.0,0.0,0.0,0.0,6.4764,0.0,6.5595,6.5006,0.0,0.0,0.0,6.4155,6.5638,6.5847,6.6179,6.6918,0.0,0.0,0.0,0.0,6.9309,6.9346,6.9928,6.9737,6.8271,6.9855,7.0756,6.9332,6.9779,7.0264,7.0388,7.0931,7.1555,7.2172,7.2532,7.2459,7.2459,7.2488,7.2496,7.2532,7.2496,7.2488,7.2496,7.2415,7.2055,7.0741,7.041,7.033,7.0403,7.0403,7.044,6.5245,6.5387,6.5207,6.6166,6.7813,6.819,6.8576,6.8902,6.8938,6.8894,6.8931,6.9127,6.8982,6.8612,6.8648,6.8648,6.8648,6.8829,6.9011,6.9228,6.9851,7.0097,7.0134,7.0661,7.0951,7.0951,7.1171,7.1606,7.2146,7.2178,7.2504,7.3044,7.2641,7.1845,7.0726,7.1411,7.2215,7.3044,7.3261,7.3333,7.3325,7.3325,7.3325,7.3325,7.2746,7.2428,7.2392,7.1812,7.1414,7.1241,7.1241,7.0806,6.9872,6.8337,0.0,0.0,0.0,0.0,0.0,0.0,0.0,0.0,0.0,6.1257,6.1654,0.0,6.457,0.0,6.6792,6.8044,6.8047,6.7984,0.0,0.0,6.7082,6.7084,6.746,6.7954,6.8331,6.8522,6.9024,6.9671,7.0666,7.0776,7.0996,7.1584,7.0776,7.0011,6.9644,7.0527,7.119,7.0903,7.1424,7.1908,7.1945,7.2048,7.2305,7.2452,7.2532,7.2532,7.2532,7.2532,7.2532,7.2532,7.2532,7.2532,7.2562,7.2532,7.2679,7.2723,7.2356,7.1945,7.1938,7.1945,7.1945,6.5787,6.6147,6.6568,6.7683,6.9193,6.8814,6.9087,6.9735,6.9735,6.9916,7.0198,7.0235,7.0235,7.0206,7.0235,7.0235,7.0235,7.0198,7.0235,7.0271,7.1068,7.143,7.1466,7.2211,7.2573,7.2573,7.2573,7.279,7.3217,7.3217,7.347,7.3905,7.4267,7.3977,7.3144,7.3181,7.347,7.3868,7.3905,7.3905,7.3905,7.3905,7.3691,7.33,7.283,7.2211,7.146,7.0983,7.0625,7.0371,7.0335,7.0193,6.988,6.8669,6.7316,0.0,0.0,0.0,0.0,0.0,0.0,0.0,0.0,0.0,0.0,0.0,6.6512,0.0,6.8451,0.0,6.8928,6.896,6.897,6.8904,6.8934,6.9275,6.9968,7.0379,7.0595,7.0625,7.093,7.1358,7.1791,7.2151,7.2532,7.2973,7.2562,7.2092,7.1798,7.2092,7.2488,7.2855,7.3289,7.3553,7.3553,7.3553,7.3553,7.3582,7.359,7.3553,7.3553,7.3553,7.356,7.3589,7.3575,7.3582,7.3553,7.3568,7.3736,7.4001,7.3891,7.359,7.3553,7.3546,7.3553,6.7522,6.8136,6.8136,6.8605,6.9274,6.8584,6.9044,7.0245,7.0368,7.0808,7.1487,7.1494,7.1494,7.1494,7.1595,7.1668,7.1675,7.174,7.1812,7.1849,7.2537,7.2863,7.2891,7.3579,7.3905,7.3905,7.3905,7.4013,7.4194,7.4203,7.4303,7.452,7.5208,7.557,7.5534,7.4846,7.442,7.4194,7.4153,7.4145,7.4162,7.412,7.3676,7.2819,7.2659,7.1827,7.0213,6.9981,6.9745,6.9255,6.9198,6.9276,6.9474,6.8749,6.8005,0.0,6.585,0.0,0.0,0.0,0.0,0.0,0.0,0.0,0.0,6.7958,6.8355,6.9148,6.9846,7.0,6.9405,6.9369,6.9626,7.03,7.0403,7.0954,7.2305,7.2606,7.2642,7.2635,7.2753,7.2782,7.2863,7.345,7.3861,7.3891,7.4287,7.4434,7.4111,7.3854,7.3993,7.4837,7.4903,7.4683,7.4757,7.4793,7.4793,7.483,7.4793,7.4903,7.4793,7.483,7.4845,7.4845,7.4786,7.4815,7.4894,7.4866,7.494,7.5197,7.5234,7.5087,7.483,7.4757,7.4903,6.877,6.8886,6.8886,6.9315,6.9999,6.9827,6.9624,6.9486,7.0123,7.08,7.1487,7.1494,7.1494,7.1559,7.2175,7.2464,7.2501,7.3144,7.3434,7.3478,7.3615,7.3651,7.3687,7.384,7.3905,7.3905,7.3905,7.4565,7.5849,7.5849,7.6492,7.776,7.7933,7.8041,0.0,0.0,0.0,0.0,7.5517,7.544,7.5596,7.5329,7.4883,7.4212,7.3583,0.0,7.1787,7.1131,7.079,7.0843,7.0851,0.0,0.0,0.0,0.0,0.0,0.0,0.0,0.0,0.0,0.0,0.0,6.8742,6.8723,6.8688,6.9272,7.0,7.0756,7.0977,7.1277,7.1762,7.1828,7.1872,7.2011,7.2048,7.2158,7.2496,7.3083,7.3494,7.3494,7.403,7.4426,7.439,7.4573,7.4691,7.4712,7.4801,7.5094,7.5608,7.5131,7.4727,7.4867,7.5109,7.4969,7.4903,7.4999,7.5182,7.4903,7.4903,7.4977,7.5087,7.505,7.4954,7.502,7.491,7.4991,7.4968,7.4903,7.5491,7.6592,7.6848,7.6445,7.5197,7.494,7.4903,6.9079,0.0,6.9079,6.9338,0.0,6.9664,6.9481,6.9253,7.0389,7.11,7.146,7.1918,7.2077,7.2122,7.2918,7.3289,7.3333,7.3724,7.3905,7.3941,7.471,7.5072,7.5108,7.5905,7.6267,7.6267,7.6267,7.671,7.747,7.7479,7.7914,7.8702,7.8702,7.8681,7.8593,7.8543,7.7971,7.6831,7.617,7.5889,7.5993,7.6287,7.604,7.5298,0.0,0.0,0.0,0.0,0.0,0.0,0.0,0.0,0.0,0.0,0.0,7.0351,6.9973,6.9893,7.0284,7.0328,7.0762,7.1799,7.2085,7.1626,7.0199,7.0807,7.1468,7.1828,7.1894,7.2048,7.2452,7.2855,7.3083,7.312,7.345,7.3663,7.3736,7.4037,7.4294,7.4331,7.4661,7.4903,7.4903,7.5278,7.5644,7.5964,7.6367,7.6843,7.7445,7.6443,7.5696,7.6448,7.6953,7.7134,7.7064,7.7126,7.7144,7.7181,7.725,7.7297,7.7304,7.7349,7.7304,7.7333,7.7304,7.7304,7.7341,7.7341,7.7598,7.8295,7.8516,7.8332,7.7451,7.7341,7.7349,6.9891,6.9857,6.9857,6.9891,6.9891,6.988,6.9891,6.9944,0.0,0.0,0.0,7.2325,7.2771,7.2958,7.3915,7.4338,7.433,7.4607,7.4671,7.4582,7.6035,7.6642,7.6559,7.7851,7.8465,7.8465,7.8609,7.8745,7.8889,7.8998,7.9062,7.9044,7.9026,7.8975,7.8855,7.8612,7.8233,7.7742,7.681,7.6343,7.637,7.7056,7.6968,7.6069,7.6615,7.5949,7.3918,7.3673,7.3166,7.2214,7.2006,7.2006,7.213,7.1994,7.1921,7.1921,7.1921,7.2211,7.2863,7.2899,7.3325,7.4324,7.4685,7.403,7.2041,7.2562,7.2929,7.2922,7.2936,7.2929,7.2929,7.3479,7.3898,7.3927,7.4507,7.4867,7.4903,7.505,7.5124,7.5094,7.5372,7.5511,7.5576,7.6236,7.6828,7.739,7.7943,7.8646,7.9052,7.7929,7.7281,7.8257,7.8767,7.9304,7.9263,7.9186,7.9458,7.9166,7.9389,7.9676,7.9684,7.9676,7.9679,7.9389,7.9666,7.9545,7.9638,7.9467,7.9805,7.9915,8.0021,8.0065,8.0212,8.0188,7.9989,7.2845,7.2879,7.2879,7.2879,7.2879,7.2879,7.2879,7.2722,7.1105,7.0779,7.1428,7.2342,7.3092,7.3797,7.5311,7.5945,7.596,7.7385,7.762,0.0,7.7926,7.7954,7.7284,7.748,7.7596,7.7623,7.8311,7.8936,7.9577,8.0239,8.0519,8.0343,8.0344,8.0327,8.0232,7.9546,7.9107,7.9011,7.7984,7.754,7.7708,7.7644,7.7283,7.6608,7.6125,7.5767,7.5457,7.4777,7.4698,7.5339,7.4749,7.4463,7.4576,7.3941,7.3579,7.3543,7.3579,7.3623,7.376,7.3724,7.3885,7.4211,7.4532,7.4622,7.4419,7.45,7.4581,7.4536,7.4463,7.4581,7.4581,7.4639,7.4742,7.4749,7.4867,7.4896,7.5072,7.5637,7.5996,7.5902,7.7006,7.7683,7.7534,7.8151,7.8617,7.886,7.9152,7.9217,7.9457,7.9274,7.9318,7.9517,7.9506,7.9483,7.9648,7.9364,7.9525,7.9253,7.9505,7.9701,7.9746,7.9737,7.9758,7.9434,7.969,7.9571,7.9523,7.9438,8.0044,8.0609,8.0874,8.1118,8.1668,8.1725,8.1244,7.3488,7.3488,7.3488,7.3488,7.3488,7.3488,7.3488,7.3421,7.2449,7.2196,7.2623,7.3475,7.4032,7.4482,7.56,7.6143,7.614,7.6901,7.7014,7.6804,7.8419,7.9071,7.8822,7.9533,7.9961,7.9922,7.9731,7.9852,8.0195,8.0559,8.0679,8.0584,8.0533,8.0508,8.0486,8.0032,7.978,7.978,7.8515,7.7925,7.8006,7.8341,7.8411,7.8125,7.8181,7.8381,7.8556,7.7751,7.7585,7.8147,7.7386,7.6987,7.7019,7.6701,7.6484,7.652,7.6484,7.6484,7.6492,7.6613,7.6713,7.6804,7.7024,7.7148,7.7212,7.5788,7.4903,7.4896,7.4836,7.4784,7.482,7.5469,7.5919,7.5956,7.6679,7.7267,7.7406,7.7686,7.7911,7.7913,7.8483,7.8849,7.8698,7.8956,7.9388,7.9685,8.0396,8.1124,8.1525,8.183,8.1509,8.0408,8.0655,8.1098,8.106,8.1424,8.1589,8.1661,8.1748,8.1791,8.1808,8.1772,8.1761,8.1804,8.1761,8.1774,8.175,8.187,8.2147,8.2319,8.2544,8.2831,8.3078,8.3092,8.2645,7.4503,7.4503,7.4503,7.4503,7.4515,7.4503,7.4503,7.4503,7.4515,7.4503,7.4564,7.4771,7.4972,7.5415,7.6179,7.6623,7.6748,7.6959,7.6939,7.6985,7.8928,7.9816,7.9813,8.0936,8.1467,8.143,8.0824,8.0581,8.057,8.0721,8.0704,8.0528,8.0407,8.034,8.0362,8.027,8.0209,8.0141,7.9058,7.8496,7.8533,7.9191,7.9545,7.9592,8.0019,8.0488,8.0749,8.0231,8.0091,8.0361,7.9836,7.9426,7.9245,7.9064,7.8883,7.8738,7.8702,7.8702,7.871,7.8874,7.8959,7.8925,7.9103,7.9158,7.8976,7.7176,7.5854,7.5838,7.5885,7.5823,7.599,7.6699,7.7332,7.7405,7.8418,7.9067,7.9389,7.945,7.9499,7.9592,7.9787,7.9923,7.9918,8.0077,8.0499,8.1122,8.204,8.2984,8.3565,8.3778,8.2957,8.1909,8.2039,8.2648,8.2677,8.3057,8.3438,8.3674,8.3664,8.3536,8.3599,8.3762,8.3817,8.3627,8.3736,8.3573,8.3765,8.3809,8.3743,8.3696,8.3713,8.3867,8.3787,8.4024,8.387,7.7548,7.7594,7.7447,7.7582,7.7481,7.7481,7.7447,7.7481,7.7548,7.7582,7.7273,7.5651,7.564,7.6886,7.7671,7.8293,7.8866,7.9806,7.9637,7.9037,8.0033,8.0127,7.945,7.9556,7.9579,7.974,8.0236,8.0466,8.0466,8.1088,8.1064,8.0313,8.0215,8.0215,8.0212,8.0204,8.0209,8.0209,8.0073,8.0006,8.0001,8.0207,8.0292,8.0303,7.9718,7.9815,8.0621,8.0626,8.1033,8.1814,8.192,8.1608,8.0938,8.0214,7.9499,7.8847,7.8774,7.8702,7.8747,7.8883,7.9053,7.8771,7.92,7.9319,7.9173,7.8979,7.8787,7.8742,7.8779,7.8544,7.8762,7.8883,7.896,7.9061,7.9288,7.9192,7.9419,7.9208,7.9442,8.009,8.0835,8.134,8.1815,8.2359,8.2903,8.294,8.3193,8.3556,8.3773,8.3819,8.3801,8.3311,8.3511,8.3584,8.3584,8.3529,8.3773,8.3683,8.361,8.3774,8.3865,8.381,8.3574,8.41,8.3764,8.3855,8.381,8.3656,8.3855,8.4101,8.4136,8.4043,8.3873,8.4328,8.4437,7.8022,7.8022,7.8022,7.8022,7.8022,7.8022,7.8022,7.8022,7.8022,7.8022,7.7936,7.7042,7.7048,7.7641,7.7994,7.83,7.854,7.8919,7.8896,7.8668,7.9925,8.0374,8.0098,8.0476,8.0683,8.0601,8.0432,8.0312,8.0355,8.064,8.0567,8.0225,8.0209,8.0209,8.0209,8.0209,8.0209,8.0209,8.0209,8.0209,8.0225,8.0236,8.0287,8.0253,8.0014,8.0258,8.1066,8.1278,8.1779,8.2668,8.2935,8.284,8.255,8.2179,8.1898,8.1572,8.1536,8.1536,8.1536,8.1607,8.1616,8.1536,8.1661,8.1714,8.1661,8.1714,8.1741,8.154,8.0137,7.926,7.9761,8.0131,8.0506,8.0978,8.145,8.1748,8.1854,8.1826,8.1982,8.2247,8.252,8.2739,8.3003,8.3284,8.3709,8.4071,8.4216,8.4325,8.476,8.4941,8.4904,8.4941,8.4986,8.4761,8.4463,8.4707,8.4832,8.4904,8.4904,8.4941,8.4868,8.4904,8.4922,8.4903,8.4813,8.4823,8.504,8.495,8.5016,8.4971,8.5008,8.5099,8.4989,8.5261,8.5261,7.8597,7.8597,7.8597,7.8597,7.8597,7.8597,7.8597,7.8597,7.8597,7.8597,7.8597,7.8597,7.8597,7.8563,7.8394,7.8394,7.8597,7.8597,7.8597,7.8739,7.9901,8.0431,8.0499,8.0933,8.1208,8.1099,8.0529,8.0187,8.0209,8.0209,8.0209,8.0209,8.0209,8.0209,8.0209,8.0209,8.0209,8.0209,8.0209,8.0209,8.0209,8.0209,8.0209,8.0209,8.0209,8.0517,8.1196,8.1563,8.2177,8.3083,8.3533,8.3775,8.3845,8.3818,8.3709,8.3537,8.3501,8.3501,8.3501,8.3501,8.3501,8.3501,8.3501,8.3501,8.3501,8.3501,8.3501,8.3293,8.1471,8.0606,8.1024,8.1499,8.2007,8.2595,8.3202,8.352,8.3565,8.3647,8.362,8.391,8.3847,8.4046,8.4135,8.4252,8.447,8.4895,8.504,8.5194,8.5728,8.5837,8.5837,8.5909,8.5873,8.5656,8.5194,8.5375,8.5873,8.5909,8.581,8.5774,8.5909,8.5873,8.5873,8.5465,8.5801,8.5837,8.561,8.5728,8.5846,8.5882,8.5892,8.5829,8.572,8.5882,8.5882,8.0107,8.0073,8.0073,8.0006,8.0073,8.004,8.004,7.9938,8.0018,8.004,8.0006,8.004,8.0073,7.9972,7.9317,7.9431,8.0018,7.9984,7.9972,7.9984,8.0174,8.0208,8.0217,8.025,8.0276,8.0389,8.0276,8.0209,8.0209,8.0209,8.0209,8.0209,8.0209,8.0209,8.0209,8.0209,8.0209,8.0209,8.0209,8.0209,8.0209,8.0209,8.0209,8.0209,8.0209,8.0225,8.0414,8.1137,8.2037,8.295,8.3793,8.437,8.4592,8.4632,8.4325,8.3673,8.3564,8.3564,8.36,8.3646,8.3646,8.3564,8.3718,8.3564,8.3745,8.3745,8.3718,8.3573,8.3411,8.3202,8.3275,8.322,8.3347,8.3492,8.3528,8.361,8.3619,8.3791,8.3909,8.4461,8.4688,8.4896,8.5593,8.5801,8.5665,8.5728,8.5801,8.5837,8.5837,8.5909,8.5909,8.5909,8.5909,8.5873,8.5837,8.5837,8.5873,8.5909,8.5909,8.5909,8.5909,8.5909,8.5909,8.5909,8.5909,8.5909,8.5909,8.5909,8.5919,8.5909,8.5909,8.5919,8.5909,8.5909,8.5909,8.0209,8.0209,8.0209,8.0209,8.0209,8.0209,8.0209,8.0209,8.0209,8.0209,8.0209,8.0209,8.0209,8.0209,7.9938,7.9938,8.0175,8.0209,8.0209,8.0209,8.0209,8.0209,8.0209,8.0209,8.0209,8.0209,8.0209,8.0209,8.0209,8.0209,8.0209,8.0209,8.0209,8.0209,8.0209,8.0209,8.0209,8.0209,8.0209,8.0209,8.0242,8.0209,8.0209,8.0209,8.0209,8.0209,8.0209,8.1099,8.1769,8.2095,8.3022,8.3797,8.4504,8.5127,8.5366,8.5076,8.504,8.5049,8.5049,8.5013,8.5049,8.504,8.5049,8.4968,8.5013,8.5049,8.5013,8.5004,8.5013,8.5049,8.4941,8.4578,8.447,8.4941,8.5049,8.4968,8.504,8.504,8.5149,8.5402,8.5438,8.5583,8.5764,8.5909,8.5909,8.5909,8.5909,8.5909,8.5909,8.5909,8.5909,8.5909,8.5909,8.5909,8.5909,8.5909,8.5909,8.5909,8.5909,8.5909,8.5909,8.5909,8.5909,8.5909,8.5909,8.5909,8.5909,8.5909,8.5909,8.5909,8.5909,8.5909,8.5909,8.5909,8.5909,8.0209,8.0209,8.0209,8.0209,8.0209,8.0209,8.0209,8.0209,8.0209,8.0209,8.0209,8.0209,8.0209,8.0209,8.0209,8.0209,8.0209,8.0209,8.0209,8.0209,8.0209,8.0209,8.0209,8.0209,8.0209,8.0209,8.0209,8.0209,8.0209,8.0209,8.0344,8.0547,8.0547,8.0682,8.0839,8.0906,8.0885,8.0919,8.0919,8.0906,8.0919,8.0919,8.0784,8.0581,8.056,8.0412,8.0221,8.0816,8.1507,8.1991,8.2405,8.3108,8.4303,8.5349,8.5909,8.5909,8.5873,8.5909,8.5909,8.5909,8.5873,8.5909,8.5909,8.5909,8.5909,8.5909,8.5909,8.5909,8.5909,8.5909,8.5801,8.5412,8.5339,8.5801,8.5909,8.5909,8.5909,8.5873,8.5873,8.5837,8.5837,8.5873,8.5909,8.5909,8.5909,8.5909,8.5909,8.5909,8.5909,8.5909,8.5909,8.5909,8.5909,8.5909,8.5909,8.5909,8.5909,8.5909,8.5909,8.5909,8.5909,8.5909,8.5909,8.5909,8.5909,8.5909,8.5909,8.5909,8.5909,8.5909,8.5909,8.5909,8.5909,8.5909,8.5909,8.0209,8.0209,8.0209,8.0209,8.0209,8.0209,8.0209,8.0209,8.0209,8.0209,8.0209,8.0209,8.0209,8.0209,8.0209,8.0209,8.0209,8.0209,8.0209,8.0209,8.0209,8.0209,8.0209,8.0209,8.0276,8.031,8.0242,8.0276,8.0412,8.0445,8.0716,8.1202,8.1304,8.1596,8.2327,8.2192,8.2259,8.2225,8.2158,8.2259,8.2395,8.2225,8.19,8.1372,8.1304,8.1021,8.0344,8.0306,8.1048,8.2416,8.1991,8.2472,8.4096,8.531,8.5909,8.5909,8.5909,8.5909,8.5909,8.5909,8.5909,8.5909,8.5909,8.5909,8.5909,8.5909,8.5909,8.5909,8.5909,8.5909,8.5909,8.5837,8.581,8.5909,8.5909,8.5909,8.5909,8.5909,8.5909,8.5909,8.5909,8.5909,8.5909,8.5909,8.5909,8.5909,8.5909,8.5909,8.5909,8.5909,8.5909,8.5909,8.5909,8.5909,8.5909,8.5909,8.5909,8.5909,8.5909,8.5909,8.5909,8.5909,8.5909,8.5909,8.5909,8.5909,8.5909,8.5909,8.5909,8.5909,8.5909,8.5945,8.5909,8.5909,8.5909,8.0209,8.0209,8.0209,8.0209,8.0209,8.0209,8.0209,8.0209,8.0209,8.0209,8.0209,8.0209,8.0209,8.0209,8.0209,8.0209,8.0209,8.0209,8.0209,8.0242,8.0209,8.0242,8.0242,8.0209,8.0445,8.0898,8.0966,8.1224,8.1583,8.1663,8.1853,8.2035,8.2069,8.2171,8.2428,8.2395,8.2395,8.2395,8.2395,8.2395,8.2395,8.2428,8.2293,8.2103,8.2035,8.1934,8.1684,8.075,8.0513,8.1158,8.0792,8.1473,8.3318,8.5008,8.5881,8.5909,8.5909,8.5909,8.5909,8.5909,8.5909,8.5909,8.5909,8.5909,8.5909,8.5909,8.5909,8.5909,8.5909,8.5909,8.5909,8.5909,8.5909,8.5909,8.5909,8.5909,8.5909,8.5909,8.5909,8.5909,8.5909,8.5909,8.5909,8.5909,8.5909,8.5909,8.5909,8.5909,8.5909,8.5909,8.5909,8.5909,8.5909,8.5909,8.5909,8.5909,8.5909,8.5909,8.5909,8.5909,8.5909,8.5909,8.5909,8.5945,8.5945,8.6018,8.5982,8.609,8.6199,8.609,8.6126,8.6054,8.5945,8.6054,8.6271,8.0615,8.0627,8.0919,8.1021,8.1021,8.1021,8.1021,8.1008,8.1021,8.1021,8.1021,8.1008,8.1021,8.1021,8.1021,8.1021,8.1021,8.1021,8.1008,8.0953,8.0682,8.075,8.0953,8.1008,8.1224,8.1596,8.1697,8.1934,8.2361,8.2395,8.2543,8.2746,8.2813,8.297,8.3172,8.3206,8.324,8.3206,8.324,8.3206,8.324,8.324,8.3105,8.2881,8.28,8.2665,8.2361,8.1494,8.1076,8.1136,8.1173,8.1862,8.302,8.4452,8.5502,8.5826,8.5909,8.5909,8.5909,8.5909,8.5909,8.5909,8.5909,8.5909,8.5909,8.5909,8.5909,8.5909,8.5909,8.5909,8.5909,8.5909,8.5909,8.5909,8.5909,8.5909,8.5909,8.5909,8.5909,8.5909,8.5909,8.5909,8.5909,8.5909,8.5909,8.5909,8.5909,8.5909,8.5909,8.5909,8.5909,8.5909,8.5909,8.5909,8.5909,8.5909,8.5909,8.5909,8.5909,8.5909,8.5909,8.5909,8.5909,8.609,8.6126,8.6452,8.6525,8.6877,8.7059,8.6778,8.6634,8.6877,8.7095,8.6986,8.7131,8.1372,8.1439,8.2103,8.2293,8.2293,8.2259,8.2225,8.2327,8.2293,8.2225,8.2293,8.2192,8.2259,8.2327,8.2158,8.2158,8.2361,8.2192,8.2259,8.2171,8.1832,8.1765,8.209,8.2124,8.2225,8.2428,8.2441,8.253,8.2767,8.2767,8.2881,8.3524,8.3592,8.3849,8.4255,8.4546,8.4411,8.4377,8.4458,8.4444,8.4444,8.4492,8.4221,8.3592,8.3524,8.3274,8.28,8.2475,8.2437,8.263,8.2697,8.2924,8.3208,8.3929,8.5018,8.5822,8.5887,8.5888,8.5907,8.5909,8.5909,8.5909,8.5909,8.5909,8.5909,8.5909,8.5909,8.5909,8.5982,8.6054,8.6054,8.6199,8.6199,8.609,8.6054,8.5945,8.5909,8.5909,8.5909,8.5909,8.5909,8.5909,8.5909,8.5909,8.5909,8.5909,8.5909,8.5909,8.5909,8.5909,8.5909,8.5909,8.5909,8.5909,8.5909,8.5909,8.5909,8.5991,8.6054,8.6163,8.609,8.609,8.638,8.6479,8.6634,8.6914,8.7167,8.7529,8.7737,8.7665,8.7773,8.8135,8.8063,8.7809,8.7773,8.209,8.2124,8.234,8.2395,8.2395,8.2395,8.2428,8.2428,8.2428,8.2496,8.2428,8.2395,8.2496,8.2428,8.2428,8.2395,8.2496,8.2462,8.2733,8.3152,8.3063,8.2644,8.2462,8.2428,8.2746,8.3152,8.3219,8.3477,8.3971,8.3917,8.4086,8.4289,8.4255,8.4343,8.458,8.458,8.458,8.458,8.458,8.458,8.458,8.458,8.4512,8.4356,8.4289,8.4187,8.3937,8.3477,8.2959,8.2573,8.3237,8.3572,8.3669,8.45,8.5259,8.5729,8.5789,8.5804,8.593,8.5982,8.5945,8.5909,8.6054,8.5909,8.5909,8.5919,8.5909,8.5982,8.6334,8.6733,8.6795,8.7203,8.7483,8.7447,8.666,8.6054,8.6018,8.5909,8.5909,8.5909,8.5982,8.6018,8.6054,8.6054,8.6054,8.6054,8.6054,8.6054,8.6199,8.6172,8.629,8.6027,8.5945,8.5909,8.5909,8.5909,8.5945,8.6064,8.6245,8.6597,8.6525,8.6479,8.7022,8.752,8.7638,8.7855,8.7891,8.8063,8.8208,8.857,8.8497,8.8606,8.8353,8.8135,8.8208,8.2847,8.2915,8.3172,8.3342,8.3308,8.3342,8.3308,8.3342,8.3342,8.3308,8.3342,8.3342,8.3342,8.3295,8.3342,8.3342,8.3342,8.3328,8.3578,8.3896,8.3964,8.3714,8.3409,8.3342,8.3545,8.3883,8.395,8.4174,8.4478,8.458,8.458,8.4593,8.458,8.458,8.458,8.458,8.458,8.458,8.458,8.458,8.458,8.458,8.458,8.458,8.458,8.458,8.4512,8.4187,8.3612,8.3113,8.3172,8.3561,8.4387,8.496,8.572,8.6506,8.6679,8.6797,8.6842,8.6877,8.6877,8.6877,8.6877,8.6877,8.6914,8.6887,8.6877,8.6986,8.7312,8.7483,8.7556,8.7954,8.8171,8.8027,8.7375,8.6877,8.6877,8.6914,8.6877,8.6877,8.6841,8.6841,8.6841,8.6841,8.6841,8.6914,8.7022,8.6986,8.6996,8.6834,8.6761,8.667,8.6687,8.6858,8.6904,8.6914,8.6959,8.6959,8.6996,8.7249,8.7348,8.7276,8.7585,8.8155,8.8471,8.8688,8.8724,8.8869,8.9376,8.9521,8.9231,8.9159,8.9087,8.8859,8.8896,8.3592,8.3693,8.4323,8.458,8.4512,8.458,8.4458,8.4546,8.4444,8.4444,8.4444,8.4546,8.4377,8.458,8.4309,8.4512,8.4512,8.4343,8.4444,8.4492,8.4492,8.4411,8.4343,8.4323,8.4377,8.4492,8.458,8.4546,8.458,8.458,8.458,8.458,8.458,8.458,8.458,8.458,8.458,8.458,8.458,8.458,8.458,8.458,8.458,8.458,8.458,8.458,8.458,8.4478,8.4255,8.3659,8.2983,8.3646,8.5006,8.5194,8.6053,8.731,8.7551,8.7713,8.8096,8.799,8.8099,8.799,8.8027,8.8198,8.8027,8.7954,8.7918,8.7918,8.8244,8.8389,8.857,8.857,8.8642,8.8715,8.8497,8.8461,8.8425,8.8316,8.8198,8.8198,8.8171,8.8162,8.8198,8.8198,8.8135,8.7556,8.7665,8.7628,8.7638,8.7621,8.7657,8.7747,8.7862,8.8014,8.8034,8.8027,8.8099,8.8145,8.8109,8.829,8.8507,8.8481,8.8437,8.8701,8.9251,8.9531,8.9541,8.9867,9.0265,9.0328,8.9966,9.0219,9.0436,9.0038,8.9929,8.4356,8.4377,8.4546,8.458,8.458,8.458,8.458,8.458,8.458,8.458,8.458,8.458,8.458,8.458,8.458,8.458,8.458,8.458,8.458,8.458,8.458,8.458,8.458,8.458,8.458,8.458,8.458,8.458,8.458,8.458,8.458,8.458,8.458,8.458,8.458,8.458,8.458,8.458,8.458,8.458,8.458,8.458,8.458,8.458,8.458,8.458,8.458,8.458,8.4512,8.4343,8.4193,8.425,8.4771,8.4869,8.5593,8.663,8.7026,8.7312,8.7981,8.8313,8.8244,8.8353,8.8425,8.8198,8.8198,8.8316,8.828,8.8316,8.8761,8.935,8.9785,9.0038,8.9929,8.9857,8.9893,8.9966,8.9857,8.8968,8.8425,8.8316,8.8316,8.8234,8.828,8.8389,8.8353,8.8244,8.828,8.8234,8.8326,8.8418,8.8553,8.8715,8.8705,8.8794,8.8804,8.8823,8.8978,8.905,8.9123,8.9159,8.9412,8.9485,8.9333,8.9623,9.0183,9.0265,9.0094,9.0239,9.0519,9.0591,9.0628,9.0628,9.0628,9.0628,9.0628,8.458,8.458,8.458,8.458,8.458,8.458,8.458,8.458,8.458,8.458,8.458,8.458,8.458,8.458,8.458,8.458,8.458,8.458,8.458,8.458,8.458,8.458,8.458,8.458,8.458,8.458,8.458,8.458,8.458,8.458,8.458,8.458,8.458,8.458,8.458,8.458,8.458,8.458,8.458,8.458,8.458,8.458,8.458,8.458,8.458,8.458,8.458,8.458,8.458,8.458,8.4593,8.4858,8.5256,8.5326,8.5843,8.6755,8.7492,8.7865,8.8516,8.9066,8.9376,8.9304,8.9304,8.934,8.934,8.934,8.934,8.9422,8.9748,9.0183,9.0555,9.0591,9.0628,9.0628,9.0628,9.0628,9.0473,8.9821,8.934,8.934,8.9412,8.9412,8.934,8.9123,8.9268,8.9449,8.9521,8.9485,8.9557,8.965,8.9567,8.964,8.9521,8.9485,8.9485,8.9603,8.9748,8.9857,8.9966,9.0002,9.0147,9.0147,9.0074,9.0364,9.0545,9.0545,9.0446,9.0591,9.0628,9.0628,9.0628,9.0628,9.0628,9.0628,9.0628,8.458,8.458,8.458,8.458,8.458,8.458,8.458,8.458,8.458,8.458,8.458,8.458,8.458,8.458,8.458,8.458,8.458,8.458,8.458,8.458,8.458,8.458,8.458,8.458,8.458,8.458,8.458,8.458,8.458,8.458,8.458,8.458,8.458,8.458,8.458,8.458,8.458,8.458,8.458,8.458,8.458,8.458,8.458,8.458,8.458,8.458,8.458,8.458,8.458,8.458,8.458,8.5074,8.56,8.5934,8.6311,8.7222,8.7804,8.8355,8.8932,8.9687,9.0169,9.0511,9.0318,9.0288,9.0175,9.0016,8.996,9.019,9.0302,9.0509,9.0628,9.0628,9.0628,9.0628,9.0628,9.0628,9.0628,9.0628,9.0436,9.0436,9.0219,9.011,9.0219,9.0183,9.0436,9.0618,9.0618,9.0628,9.0628,9.0555,9.0328,9.0219,9.0074,9.0002,9.0002,9.0002,9.0219,9.0292,9.0473,9.0509,9.0581,9.0473,9.0364,9.0473,9.0591,9.0628,9.0628,9.0628,9.0628,9.0628,9.0628,9.0628,9.0628,9.0628,9.0628,8.458,8.458,8.458,8.458,8.458,8.458,8.458,8.458,8.458,8.458,8.458,8.458,8.458,8.458,8.458,8.458,8.458,8.458,8.458,8.458,8.458,8.458,8.458,8.458,8.458,8.458,8.458,8.458,8.458,8.458,8.458,8.458,8.458,8.458,8.458,8.458,8.458,8.458,8.458,8.458,8.458,8.458,8.458,8.458,8.458,8.458,8.458,8.458,8.458,8.458,8.458,8.4713,8.4904,8.4956,8.5434,8.615,8.6715,8.7492,8.8757,8.9225,8.9836,9.0161,8.9909,8.9421,8.9343,8.9378,8.9421,8.9654,9.012,9.0541,9.0618,9.0491,9.0561,9.0571,9.0431,9.0491,9.0541,9.0421,9.0411,9.038,9.0451,9.0501,9.039,9.038,9.0441,9.0451,9.0491,9.0541,9.0628,9.0628,9.0555,9.0519,9.0519,9.0509,9.0509,9.0436,9.0519,9.0483,9.0545,9.0545,9.0581,9.0628,9.0628,9.0628,9.0628,9.0628,9.0628,9.0628,9.0628,9.0628,9.0628,9.0628,9.0628,9.0628,9.0628,8.458,8.458,8.458,8.458,8.458,8.458,8.458,8.458,8.458,8.458,8.458,8.458,8.458,8.458,8.458,8.458,8.458,8.458,8.458,8.458,8.458,8.458,8.458,8.458,8.458,8.458,8.458,8.458,8.458,8.458,8.458,8.458,8.458,8.458,8.458,8.458,8.458,8.458,8.458,8.458,8.458,8.458,8.458,8.458,8.458,8.458,8.458,8.458,8.458,8.458,8.458,8.458,8.458,8.4646,8.4819,8.5339,8.5795,8.6691,8.8173,8.871,8.9378,8.9643,8.9303,8.882,8.8488,8.8341,8.8533,8.9074,8.9389,9.0043,9.0511,9.0141,9.012,9.0283,8.9815,8.9675,9.0058,8.9591,8.9569,8.979,9.0182,9.0161,8.9857,8.993,9.0161,9.0273,9.0324,9.0461,9.0551,9.0461,9.0411,9.0471,9.0481,9.0628,9.0628,9.0628,9.0628,9.0628,9.0551,9.0551,9.0471,9.0411,9.0501,9.0628,9.0628,9.0431,9.0628,9.0628,9.0628,9.0628,9.0628,9.0628,9.0628,9.0628,9.0461,8.458,8.458,8.458,8.458,8.458,8.458,8.458,8.458,8.458,8.458,8.458,8.458,8.458,8.458,8.458,8.458,8.458,8.458,8.458,8.458,8.458,8.458,8.458,8.458,8.458,8.458,8.458,8.458,8.458,8.458,8.458,8.458,8.458,8.458,8.458,8.458,8.458,8.458,8.458,8.458,8.458,8.458,8.458,8.458,8.458,8.458,8.458,8.458,8.458,8.458,8.458,8.458,8.458,8.458,8.458,8.4739,8.5369,8.6249,8.7173,8.7852,8.8342,8.8721,8.8566,8.8012,8.7597,8.7386,8.7667,8.8544,8.8834,8.9214,8.9836,8.9378,8.941,8.9633,8.8853,8.8058,8.8864,8.8897,8.8419,8.8853,8.9622,8.9538,8.8965,8.9041,8.9171,8.9664,8.9784,9.0283,9.037,9.0089,9.0048,9.0202,9.035,9.0531,9.0628,9.0628,9.0628,9.0628,9.0521,9.0471,9.0283,9.013,9.0196,9.0129,9.012,8.9981,9.0283,9.0561,9.0628,9.0628,9.0628,9.0431,9.013,8.9919,8.9805,8.458,8.458,8.458,8.458,8.458,8.458,8.458,8.458,8.458,8.458,8.458,8.458,8.458,8.458,8.458,8.458,8.458,8.458,8.458,8.458,8.458,8.458,8.458,8.458,8.458,8.458,8.458,8.458,8.458,8.458,8.458,8.458,8.458,8.458,8.458,8.458,8.458,8.458,8.458,8.458,8.458,8.458,8.458,8.458,8.458,8.458,8.458,8.458,8.458,8.458,8.458,8.458,8.458,8.458,8.458,8.4606,8.4798,8.5222,8.6187,8.6703,8.7078,8.748,8.715,8.6545,8.6345,8.6323,8.6703,8.7655,8.7771,8.8252,8.8888,8.8354,8.8466,8.8443,8.8058,8.7609,8.7944,8.762,8.7221,8.7422,8.8012,8.7967,8.762,8.7875,8.8149,8.8721,8.9293,8.9753,8.993,8.9517,8.9303,8.9378,8.9506,8.9706,8.9717,8.9867,9.0161,9.0273,9.011,9.0022,8.993,8.9649,8.9347,8.9311,8.9369,8.9517,8.9706,9.0012,9.0421,9.0263,8.9846,8.9569,8.9332,8.9192,8.9041,8.458,8.458,8.458,8.458,8.458,8.458,8.458,8.458,8.458,8.458,8.458,8.458,8.458,8.458,8.458,8.458,8.458,8.458,8.458,8.458,8.458,8.458,8.458,8.458,8.458,8.458,8.458,8.458,8.458,8.458,8.458,8.458,8.458,8.458,8.458,8.458,8.458,8.458,8.458,8.458,8.458,8.458,8.458,8.458,8.458,8.458,8.458,8.458,8.458,8.458,8.458,8.458,8.458,8.458,8.458,8.4593,8.4593,8.5092,8.5946,8.6047,8.6323,8.6532,8.6274,8.5946,8.5459,8.5352,8.5728,8.6667,8.6764,8.7233,8.7817,8.7292,8.7527,8.7515,8.7006,8.715,8.6874,8.6122,8.5833,8.6134,8.636,8.6373,8.6557,8.7042,8.7233,8.7433,8.7944,8.8432,8.8588,8.841,8.8286,8.8286,8.8443,8.8633,8.8577,8.8599,8.9095,8.9192,8.8787,8.8842,8.9271,8.9128,8.8681,8.866,8.8833,8.8973,8.9106,8.9278,8.9517,8.9236,8.8875,8.8633,8.8398,8.8194,8.8047,8.458,8.458,8.458,8.458,8.458,8.458,8.458,8.458,8.458,8.458,8.458,8.458,8.458,8.458,8.458,8.458,8.458,8.458,8.458,8.458,8.458,8.458,8.458,8.458,8.458,8.458,8.458,8.458,8.458,8.458,8.458,8.458,8.458,8.458,8.458,8.458,8.458,8.458,8.458,8.458,8.458,8.458,8.458,8.458,8.458,8.458,8.458,8.458,8.458,8.458,8.458,8.458,8.458,8.458,8.458,8.458,8.458,8.4838,8.5404,8.56,8.5706,8.5719,8.5715,8.5339,8.4838,8.462,8.4806,8.5715,8.5728,8.6249,8.6752,8.6311,8.641,8.6261,8.5845,8.615,8.6286,8.5588,8.5152,8.5326,8.5408,8.5105,8.5434,8.6196,8.641,8.6298,8.6642,8.7126,8.728,8.7316,8.7339,8.7375,8.7725,8.7909,8.7886,8.7875,8.8194,8.8149,8.7771,8.7609,8.799,8.8034,8.7686,8.7825,8.8067,8.789,8.764,8.8098,8.8555,8.8363,8.8149,8.769,8.7386,8.7197,8.6898,8.458,8.458,8.458,8.458,8.458,8.458,8.458,8.458,8.458,8.458,8.458,8.458,8.458,8.458,8.458,8.458,8.458,8.458,8.458,8.458,8.458,8.458,8.458,8.458,8.458,8.458,8.458,8.458,8.458,8.458,8.458,8.458,8.458,8.458,8.458,8.458,8.458,8.458,8.458,8.458,8.458,8.458,8.458,8.458,8.458,8.458,8.458,8.458,8.458,8.458,8.458,8.458,8.458,8.458,8.458,8.458,8.458,8.4753,8.4904,8.4943,8.4792,8.4739,8.4792,8.4872,8.462,8.458,8.4713,8.4858,8.4995,8.5313,8.5613,8.5524,8.5511,8.5511,8.53,8.5209,8.5365,8.5157,8.4766,8.47,8.4646,8.4606,8.4593,8.5382,8.5719,8.5677,8.574,8.6199,8.641,8.6471,8.652,8.662,8.709,8.7327,8.7445,8.7445,8.7209,8.7197,8.703,8.6717,8.6655,8.6599,8.6844,8.6584,8.6677,8.6454,8.6311,8.6783,8.7197,8.7527,8.7386,8.6705,8.6212,8.5946,8.5575,8.458,8.458,8.458,8.458,8.458,8.458,8.458,8.458,8.458,8.458,8.458,8.458,8.458,8.458,8.458,8.458,8.458,8.458,8.458,8.458,8.458,8.458,8.458,8.458,8.458,8.458,8.458,8.458,8.458,8.458,8.458,8.458,8.458,8.458,8.458,8.458,8.458,8.458,8.458,8.458,8.458,8.458,8.458,8.458,8.458,8.458,8.458,8.458,8.458,8.458,8.458,8.458,8.458,8.458,8.458,8.458,8.458,8.458,8.458,8.458,8.458,8.458,8.4606,8.458,8.458,8.458,8.458,8.4606,8.458,8.4917,8.4917,8.4898,8.4845,8.4969,8.4917,8.4686,8.458,8.458,8.4593,8.4633,8.462,8.4593,8.458,8.4686,8.4904,8.5061,8.5118,8.5248,8.5511,8.5677,8.5681,8.5693,8.6075,8.6087,8.6162,8.61,8.6072,8.6162,8.6274,8.6059,8.5833,8.615,8.6269,8.5858,8.5564,8.5678,8.5703,8.5643,8.5826,8.6159,8.5996,8.5511,8.5079,8.4851,8.4753,8.458,8.458,8.458,8.458,8.458,8.458,8.458,8.458,8.458,8.458,8.458,8.458,8.458,8.458,8.458,8.458,8.458,8.458,8.458,8.458,8.458,8.458,8.458,8.458,8.458,8.458,8.458,8.458,8.458,8.458,8.458,8.458,8.458,8.458,8.458,8.458,8.458,8.458,8.458,8.458,8.458,8.458,8.458,8.458,8.458,8.458,8.458,8.458,8.458,8.458,8.458,8.458,8.458,8.458,8.458,8.458,8.458,8.458,8.458,8.458,8.458,8.458,8.458,8.458,8.458,8.458,8.458,8.458,8.458,8.458,8.458,8.4593,8.4593,8.4806,8.4792,8.458,8.458,8.458,8.458,8.4593,8.458,8.458,8.458,8.458,8.4673,8.4785,8.4824,8.4877,8.493,8.5009,8.493,8.4917,8.4982,8.4851,8.47,8.5087,8.5382,8.5378,8.5421,8.5344,8.5339,8.5604,8.563,8.5262,8.5094,8.5183,8.5178,8.5113,8.4937,8.4779,8.4766,8.489,8.4811,8.4713,8.4686,8.458,8.458,8.458,8.458,8.458,8.458,8.458,8.458,8.458,8.458,8.458,8.458,8.458,8.458,8.458,8.458,8.458,8.458,8.458,8.458,8.458,8.458,8.458,8.458,8.458,8.458,8.458,8.458,8.458,8.458,8.458,8.458,8.458,8.458,8.458,8.458,8.458,8.458,8.458,8.458,8.458,8.458,8.458,8.458,8.458,8.458,8.458,8.458,8.458,8.458,8.458,8.458,8.458,8.458,8.458,8.458,8.458,8.458,8.458,8.458,8.458,8.458,8.458,8.458,8.458,8.458,8.458,8.458,8.458,8.458,8.458,8.458,8.458,8.458,8.458,8.458,8.458,8.458,8.458,8.458,8.458,8.458,8.458,8.458,8.458,8.462,8.4606,8.458,8.458,8.458,8.458,8.458,8.458,8.458,8.458,8.458,8.4726,8.466,8.4726,8.4798,8.4811,8.4969,8.4864,8.464,8.47,8.4864,8.4792,8.4633,8.458,8.458,8.458,8.466,8.4593,8.458,8.458,8.458,8.458,8.458,8.458,8.458,8.458,8.458,8.458,8.458,8.458,8.458,8.458,8.458,8.458,8.458,8.458,8.458,8.458,8.458,8.458,8.458,8.458,8.458,8.458,8.458,8.458,8.458,8.458,8.458,8.458,8.458,8.458,8.458,8.458,8.458,8.458,8.458,8.458,8.458,8.458,8.458,8.458,8.458,8.458,8.458,8.458,8.458,8.458,8.458,8.458,8.458,8.458,8.458,8.458,8.458,8.458,8.458,8.458,8.458,8.458,8.458,8.458,8.458,8.458,8.458,8.458,8.458,8.458,8.458,8.458,8.458,8.458,8.458,8.458,8.458,8.458,8.458,8.458,8.458,8.458,8.458,8.458,8.458,8.458,8.458,8.458,8.458,8.458,8.458,8.458,8.458,8.458,8.458,8.458,8.458,8.458,8.458,8.462,8.462,8.466,8.462,8.458,8.4593,8.4593,8.4593,8.458,8.458,8.458,8.458,8.458,8.458,8.458,8.458,8.458,8.458,8.458,8.458,8.458,8.458,8.458,8.458,8.458,8.458,8.458,8.458,8.458,8.458,8.458,8.458,8.458,8.458,8.458,8.458,8.458,8.458,8.458,8.458,8.458,8.458,8.458,8.458,8.458,8.458,8.458,8.458,8.458,8.458,8.458,8.458,8.458,8.458,8.458,8.458,8.458,8.458,8.458,8.458,8.458,8.458,8.458,8.458,8.458,8.458,8.458,8.458,8.458,8.458,8.458,8.458,8.458,8.458,8.458,8.458,8.458,8.458,8.458,8.458,8.458,8.458,8.458,8.458,8.458,8.458,8.458,8.458,8.458,8.458,8.458,8.458,8.458,8.458,8.458,8.458,8.458,8.458,8.458,8.458,8.458,8.458,8.458,8.458,8.458,8.458,8.458,8.458,8.458,8.458,8.458,8.458,8.458,8.458,8.458,8.458,8.458,8.458,8.458,8.458,8.458,8.458,8.458,8.458,8.458,8.458,8.458,8.458,8.458,8.458,8.458,8.458,8.458,8.458,8.458,8.458,8.458,8.458,8.458,8.458,8.458,8.458,8.458,8.458,8.458,8.458,8.458,8.458,8.458,8.458,8.458,8.458,8.458,8.458,8.458,8.458,8.458,8.458,8.458,8.458,8.458,8.458,8.458,8.458,8.458,8.458,8.458,8.458,8.458,8.458,8.458,8.458,8.458,8.458,8.458,8.458,8.458,8.458,8.458,8.458,8.458,8.458,8.458,8.458,8.458,8.458,8.458,8.458,8.458,8.458,8.458,8.458,8.458,8.458,8.458,8.458,8.458,8.458,8.458,8.458,8.458,8.458,8.458,8.458,8.458,8.458,8.458,8.458,8.458,8.458,8.458,8.458,8.458,8.458,8.458,8.458,8.458,8.458,8.458,8.458,8.458,8.458,8.458,8.458,8.458,8.458,8.458,8.458,8.458,8.458,8.458,8.458,8.458,8.458,8.458,8.458,8.458,8.458,8.458,8.458,8.458,8.458,8.458,8.458,8.458,8.458,8.458,8.458,8.458,8.458,8.458,8.458,8.458,8.458,8.458,8.458,8.458,8.458,8.458,8.458,8.458,8.458,8.458,8.458,8.458,8.458,8.458,8.458,8.458,8.458,8.458,8.458,8.458,8.458,8.458,8.458,8.458,8.458,8.458,8.458,8.458,8.458,8.458,8.458,8.458,8.458,8.458,8.458,8.458,8.458,8.458,8.458,8.458,8.458,8.458,8.458,8.458,8.458,8.458,8.458,8.458,8.458,8.458,8.458,8.458,8.458,8.458,8.458,8.458,8.458,8.458,8.458,8.458,8.458,8.458,8.458,8.458,8.458,8.458,8.458,8.458,8.458,8.458,8.458,8.458,8.458,8.458,8.458,8.458,8.458,8.458,8.458,8.458,8.458,8.458,8.458,8.458,8.458,8.458,8.458,8.458,8.458,8.458,8.458,8.458,8.458,8.458,8.458,8.458,8.458,8.458,8.458,8.458,8.458,8.458,8.458,8.458,8.458,8.458,8.458,8.458,8.458,8.458,8.458,8.458,8.458,8.458,8.458,8.458,8.458,8.458,8.458,8.458,8.458,8.458,8.458,8.458,8.458,8.458,8.458,8.458,8.458,8.458,8.458,8.458,8.458,8.458,8.458,8.458,8.458,8.458,8.458,8.458,8.458,8.458,8.458,8.458,8.458,8.458,8.458,8.458,8.458,8.458,8.458,8.458,8.458,8.458,8.458,8.458,8.458,8.458,8.458,8.458,8.458,8.458,8.458,8.458,8.458,8.458,8.458,8.458,8.458,8.458,8.458,8.458,8.458,8.458,8.458,8.458,8.458,8.458,8.458,8.458,8.458,8.458,8.458,8.458,8.458,8.458,8.458,8.458,8.458,8.458,8.458,8.458,8.458,8.458,8.458,8.458,8.458,8.458,8.458,8.458,8.458,8.458,8.458,8.458,8.458,8.458,8.458,8.458,8.458,8.458,8.458,8.458,8.458,8.458,8.458,8.458,8.458,8.458,8.458,8.458,8.458,8.458,8.458,8.458,8.458,8.458,8.458,8.458,8.458,8.458,8.458,8.458,8.458,8.458,8.458,8.458,8.458,8.458,8.458,8.458,8.458,8.458,8.458,8.458,8.458,8.458,8.458,8.458,8.458,8.458,8.458,8.458,8.458,8.458,8.458,8.458,8.458,8.458,8.458,8.458,8.458,8.458,8.458,8.458,8.458,8.458,8.458,8.458,8.458,8.458,8.458,8.458,8.458,8.458,8.458,8.458,8.458,8.458,8.458,8.458,8.458,8.458,8.458,8.458,8.458,8.458,8.458,8.458,8.458,8.458,8.458,8.458,8.458,8.458,8.458,8.458,8.458,8.458,8.458,8.458,8.458,8.458,8.458,8.458,8.458,8.458,8.458,8.458,8.458,8.458,8.458,8.458,8.458,8.458,8.458,8.458,8.458,8.458,8.458,8.458,8.458,8.458,8.458,8.458,8.458,8.458,8.458,8.458,8.458,8.458,8.458,8.458,8.458,8.458,8.458,8.458,8.458,8.458,8.458,8.458,8.458,8.458,8.458,8.458,8.458,8.458,8.458,8.458,8.458,8.458,8.458,8.458,8.458,8.458,8.458,8.458,8.458,8.458,8.458,8.458,8.458,8.458,8.458,8.458,8.458,8.458,8.458,8.458,8.458,8.458,8.458,8.458,8.458,8.458,8.458,8.458,8.458,8.458,8.458,8.458,8.458,8.458,8.458,8.458,8.458,8.458,8.458,8.458,8.458,8.458,8.458,8.458,8.458,8.458,8.458,8.458,8.458,8.458,8.458,8.458,8.458,8.458,8.458,8.458,8.458,8.458,8.458,8.458,8.458,8.458,8.458,8.458,8.458,8.458,8.458,8.458,8.458,8.458,8.458,8.458,8.458,8.458,8.458,8.458,8.458,8.458,8.458,8.458,8.458,8.458,8.458,8.458,8.458,8.458,8.458,8.458,8.458,8.458,8.458,8.458,8.458,8.458,8.458,8.458,8.458,8.458,8.458,8.458,8.458,8.458,8.458,8.458,8.458,8.458,8.458,8.458,8.458,8.458,8.458,8.458,8.458,8.458,8.458,8.458,8.458,8.458,8.458,8.458,8.458,8.458,8.458,8.458,8.458,8.458,8.458,8.458,8.458,8.458,8.458,8.458,8.458,8.458,8.458,8.458,8.458,8.458,8.458,8.458,8.458,8.458,8.458,8.458,8.458,8.458,8.458,8.458,8.458,8.458,8.458,8.458,8.458,8.458,8.458,8.458,8.458,8.458,8.458,8.458,8.458,8.458,8.458,8.458,8.458,8.458,8.458,8.458,8.458,8.458,8.458,8.458,8.458,8.458,8.458,8.458,8.458,8.458,8.458,8.458,8.458,8.458,8.458,8.458,8.458,8.458,8.458,8.458,8.458,8.458,8.458,8.458,8.458,8.458,8.458,8.458,8.458,8.458,8.458,8.458,8.458,8.458,8.458,8.458,8.458,8.458,8.458,8.458,8.458,8.458,8.458,8.458,8.458,8.458,8.458,8.458,8.458,8.458,8.458,8.458,8.458,8.458,8.458,8.458,8.458,8.458,8.458,8.458,8.458,8.458,8.458,8.458,8.458,8.458,8.458,8.458,8.458,8.458,8.458,8.458,8.458,8.458,8.458,8.458,8.458,8.458,8.458,8.458,8.458,8.458,8.458,8.458,8.458,8.458,8.458,8.458,8.458,8.458,8.458,8.458,8.458,8.458,8.458,8.458,8.458,8.458,8.458,8.458,8.458,8.458,8.458,8.458,8.458,8.458,8.458,8.458,8.458,8.458,8.458,8.458,8.458,8.458,8.458,8.458,8.458,8.458,8.458,8.458,8.458,8.458,8.458,8.458,8.458,8.458,8.458,8.458,8.458,8.458,8.458,8.458,8.458,8.458,8.458,8.458,8.458,8.458,8.458,8.458,8.458,8.458,8.458,8.458,8.458,8.458,8.458,8.458,8.458,8.458,8.458,8.458,8.458,8.458,8.458,8.458,8.458,8.458,8.458,8.458,8.458,8.458,8.458,8.458,8.458,8.458,8.458,8.458,8.458,8.458,8.458,8.458,8.458,8.458,8.458,8.458,8.458,8.458,8.458,8.458,8.458,8.458,8.458,8.458,8.458,8.458,8.458,8.458,8.458,8.458,8.458,8.458,8.458,8.458,8.458,8.458,8.458,8.458,8.458,8.458,8.458,8.458,8.458,8.458,8.458,8.458,8.458,8.458,8.458,8.458,8.458,8.458,8.458,8.458,8.458,8.458,8.458,8.458,8.458,8.458,8.458,8.458,8.458,8.458,8.458,8.458,8.458,8.458,8.458,8.458,8.458,8.458,8.458,8.458,8.458,8.458,8.458,8.458,8.458,8.458,8.458,8.458,8.458,8.458,8.458,8.458,8.458,8.458,8.458,8.458,8.458,8.458,8.458,8.458,8.458,8.458,8.458,8.458,8.458,8.458,8.458,8.458,8.458,8.458,8.458,8.458,8.458,8.458,8.458,8.458,8.458,8.458,8.458,8.458,8.458,8.458,8.458,8.458,8.458,8.458,8.458,8.458,8.458,8.458]},{"header":{"parameterUnit":"m.s-1","parameterCategory":1,"la1":31.0,"la2":29.5877,"lo1":-88.7671,"lo2":-86.6584,"dy":0.0162,"dx":0.0185,"nx":115,"ny":88,"refTime":"2023-03-16T06:00:00:Z","depth":0,"parameterNumber":3,"parameterNumberName":"V-component_of_WINDS"},"data":[0.0,0.0,0.0,0.0,0.0,0.0,0.0,0.0,0.0,0.0,0.0,0.0,0.0,0.0,0.0,0.0,0.0,0.0,0.0,0.0,0.0,0.0,0.0,0.0,0.0,0.0,0.0,0.0,0.0,0.0,0.0,0.0,0.0,0.0,0.0,0.0,0.0,0.0,0.0,0.0,0.0,0.0,0.0,0.0,0.0,0.0,0.0,0.0,0.0,0.0,0.0,0.0,0.0,0.0,0.0,0.0,0.0,0.0,0.0,0.0,0.0,0.0,0.0,0.0,0.0,0.0,0.0,0.0,0.0,0.0,0.0,0.0,0.0,0.0,0.0,0.0,0.0,0.0,0.0,0.0,0.0,0.0,0.0,0.0,0.0,0.0,0.0,0.0,0.0,0.0,0.0,0.0,0.0,0.0,0.0,0.0,0.0,0.0,0.0,0.0,0.0,0.0,0.0,0.0,0.0,0.0,0.0,0.0,0.0,0.0,0.0,0.0,0.0,0.0,0.0,0.0,0.0,0.0,0.0,0.0,0.0,0.0,0.0,0.0,0.0,0.0,0.0,0.0,0.0,0.0,0.0,0.0,0.0,0.0,0.0,0.0,0.0,0.0,0.0,0.0,0.0,0.0,0.0,0.0,0.0,0.0,0.0,0.0,0.0,0.0,0.0,0.0,0.0,0.0,0.0,0.0,0.0,0.0,0.0,0.0,0.0,0.0,0.0,0.0,0.0,0.0,0.0,0.0,0.0,0.0,0.0,0.0,0.0,0.0,0.0,0.0,0.0,0.0,0.0,0.0,0.0,0.0,0.0,0.0,0.0,0.0,0.0,0.0,0.0,0.0,0.0,0.0,0.0,0.0,0.0,0.0,0.0,0.0,0.0,0.0,0.0,0.0,0.0,0.0,0.0,0.0,0.0,0.0,0.0,0.0,0.0,0.0,0.0,0.0,0.0,0.0,0.0,0.0,0.0,0.0,0.0,0.0,0.0,0.0,0.0,0.0,0.0,0.0,0.0,0.0,0.0,0.0,0.0,0.0,0.0,0.0,0.0,0.0,0.0,0.0,0.0,0.0,0.0,0.0,0.0,0.0,0.0,0.0,0.0,0.0,0.0,0.0,0.0,0.0,0.0,0.0,0.0,0.0,0.0,0.0,0.0,0.0,0.0,0.0,0.0,0.0,0.0,0.0,0.0,0.0,0.0,0.0,0.0,0.0,0.0,0.0,0.0,0.0,0.0,0.0,0.0,0.0,0.0,0.0,0.0,0.0,0.0,0.0,0.0,0.0,0.0,0.0,0.0,0.0,0.0,0.0,0.0,0.0,0.0,0.0,0.0,0.0,0.0,0.0,0.0,0.0,0.0,0.0,0.0,0.0,0.0,0.0,0.0,0.0,0.0,0.0,0.0,0.0,0.0,0.0,0.0,0.0,0.0,0.0,0.0,0.0,0.0,0.0,0.0,0.0,0.0,0.0,0.0,0.0,0.0,0.0,0.0,0.0,0.0,0.0,0.0,0.0,0.0,0.0,0.0,0.0,0.0,0.0,0.0,0.0,0.0,0.0,0.0,0.0,0.0,0.0,0.0,0.0,0.0,0.0,0.0,0.0,0.0,0.0,0.0,0.0,0.0,0.0,0.0,0.0,0.0,0.0,0.0,0.0,0.0,0.0,0.0,0.0,0.0,0.0,0.0,0.0,0.0,0.0,0.0,0.0,0.0,0.0,0.0,0.0,0.0,0.0,0.0,0.0,0.0,0.0,0.0,0.0,0.0,0.0,0.0,0.0,0.0,0.0,0.0,0.0,0.0,0.0,0.0,0.0,0.0,0.0,0.0,0.0,0.0,0.0,0.0,0.0,0.0,0.0,0.0,0.0,0.0,0.0,0.0,0.0,0.0,0.0,0.0,0.0,0.0,0.0,0.0,0.0,0.0,0.0,0.0,0.0,0.0,0.0,0.0,0.0,0.0,0.0,0.0,0.0,0.0,0.0,0.0,0.0,0.0,0.0,0.0,0.0,0.0,0.0,0.0,0.0,0.0,0.0,0.0,0.0,0.0,0.0,0.0,0.0,0.0,0.0,0.0,0.0,0.0,0.0,0.0,0.0,0.0,0.0,0.0,0.0,0.0,0.0,0.0,0.0,0.0,0.0,0.0,0.0,0.0,0.0,0.0,0.0,0.0,0.0,0.0,0.0,0.0,0.0,0.0,0.0,0.0,0.0,0.0,0.0,0.0,0.0,0.0,0.0,0.0,0.0,0.0,0.0,0.0,0.0,0.0,0.0,0.0,0.0,0.0,0.0,0.0,0.0,0.0,0.0,0.0,0.0,0.0,0.0,0.0,0.0,0.0,0.0,0.0,0.0,0.0,0.0,0.0,0.0,0.0,0.0,0.0,0.0,0.0,0.0,0.0,0.0,0.0,0.0,0.0,0.0,0.0,0.0,0.0,0.0,0.0,0.0,0.0,0.0,0.0,0.0,0.0,0.0,0.0,0.0,0.0,0.0,0.0,0.0,0.0,0.0,0.0,0.0,0.0,0.0,0.0,0.0,0.0,0.0,0.0,0.0,0.0,0.0,0.0,0.0,0.0,0.0,0.0,0.0,0.0,0.0,0.0,0.0,0.0,0.0,0.0,0.0,0.0,0.0,0.0,0.0,0.0,0.0,0.0,0.0,0.0,0.0,0.0,0.0,0.0,0.0,0.0,0.0,0.0,0.0,0.0,0.0,0.0,0.0,0.0,0.0,0.0,0.0,0.0,0.0,0.0,0.0,0.0,0.0,0.0,0.0,0.0,0.0,0.0,0.0,0.0,0.0,0.0,0.0,0.0,0.0,0.0,0.0,0.0,0.0,0.0,0.0,0.0,0.0,0.0,0.0,0.0,0.0,0.0,0.0,0.0,0.0,0.0,0.0,0.0,0.0,0.0,0.0,0.0,0.0,0.0,0.0,0.0,0.0,0.0,0.0,0.0,0.0,0.0,0.0,0.0,0.0,0.0,0.0,0.0,0.0,0.0,0.0,0.0,0.0,0.0,0.0,0.0,0.0,0.0,0.0,0.0,0.0,0.0,0.0,0.0,0.0,0.0,0.0,0.0,0.0,0.0,0.0,0.0,0.0,0.0,0.0,0.0,0.0,0.0,0.0,0.0,0.0,0.0,0.0,0.0,0.0,0.0,0.0,0.0,0.0,0.0,0.0,0.0,0.0,0.0,0.0,0.0,0.0,0.0,0.0,0.0,0.0,0.0,0.0,0.0,0.0,0.0,0.0,0.0,0.0,0.0,0.0,0.0,0.0,0.0,0.0,0.0,0.0,0.0,0.0,0.0,0.0,0.0,0.0,0.0,0.0,0.0,0.0,0.0,0.0,0.0,0.0,0.0,0.0,0.0,0.0,0.0,0.0,0.0,0.0,0.0,0.0,0.0,0.0,0.0,0.0,0.0,0.0,0.0,0.0,0.0,0.0,0.0,0.0,0.0,0.0,0.0,0.0,0.0,0.0,0.0,0.0,0.0,0.0,0.0,0.0,0.0,0.0,0.0,0.0,0.0,0.0,0.0,0.0,0.0,0.0,0.0,0.0,0.0,0.0,0.0,0.0,0.0,0.0,0.0,0.0,0.0,0.0,0.0,0.0,0.0,0.0,0.0,0.0,0.0,0.0,0.0,0.0,0.0,0.0,0.0,0.0,0.0,0.0,0.0,0.0,0.0,0.0,0.0,0.0,0.0,0.0,0.0,0.0,0.0,0.0,0.0,0.0,0.0,0.0,0.0,0.0,0.0,0.0,0.0,0.0,0.0,0.0,0.0,0.0,0.0,0.0,0.0,0.0,0.0,0.0,0.0,0.0,0.0,0.0,0.0,0.0,0.0,0.0,0.0,0.0,0.0,0.0,0.0,0.0,0.0,0.0,0.0,0.0,0.0,0.0,0.0,0.0,0.0,0.0,0.0,0.0,0.0,0.0,0.0,0.0,0.0,0.0,0.0,0.0,0.0,0.0,0.0,0.0,0.0,0.0,0.0,0.0,0.0,0.0,0.0,0.0,0.0,0.0,0.0,0.0,0.0,0.0,0.0,0.0,0.0,0.0,0.0,0.0,0.0,0.0,0.0,0.0,0.0,0.0,0.0,0.0,0.0,0.0,0.0,0.0,0.0,0.0,0.0,0.0,0.0,0.0,0.0,0.0,0.0,0.0,0.0,0.0,0.0,0.0,0.0,0.0,0.0,0.0,0.0,0.0,0.0,0.0,0.0,0.0,0.0,0.0,0.0,0.0,0.0,0.0,0.0,0.0,0.7604,0.0,0.0,0.0,0.0,0.0,0.0,0.0,0.0,0.0,0.0,0.0,0.0,0.0,0.0,0.0,0.0,0.0,0.0,0.0,0.0,0.0,0.0,0.0,0.0,0.0,0.0,0.0,0.0,0.0,0.0,0.0,0.0,0.0,0.0,0.0,0.0,0.0,0.0,0.0,0.0,0.0,0.0,0.0,0.0,0.0,0.0,0.0,0.0,0.0,0.0,0.0,0.0,0.0,0.0,0.0,0.0,0.0,0.0,0.0,0.0,0.0,0.0,0.0,0.0,0.0,0.0,0.0,0.0,0.0,0.0,0.0,0.0,0.0,0.0,0.0,0.0,0.0,0.0,0.0,0.0,0.0,0.0,0.0,0.0,0.0,0.0,0.0,0.0,0.0,0.0,0.0,0.0,0.0,0.0,0.0,0.0,0.0,0.0,0.0,0.0,0.0,0.0,0.0,0.0,0.0,0.0,0.0,0.0,0.0,0.0,0.7924,0.7912,0.7912,0.7878,0.7829,0.0,0.0,0.0,0.0,0.0,0.0,0.0,0.0,0.0,0.0,0.0,0.0,0.0,0.0,0.0,0.0,0.0,0.0,0.0,0.0,0.0,0.0,0.0,0.0,0.0,0.0,0.0,0.0,0.0,0.0,0.0,0.0,0.0,0.0,0.0,0.0,0.0,0.0,0.0,0.0,0.0,0.0,0.0,0.0,0.0,0.0,0.0,0.0,0.0,0.0,0.0,0.0,0.0,0.0,0.0,0.0,0.0,0.0,0.0,0.0,0.0,0.0,0.0,0.0,0.0,0.0,0.0,0.0,0.0,0.0,0.0,0.0,0.0,0.0,0.0,0.0,0.0,0.0,0.0,0.0,0.0,0.0,0.0,0.0,0.0,0.0,0.0,0.0,0.0,0.0,0.0,0.0,0.0,0.0,0.0,0.0,0.0,0.0,0.0,0.0,0.0,0.0,0.0,0.0,0.0,0.0,0.0,0.0,0.0,0.0,0.0,0.0,0.8001,0.8026,0.8088,0.0,0.0,0.0,0.0,0.0,0.0,0.0,0.0,0.0,0.0,0.0,0.0,0.0,0.0,0.0,0.0,0.0,0.0,0.0,0.0,0.0,0.0,0.0,0.0,0.0,0.0,0.0,0.0,0.0,0.0,0.0,0.0,0.0,0.0,0.0,0.0,0.0,0.0,0.0,0.0,0.0,0.0,0.0,0.0,0.0,0.0,0.0,0.0,0.0,0.0,0.0,0.0,0.0,0.0,0.0,0.0,0.0,0.0,0.0,0.0,0.0,0.0,0.0,0.0,0.0,0.0,0.0,0.0,0.0,0.0,0.0,0.0,0.0,0.0,0.0,0.0,0.0,0.0,0.0,0.0,0.0,0.0,0.0,0.0,0.0,0.0,0.0,0.0,0.0,0.0,0.0,0.0,0.0,0.0,0.0,0.0,0.0,0.0,0.0,0.0,0.0,0.0,0.0,0.0,0.0,0.0,0.0,0.0,0.0,0.0,0.8262,0.8001,0.8001,0.0,0.8354,0.0,0.0,0.0,0.0,0.0,0.0,0.0,0.0,0.0,0.0,0.0,0.0,0.0,0.0,0.0,0.0,0.0,0.0,0.0,0.0,0.0,0.0,0.0,0.0,0.0,0.0,0.0,0.0,0.0,0.0,0.0,0.0,0.0,0.0,0.0,0.0,0.0,0.0,0.0,0.0,0.0,0.0,0.0,0.0,0.0,0.0,0.0,0.0,0.0,0.0,0.0,0.0,0.0,0.0,0.0,0.0,0.0,0.0,0.0,0.0,0.0,0.0,0.0,0.0,0.0,0.0,0.0,0.0,0.0,0.0,0.0,0.0,0.0,0.0,0.0,0.0,0.0,0.0,0.0,0.0,0.0,0.0,0.0,0.0,0.0,0.0,0.0,0.0,0.0,0.0,0.0,0.0,0.0,0.0,0.0,0.0,0.0,0.0,0.0,0.0,0.0,0.0,0.0,0.0,0.0,0.0,0.0,0.0,0.0,0.0,0.8746,0.8485,0.8622,0.8765,0.0,0.0,0.0,0.0,0.0,0.0,0.0,0.0,0.0,0.0,0.0,0.0,0.0,0.0,0.0,0.0,0.0,0.0,0.0,0.0,0.0,0.0,0.0,0.0,0.0,0.0,0.0,0.0,0.0,0.0,0.0,0.0,0.0,0.0,0.0,0.0,0.0,0.0,0.0,0.0,0.0,0.0,0.0,0.0,0.0,0.0,0.0,0.0,0.0,0.0,0.0,0.0,0.0,0.0,0.0,0.0,0.0,0.0,0.0,0.0,0.0,0.0,0.0,0.0,0.0,0.0,0.0,0.0,0.0,0.0,0.0,0.0,0.0,0.0,0.0,0.0,0.0,0.0,0.0,0.0,0.0,0.0,0.0,0.0,0.0,0.0,0.0,0.0,0.0,0.0,0.0,0.0,0.0,0.0,0.0,0.0,0.0,0.0,0.0,0.0,0.0,0.0,0.0,0.0,0.0,0.0,0.0,0.0,0.0,0.0,0.941,0.9179,0.8944,0.9167,0.9335,0.941,0.0,0.0,0.0,0.0,0.0,0.0,0.0,0.0,0.0,0.0,0.0,0.0,0.0,0.0,0.0,0.0,0.0,0.0,0.0,0.0,0.0,0.0,0.0,0.0,0.0,0.0,0.0,0.0,0.0,0.0,0.0,0.0,0.0,0.0,0.0,0.0,0.0,0.0,0.0,0.0,0.0,0.0,0.0,0.0,0.0,0.0,0.0,0.0,0.0,0.0,0.0,0.0,0.0,0.0,0.0,0.0,0.0,0.0,0.0,0.0,0.0,0.0,0.0,0.0,0.0,0.0,0.0,0.0,0.0,0.0,0.0,0.0,0.0,0.0,0.0,0.0,0.0,0.0,0.0,0.0,0.0,0.0,0.0,0.0,0.0,0.0,0.0,0.0,0.0,0.0,0.0,0.0,0.0,0.0,0.0,0.0,0.0,0.0,0.0,0.0,0.0,0.0,0.0,0.0,0.0,0.0,0.0,0.0,0.9657,0.9595,0.9471,0.9224,0.9434,0.9698,0.0,0.0,0.0,0.0,0.0,0.0,0.0,0.0,0.0,0.0,0.0,0.0,0.0,0.0,0.0,0.0,0.0,0.0,0.0,0.0,0.0,0.0,0.0,0.0,0.0,0.0,0.0,0.0,0.0,0.0,0.0,0.0,0.0,0.0,0.0,0.0,0.0,0.0,0.0,0.0,0.0,0.0,0.0,0.0,0.0,0.0,0.0,0.0,0.0,0.0,0.0,0.0,0.0,0.0,0.0,0.0,0.0,0.0,0.0,0.0,0.0,0.0,0.0,0.0,0.0,0.0,0.0,0.0,0.0,0.0,0.0,0.0,0.0,0.0,0.0,0.0,0.0,0.0,0.0,0.0,0.0,0.0,0.0,0.0,0.0,0.0,0.0,0.0,0.0,0.0,0.0,0.0,0.0,0.0,0.0,0.0,0.0,0.0,0.0,0.0,0.0,0.0,0.0,0.0,0.0,0.0,0.0,0.0,0.0,1.0581,1.0285,1.0056,0.9994,1.0349,1.0606,0.0,0.0,0.0,0.0,0.0,0.0,0.0,0.0,0.0,0.0,0.0,0.0,0.0,0.0,0.0,0.0,0.0,0.0,0.0,0.0,0.0,0.0,0.0,0.0,0.0,0.0,0.0,0.0,0.0,0.0,0.0,0.0,0.0,0.0,0.0,0.0,0.0,0.0,0.0,0.0,0.0,0.0,0.0,0.0,0.0,0.0,0.0,0.0,0.0,0.0,0.0,0.0,0.0,0.0,0.0,0.0,0.0,0.0,0.0,0.0,0.0,0.0,0.0,0.0,0.0,0.0,0.0,0.0,0.0,0.0,0.0,0.0,0.0,0.0,0.0,0.0,0.0,0.0,0.0,0.0,0.0,0.0,0.0,0.0,0.0,0.0,0.0,0.0,0.0,0.0,0.0,0.0,0.0,0.0,0.0,0.0,0.0,0.0,0.0,0.0,0.0,0.0,0.0,0.0,0.0,0.0,0.0,0.0,0.0,1.1103,0.0,1.0547,1.0634,1.093,1.1169,0.0,0.0,0.0,0.0,0.0,0.0,0.0,0.0,0.0,0.0,0.0,0.0,0.0,0.0,0.0,0.0,0.0,0.0,0.0,0.0,0.0,0.0,0.0,0.0,0.0,0.0,0.0,0.0,0.0,0.0,0.0,0.0,0.0,0.0,0.0,0.0,0.0,0.0,0.0,0.0,0.0,0.0,0.0,0.0,0.0,0.0,0.0,0.0,0.0,0.0,0.0,0.0,0.0,0.0,0.0,0.0,0.0,0.0,0.0,0.0,0.0,0.0,0.0,0.0,0.0,0.0,0.0,0.0,0.0,0.0,0.0,0.0,0.0,0.0,0.0,0.0,0.0,0.0,0.0,0.0,0.0,0.0,0.0,0.0,0.0,0.0,0.0,0.0,0.0,0.0,0.0,0.0,0.0,0.0,0.0,0.0,0.0,0.0,0.0,0.0,0.0,0.0,0.0,0.0,0.0,0.0,0.0,0.0,1.1596,1.1134,1.086,1.0863,1.1091,1.1122,1.1331,0.0,0.0,0.0,0.0,0.0,0.0,0.0,0.0,0.0,0.0,0.0,0.0,0.0,0.0,0.0,0.0,0.0,0.0,0.0,0.0,0.0,0.0,0.0,0.0,0.0,0.0,0.0,0.0,0.0,0.0,0.0,0.0,0.0,0.0,0.0,0.0,0.0,0.0,0.0,0.0,0.0,0.0,0.0,0.0,0.0,0.0,0.0,0.0,0.0,0.0,0.0,0.0,0.0,0.0,0.0,0.0,0.0,0.0,0.0,0.0,0.0,0.0,0.0,0.0,0.0,0.0,0.0,0.0,0.0,0.0,0.0,0.0,0.0,0.0,0.0,0.0,0.0,0.0,0.0,0.0,0.0,0.0,0.0,0.0,0.0,0.0,0.0,0.0,0.0,0.0,0.0,0.0,0.0,0.0,0.0,0.0,0.0,0.0,0.0,0.0,0.0,0.0,0.0,0.0,0.0,0.0,0.0,0.0,0.0,1.1797,1.1571,1.1509,1.1574,1.1713,1.1868,0.0,0.0,0.0,0.0,0.0,0.0,0.0,0.0,0.0,0.0,0.0,0.0,0.0,0.0,0.0,0.0,0.0,0.0,0.0,0.0,0.0,0.0,0.0,0.0,0.0,0.0,0.0,0.0,0.0,0.0,0.0,0.0,0.0,0.0,0.0,0.0,0.0,0.0,0.0,0.0,0.0,0.0,0.0,0.0,0.0,0.0,0.0,0.0,0.0,0.0,0.0,0.0,0.0,0.0,0.0,0.0,0.0,0.0,0.0,0.0,0.0,0.0,0.0,0.0,0.0,0.0,0.0,0.0,0.0,0.0,0.0,0.0,0.0,0.0,0.0,0.0,0.0,0.0,0.0,0.0,0.0,0.0,0.0,0.0,0.0,0.0,0.0,0.0,0.0,0.0,0.0,0.0,0.0,0.0,0.0,0.0,0.0,0.0,0.0,0.0,0.0,0.0,0.0,0.0,0.0,0.0,0.0,0.0,0.0,1.3504,1.2687,1.2182,1.2061,1.2112,1.2208,1.2366,0.0,0.0,0.0,0.0,0.0,0.0,0.0,0.0,0.0,0.0,0.0,0.0,0.0,0.0,0.0,0.0,0.0,0.0,0.0,0.0,0.0,0.0,0.0,0.0,0.0,0.0,0.0,0.0,0.0,0.0,0.0,0.0,0.0,0.0,0.0,0.0,0.0,0.0,0.0,0.0,0.0,0.0,0.0,0.0,0.0,0.0,0.0,0.0,0.0,0.0,0.0,0.0,0.0,0.0,0.0,0.0,0.0,0.0,0.0,0.0,0.0,0.0,0.0,0.0,0.0,0.0,0.0,0.0,0.0,0.0,0.0,0.0,0.0,0.0,0.0,0.0,0.0,0.0,0.0,0.0,0.0,0.0,0.0,0.0,0.0,0.0,0.0,0.0,0.0,0.0,0.0,0.0,0.0,0.0,0.0,0.0,0.0,0.0,0.0,0.0,0.0,0.0,0.0,0.0,0.0,0.0,0.0,0.0,1.5807,1.4068,1.2983,1.2635,1.2405,1.2436,0.0,0.0,0.0,0.0,0.0,0.0,0.0,0.0,0.0,0.0,0.0,0.0,0.0,0.0,0.0,0.0,0.0,0.0,0.0,0.0,0.0,0.0,0.0,0.0,0.0,0.0,0.0,0.0,0.0,0.0,0.0,0.0,0.0,0.0,0.0,0.0,0.0,0.0,0.0,0.0,0.0,0.0,0.0,0.0,0.0,0.0,0.0,0.0,0.0,0.0,0.0,0.0,0.0,0.0,0.0,0.0,0.0,0.0,0.0,0.0,0.0,0.0,0.0,0.0,0.0,0.0,0.0,0.0,0.0,0.0,0.0,0.0,0.0,0.0,0.0,0.0,0.0,0.0,0.0,0.0,0.0,0.0,0.0,0.0,0.0,0.0,0.0,0.0,0.0,0.0,0.0,0.0,0.0,0.0,0.0,0.0,0.0,0.0,0.0,0.0,0.0,0.0,0.0,0.0,0.0,0.0,0.0,0.0,0.0,1.4756,1.4845,1.4663,1.4138,1.3412,1.2886,0.0,0.0,0.0,0.0,0.0,0.0,0.0,0.0,0.0,0.0,0.0,0.0,0.0,0.0,0.0,0.0,0.0,0.0,0.0,0.0,0.0,0.0,0.0,0.0,0.0,0.0,0.0,0.0,0.0,0.0,0.0,0.0,0.0,0.0,0.0,0.0,0.0,0.0,0.0,0.0,0.0,0.0,0.0,0.0,0.0,0.0,0.0,0.0,0.0,0.0,0.0,0.0,0.0,0.0,0.0,0.0,0.0,0.0,0.0,0.0,0.0,0.0,0.0,0.0,0.0,0.0,0.0,0.0,0.0,0.0,0.0,0.0,0.0,0.0,0.0,0.0,0.0,0.0,0.0,0.0,0.0,0.0,0.0,0.0,0.0,0.0,0.0,0.0,0.0,0.0,0.0,0.0,0.0,0.0,0.0,0.0,0.0,0.0,0.0,0.0,0.0,0.0,0.0,0.0,0.0,0.0,0.0,0.0,1.6755,1.6416,1.6826,1.6865,1.6495,1.4565,1.3613,0.0,0.0,0.0,0.0,0.0,0.0,0.0,0.0,0.0,0.0,0.0,0.0,0.0,0.0,0.0,0.0,0.0,0.0,0.0,0.0,0.0,0.0,0.0,0.0,0.0,0.0,0.0,0.0,0.0,0.0,0.0,0.0,0.0,0.0,0.0,0.0,0.0,0.0,0.0,0.0,0.0,0.0,0.0,0.0,0.0,0.0,0.0,0.0,0.0,0.0,0.0,0.0,0.0,0.0,0.0,0.0,0.0,0.0,0.0,0.0,0.0,0.0,0.0,0.0,0.0,0.0,0.0,0.0,0.0,0.0,0.0,0.0,0.0,0.0,0.0,0.0,0.0,0.0,0.0,0.0,0.0,0.0,0.0,0.0,0.0,0.0,0.0,0.0,0.0,0.0,0.0,0.0,0.0,0.0,0.0,0.0,0.0,0.0,0.0,0.0,0.0,0.0,0.0,0.0,0.0,0.0,0.0,0.0,1.8716,1.9155,1.905,1.9004,1.8916,1.5877,1.458,0.0,0.0,0.0,0.0,0.0,0.0,0.0,0.0,0.0,0.0,0.0,0.0,0.0,0.0,0.0,0.0,0.0,0.0,0.0,0.0,0.0,0.0,0.0,0.0,0.0,0.0,0.0,0.0,0.0,0.0,0.0,0.0,0.0,0.0,0.0,0.0,0.0,0.0,0.0,0.0,0.0,0.0,0.0,0.0,0.0,0.0,0.0,0.0,0.0,0.0,0.0,0.0,0.0,0.0,0.0,0.0,0.0,0.0,0.0,0.0,0.0,0.0,0.0,0.0,0.0,0.0,0.0,0.0,0.0,0.0,0.0,0.0,0.0,0.0,0.0,0.0,0.0,0.0,0.0,0.0,0.0,0.0,0.0,0.0,0.0,0.0,0.0,0.0,0.0,0.0,0.0,0.0,0.0,0.0,0.0,0.0,0.0,0.0,0.0,0.0,0.0,0.0,0.0,0.0,0.0,0.0,0.0,0.0,1.8443,1.8378,1.8784,1.902,1.8988,1.7173,1.5989,0.0,0.0,0.0,0.0,0.0,0.0,0.0,0.0,0.0,0.0,0.0,0.0,0.0,0.0,0.0,0.0,0.0,0.0,0.0,0.0,0.0,0.0,0.0,0.0,0.0,0.0,0.0,0.0,0.0,0.0,0.0,0.0,0.0,0.0,0.0,0.0,0.0,0.0,0.0,0.0,0.0,0.0,0.0,0.0,0.0,0.0,0.0,0.0,0.9244,0.0,0.0,0.0,0.0,0.0,0.0,0.0,0.0,0.0,0.0,0.0,0.0,0.0,0.0,0.0,0.0,0.0,0.0,0.0,0.0,0.0,0.0,0.0,0.0,0.0,0.0,0.0,0.0,0.0,0.0,0.0,0.0,0.0,0.0,0.0,0.0,0.0,0.0,0.0,0.0,0.0,0.0,0.0,0.0,0.0,0.0,0.0,0.0,0.0,0.0,0.0,0.0,0.0,0.0,0.0,0.0,0.0,0.0,0.0,1.9385,1.9534,2.0097,2.0414,2.0369,1.9387,1.8286,0.0,0.0,0.0,0.0,0.0,0.0,0.0,0.0,0.0,0.0,0.0,0.0,0.0,0.0,0.0,0.0,0.0,0.0,0.0,0.0,0.0,0.0,0.0,0.0,0.0,0.0,0.0,0.0,0.0,0.0,0.0,0.0,0.0,0.0,0.0,0.0,0.0,0.0,0.0,0.0,0.0,0.0,0.0,0.0,0.0,0.0,0.0,0.0,0.0,0.0,0.0,0.0,0.0,0.0,0.0,0.0,0.0,0.0,0.0,0.0,0.0,0.0,0.0,0.0,0.0,0.0,0.0,0.0,0.0,0.0,0.0,0.0,0.0,0.0,0.0,0.0,0.0,0.0,0.0,0.0,0.0,0.0,0.0,0.0,0.0,0.0,0.0,0.0,0.0,0.0,0.0,0.0,0.0,0.0,0.0,0.0,0.0,0.0,0.0,0.0,0.0,0.0,0.0,0.0,0.0,0.0,0.0,1.9706,2.0571,2.1214,2.1726,2.2007,2.1994,2.145,2.0537,1.9238,0.0,0.0,0.0,0.0,0.0,0.0,0.0,0.0,0.0,0.0,0.0,0.0,0.0,0.0,0.0,0.0,0.0,0.0,0.0,0.0,0.0,0.0,0.0,0.0,0.0,0.0,0.0,0.0,0.0,0.0,0.0,0.0,0.0,0.0,0.0,0.0,0.0,0.0,0.8807,0.9251,0.0,0.0,0.0,0.0,0.0,0.0,0.0,0.0,1.0315,0.0,0.0,0.0,0.0,0.0,0.0,0.0,0.0,0.0,0.0,0.0,0.0,0.0,0.0,0.0,0.0,0.0,0.0,0.0,0.0,0.0,0.0,0.0,0.0,0.0,0.0,0.0,0.0,0.0,0.0,0.0,0.0,0.0,0.0,0.0,0.0,0.0,0.0,0.0,0.0,0.0,0.0,0.0,0.0,0.0,0.0,0.0,0.0,0.0,0.0,0.0,0.0,0.0,0.0,0.0,0.0,1.989,2.0331,2.0968,2.1832,2.1931,2.2007,2.1994,2.1694,2.1166,2.0394,0.0,0.0,0.0,0.0,0.0,0.0,0.0,0.0,0.0,0.0,0.0,0.0,0.0,0.0,0.0,0.0,0.0,0.0,0.0,0.0,0.0,0.0,0.0,0.0,0.0,0.0,0.0,0.0,0.0,0.0,0.0,0.0,0.0,0.0,0.0,0.0,0.0,0.0,0.0,0.9965,1.0159,0.0,0.0,0.0,0.0,0.0,0.0,0.0,0.0,1.1558,0.0,0.0,0.0,0.0,0.0,0.0,0.0,0.0,0.0,0.0,0.0,0.0,0.0,0.0,0.0,0.0,0.0,0.0,0.0,0.0,0.0,0.0,0.0,0.0,0.0,0.0,0.0,0.0,0.0,0.0,0.0,0.0,0.0,0.0,0.0,0.0,0.0,0.0,0.0,0.0,0.0,0.0,0.0,0.0,0.0,0.0,0.0,0.0,0.0,0.0,0.0,0.0,0.0,0.0,0.0,2.065,2.1095,2.171,2.2435,2.2479,2.2462,2.2448,2.2168,2.1673,0.0,0.0,0.0,0.0,0.0,0.0,0.0,0.0,0.0,0.0,0.0,0.0,0.0,0.0,0.0,0.0,0.0,0.0,0.0,0.0,0.0,0.0,0.0,0.0,0.0,0.0,0.0,0.0,0.0,0.0,0.0,0.0,0.0,0.0,0.0,0.0,0.0,0.0,0.0,0.0,1.0507,1.0857,1.1142,0.0,0.0,0.0,0.0,0.0,0.0,1.2186,1.225,0.0,0.0,0.0,0.0,0.0,0.0,0.0,0.0,0.0,0.0,0.0,0.0,0.0,0.0,0.0,0.0,0.0,0.0,0.0,0.0,0.0,0.0,0.0,0.0,0.0,0.0,0.0,0.0,0.0,0.0,0.0,0.0,0.0,0.0,0.0,0.0,0.0,0.0,0.0,0.0,0.0,0.0,0.0,0.0,0.0,0.0,0.0,0.0,0.0,0.0,0.0,0.0,0.0,0.0,0.0,2.1181,2.1766,2.2342,2.2867,2.2893,2.2893,2.2893,2.2529,2.1951,0.0,0.0,0.0,0.0,0.0,0.0,0.0,0.0,0.0,0.0,0.0,0.0,0.0,0.0,0.0,0.0,0.0,0.0,0.0,0.0,0.0,0.0,0.0,0.0,0.0,0.0,0.0,0.0,0.0,0.0,0.0,0.0,0.0,0.0,0.0,0.0,0.0,0.0,0.0,0.0,0.0,1.1502,1.1981,1.1468,0.0,0.0,0.0,0.0,1.2433,1.2693,0.0,0.0,0.0,0.0,0.0,0.0,0.0,0.0,0.0,0.0,0.0,0.0,0.0,0.0,0.0,0.0,0.0,0.0,0.0,0.0,0.0,0.0,0.0,0.0,0.0,0.0,0.0,0.0,0.0,0.0,0.0,0.0,0.0,0.0,0.0,0.0,0.0,0.0,0.0,0.0,0.0,0.0,0.0,0.0,0.0,0.0,0.0,0.0,0.0,0.0,0.0,0.0,0.0,0.0,0.0,0.0,2.155,2.2081,2.2525,2.288,2.2893,2.2893,2.2893,2.2342,2.175,0.0,0.0,0.0,0.0,0.0,0.0,0.0,0.0,0.0,0.0,0.0,0.0,0.0,0.0,0.0,0.0,0.0,0.0,0.0,0.0,0.0,0.0,0.0,0.0,0.0,0.0,0.0,0.0,0.0,0.0,0.0,0.0,0.0,0.0,0.0,0.0,0.0,0.0,0.0,0.0,0.0,1.1865,1.2223,1.2183,1.2229,0.0,0.0,1.3572,1.3281,1.3409,0.0,0.0,0.0,0.0,0.0,0.0,0.0,0.0,0.0,0.0,0.0,0.0,0.0,0.0,0.0,0.0,0.0,0.0,0.0,0.0,0.0,0.0,0.0,0.0,0.0,0.0,0.0,0.0,0.0,0.0,0.0,0.0,0.0,0.0,0.0,0.0,0.0,0.0,0.0,0.0,0.0,0.0,0.0,0.0,0.0,0.0,0.0,0.0,0.0,0.0,0.0,0.0,0.0,0.0,0.0,2.1489,2.2031,2.2475,2.2773,2.2893,2.2893,2.2893,2.2893,2.2462,2.1951,0.0,0.0,0.0,0.0,0.0,0.0,0.0,0.0,0.0,0.0,0.0,0.0,0.0,0.0,0.0,0.0,0.0,0.0,0.0,0.0,0.0,0.0,0.0,0.0,0.0,0.0,0.0,0.0,0.0,0.0,0.0,0.0,0.0,0.0,0.0,0.0,0.0,0.0,0.0,0.0,0.0,0.0,1.2656,1.299,0.0,0.0,0.0,1.3953,1.3671,0.0,0.0,0.0,0.0,0.0,0.0,0.0,0.0,0.0,0.0,0.0,0.0,0.0,0.0,0.0,0.0,0.0,0.0,0.0,0.0,0.0,0.0,0.0,0.0,0.0,0.0,0.0,0.0,0.0,0.0,0.0,0.0,0.0,0.0,0.0,0.0,0.0,0.0,0.0,0.0,0.0,0.0,0.0,0.0,0.0,0.0,0.0,0.0,0.0,0.0,0.0,0.0,0.0,0.0,0.0,0.0,0.0,2.2525,2.2916,2.3121,2.3121,2.3207,2.3259,2.3228,2.2946,0.0,0.0,0.0,0.0,0.0,0.0,0.0,0.0,0.0,0.0,0.0,0.0,0.0,0.0,0.0,0.0,0.0,0.0,0.0,0.0,0.0,0.0,0.0,0.0,0.0,0.0,0.0,1.2273,0.0,0.0,0.0,0.0,0.0,0.0,0.0,0.0,0.0,0.0,0.0,0.0,0.0,0.0,1.3474,1.3915,1.4265,1.4461,0.0,0.0,1.4516,1.4032,1.3968,1.3958,0.0,0.0,0.0,0.0,0.0,0.0,0.0,0.0,0.0,0.0,0.0,0.0,0.0,0.0,0.0,0.0,0.0,0.0,0.0,0.0,0.0,0.0,0.0,0.0,0.0,0.0,0.0,0.0,0.0,0.0,0.0,0.0,0.0,0.0,0.0,0.0,0.0,0.0,0.0,0.0,0.0,0.0,0.0,0.0,0.0,0.0,0.0,0.0,0.0,0.0,0.0,0.0,0.0,0.0,0.0,2.2867,2.3424,2.3736,2.3736,2.4042,2.4205,2.4205,2.3936,2.3532,0.0,0.0,0.0,0.0,0.0,0.0,0.0,0.0,0.0,0.0,0.0,0.0,0.0,0.0,0.0,0.0,0.0,0.0,0.0,0.0,0.0,0.0,0.0,0.0,0.0,0.0,0.0,0.0,0.0,0.0,0.0,0.0,0.0,0.0,0.0,0.0,0.0,0.0,0.0,0.0,0.0,1.5833,1.6538,1.6294,1.6091,0.0,0.0,1.5686,1.455,1.4281,1.4231,1.4353,0.0,0.0,0.0,0.0,0.0,0.0,0.0,0.0,0.0,0.0,0.0,0.0,0.0,0.0,0.0,0.0,0.0,0.0,0.0,0.0,0.0,0.0,0.0,0.0,0.0,0.0,0.0,0.0,0.0,0.0,0.0,0.0,0.0,0.0,0.0,0.0,0.0,0.0,0.0,0.0,0.0,0.0,0.0,0.0,0.0,0.0,0.0,0.0,0.0,0.0,0.0,0.0,0.0,2.2552,2.314,2.3572,2.391,2.4096,2.4238,2.4416,2.4664,2.4556,2.4254,0.0,0.0,0.0,0.0,0.0,0.0,0.0,0.0,0.0,0.0,0.0,0.0,0.0,0.0,0.0,0.0,0.0,0.0,0.0,0.0,0.0,0.0,0.0,0.0,0.0,0.0,0.0,0.0,1.3179,1.3383,1.3463,0.0,0.0,0.0,0.0,0.0,0.0,0.0,0.0,0.0,0.0,1.7129,1.7964,1.8142,0.0,0.0,1.8269,1.7843,1.6777,1.6473,1.6147,1.5547,1.5218,0.0,0.0,0.0,0.0,0.0,0.0,0.0,0.0,0.0,0.0,0.0,0.0,0.0,0.0,0.0,0.0,0.0,0.0,0.0,0.0,0.0,0.0,0.0,0.0,0.0,0.0,0.0,0.0,0.0,0.0,0.0,0.0,0.0,0.0,0.0,0.0,0.0,0.0,0.0,0.0,0.0,0.0,0.0,0.0,0.0,0.0,0.0,0.0,0.0,0.0,0.0,0.0,2.3085,2.3763,2.4209,2.4507,2.473,2.4856,2.5048,2.5334,2.5352,2.5109,0.0,0.0,0.0,0.0,0.0,0.0,0.0,0.0,0.0,0.0,0.0,0.0,0.0,0.0,0.0,0.0,0.0,0.0,0.0,0.0,0.0,0.0,0.0,0.0,0.0,0.0,0.0,0.0,1.3474,1.3649,1.3755,0.0,0.0,0.0,0.0,0.0,0.0,0.0,0.0,0.0,0.0,1.9074,1.9774,2.0122,2.0156,1.9739,1.9492,1.9016,1.8018,1.776,1.7496,1.6978,0.0,0.0,0.0,0.0,0.0,0.0,0.0,0.0,0.0,0.0,0.0,0.0,0.0,0.0,0.0,0.0,0.0,0.0,0.0,0.0,0.0,0.0,0.0,0.0,0.0,0.0,0.0,0.0,0.0,0.0,0.0,0.0,0.0,0.0,0.0,0.0,0.0,0.0,0.0,0.0,0.0,0.0,0.0,0.0,0.0,0.0,0.0,0.0,0.0,0.0,0.0,0.0,0.0,2.3932,2.4862,2.5427,2.5767,2.5772,2.617,2.6349,2.6371,2.6385,2.6247,2.5947,0.0,0.0,0.0,0.0,0.0,0.0,0.0,0.0,0.0,0.0,0.0,0.0,0.0,0.0,0.0,0.0,0.0,0.0,0.0,0.0,0.0,0.0,0.0,0.0,0.0,0.0,1.3529,1.3685,1.3782,0.0,0.0,0.0,0.0,0.0,0.0,0.0,0.0,0.0,0.0,2.0505,2.1928,2.2242,2.221,2.1617,2.036,1.9558,1.8748,1.7878,1.7686,1.7873,0.0,0.0,0.0,0.0,0.0,0.0,0.0,0.0,0.0,0.0,0.0,0.0,0.0,0.0,0.0,0.0,0.0,0.0,0.0,0.0,0.0,0.0,0.0,0.0,0.0,0.0,0.0,0.0,2.0155,0.0,0.0,0.0,0.0,0.0,0.0,0.0,0.0,0.0,0.0,0.0,2.2982,2.283,0.0,0.0,0.0,0.0,0.0,0.0,0.0,0.0,0.0,0.0,0.0,0.0,2.469,2.5233,2.6051,2.6603,2.6861,2.6992,2.716,2.737,2.7403,2.7154,2.6691,0.0,0.0,0.0,0.0,0.0,0.0,0.0,0.0,0.0,0.0,0.0,0.0,0.0,0.0,0.0,0.0,0.0,0.0,0.0,0.0,0.0,0.0,0.0,0.0,0.0,1.5134,0.0,0.0,0.0,0.0,0.0,0.0,0.0,0.0,0.0,0.0,0.0,1.9149,2.0086,2.0945,2.1784,2.2571,2.2546,2.2556,0.0,0.0,0.0,0.0,0.0,0.0,0.0,0.0,0.0,0.0,0.0,0.0,0.0,0.0,1.9677,1.8259,1.8175,1.8339,1.8323,0.0,0.0,0.0,0.0,0.0,0.0,0.0,0.0,0.0,0.0,0.0,0.0,0.0,0.0,0.0,0.0,2.1535,0.0,0.0,0.0,0.0,0.0,0.0,0.0,0.0,2.3599,2.4065,2.4567,2.4318,2.4218,0.0,2.4102,2.3589,0.0,0.0,0.0,0.0,0.0,0.0,0.0,0.0,2.5513,2.5972,2.6784,2.7306,2.7571,2.759,2.7666,2.7892,2.7892,2.7721,2.7316,2.6585,2.588,0.0,0.0,0.0,0.0,0.0,0.0,0.0,0.0,0.0,0.0,0.0,0.0,0.0,0.0,0.0,0.0,0.0,0.0,0.0,0.0,0.0,0.0,0.0,1.6687,0.0,0.0,0.0,0.0,0.0,0.0,0.0,0.0,0.0,1.8209,1.9387,2.0544,2.1282,2.1895,2.2408,2.2754,0.0,0.0,0.0,0.0,0.0,0.0,0.0,2.1943,2.1613,2.178,2.2054,2.2367,2.2551,2.2583,2.2389,0.0,0.0,2.0563,2.0305,2.0388,2.0388,2.0405,2.0388,2.04,2.0573,2.0725,0.0,0.0,0.0,0.0,0.0,0.0,0.0,0.0,2.3659,2.347,0.0,2.347,0.0,0.0,0.0,0.0,0.0,0.0,0.0,0.0,2.5406,2.5851,2.5591,2.5556,2.5556,2.5556,2.5192,2.5192,2.5478,2.4337,0.0,0.0,0.0,0.0,0.0,0.0,2.6455,2.7027,2.7615,2.7936,2.7936,2.7936,2.7936,2.7936,2.7922,2.7907,2.7892,2.7642,2.7207,2.6541,2.5886,0.0,0.0,0.0,0.0,0.0,0.0,0.0,0.0,0.0,0.0,0.0,0.0,0.0,0.0,0.0,0.0,0.0,0.0,0.0,0.0,1.8084,0.0,0.0,0.0,0.0,0.0,0.0,0.0,0.0,0.0,0.0,1.9368,2.071,2.187,2.2275,0.0,0.0,0.0,0.0,2.3768,2.2994,2.2731,2.2655,2.2686,2.2915,2.3324,2.3968,0.0,0.0,2.4526,2.4017,2.3446,2.2862,2.3761,2.4112,2.2716,2.2248,2.2051,2.2056,2.2064,2.2013,2.203,2.2132,2.2111,2.6718,0.0,0.0,0.0,0.0,2.3866,2.4348,2.4958,2.4958,2.4914,2.4812,2.4698,0.0,0.0,0.0,0.0,0.0,0.0,2.5011,2.5481,2.6048,2.6507,2.6925,2.6884,2.6985,2.7206,2.7096,2.7114,2.7192,2.6852,2.6211,2.5331,0.0,0.0,0.0,0.0,2.7261,2.7648,2.8281,2.8622,2.8603,2.8622,2.8603,2.8622,2.8384,2.8262,2.8262,2.7955,2.7609,2.7217,2.6752,0.0,0.0,0.0,0.0,0.0,0.0,0.0,0.0,0.0,0.0,0.0,0.0,0.0,0.0,0.0,0.0,0.0,0.0,0.0,2.031,2.0378,1.9991,0.0,0.0,0.0,0.0,0.0,0.0,0.0,0.0,0.0,2.2316,2.2347,2.2548,0.0,0.0,2.3053,2.3075,2.3264,2.3572,2.3994,0.0,0.0,0.0,2.3802,2.3842,2.4307,2.5047,2.557,2.557,2.5547,2.551,2.5309,2.5443,2.547,2.5285,2.4802,2.4478,2.4478,2.4478,2.4478,2.4459,2.4478,2.4428,2.9717,2.6553,2.5948,2.5727,2.573,2.5442,2.5694,2.6278,2.6278,2.6278,2.6296,2.6255,2.5956,2.5484,2.5126,0.0,0.0,0.0,2.6257,2.6757,2.6917,2.7225,2.7634,2.7617,2.7704,2.7892,2.7872,2.7949,2.8082,2.7949,2.7571,2.6947,0.0,0.0,2.6914,2.7574,2.7968,2.8116,2.8637,2.8886,2.8886,2.8886,2.8886,2.8886,2.8691,2.8588,2.8588,2.8413,2.8164,2.7876,2.7621,2.7132,0.0,0.0,0.0,0.0,0.0,0.0,0.0,0.0,0.0,0.0,0.0,2.0096,0.0,0.0,0.0,0.0,2.1066,2.1778,2.2302,2.2073,0.0,0.0,0.0,0.0,0.0,0.0,0.0,2.1165,2.2185,2.3171,2.3906,2.3637,2.3507,2.3922,2.3722,2.3551,2.3562,0.0,2.4378,2.4749,2.4492,2.4449,2.4846,2.4812,2.4853,2.5201,2.5723,2.6139,2.6152,2.6299,2.6406,2.6393,2.6259,2.6211,2.6361,2.6083,2.5752,2.5539,2.5518,2.5518,2.5518,2.5518,2.5518,3.2309,3.0817,2.9431,2.8603,2.8164,2.7092,2.6936,2.7529,2.7529,2.7525,2.7558,2.778,2.7594,2.7089,2.7071,0.0,0.0,2.7397,2.7656,2.7892,2.7941,2.7936,2.7955,2.7951,2.7984,2.798,2.7928,2.8091,2.8462,2.8101,2.8134,2.8496,2.8255,2.7981,2.7668,2.8263,2.8536,2.8511,2.8827,2.8993,2.8973,2.8978,2.8973,2.8973,2.8944,2.893,2.8949,2.892,2.8769,2.8452,2.8457,2.8179,2.7583,0.0,0.0,0.0,0.0,0.0,0.0,0.0,0.0,0.0,0.0,0.0,0.0,0.0,0.0,0.0,2.2835,0.0,2.3875,2.332,0.0,0.0,0.0,2.2208,2.2701,2.2814,2.2929,2.3185,0.0,0.0,0.0,0.0,2.4629,2.4642,2.487,2.4824,2.4281,2.5188,2.5797,2.5256,2.5398,2.5552,2.5554,2.5773,2.6,2.6246,2.64,2.6373,2.6373,2.6406,2.6386,2.64,2.6386,2.6406,2.6386,2.6379,2.6226,2.5726,2.5606,2.5598,2.5625,2.5625,2.5638,3.6027,3.5525,3.4035,3.1316,2.7981,2.768,2.7663,2.7794,2.7809,2.7813,2.7828,2.7863,2.7805,2.7678,2.7692,2.7692,2.7692,2.7765,2.7838,2.7926,2.8155,2.8277,2.8291,2.8549,2.8666,2.8666,2.8642,2.8817,2.9149,2.907,2.9202,2.9535,2.9487,2.9164,2.8598,2.8988,2.9291,2.9535,2.9623,2.9652,2.9672,2.9672,2.9672,2.9672,2.9437,2.9286,2.9271,2.9037,2.8876,2.8783,2.8783,2.8608,2.8208,2.7523,0.0,0.0,0.0,0.0,0.0,0.0,0.0,0.0,0.0,2.2088,2.2136,0.0,2.3263,0.0,2.4125,2.4682,2.4788,2.4388,0.0,0.0,2.3426,2.3181,2.329,2.3772,2.4113,2.416,2.4612,2.5122,2.5589,2.5629,2.5709,2.5922,2.5629,2.5331,2.5198,2.5626,2.5977,2.585,2.6018,2.6172,2.6186,2.6246,2.6339,2.6393,2.64,2.64,2.64,2.64,2.64,2.64,2.64,2.64,2.6433,2.64,2.6453,2.6447,2.6313,2.6186,2.6205,2.6186,2.6186,3.7457,3.6737,3.5886,3.3561,3.0423,2.9431,2.8683,2.8131,2.8131,2.8204,2.834,2.8354,2.8354,2.8321,2.8354,2.8354,2.8354,2.834,2.8354,2.8369,2.8691,2.8837,2.8851,2.9198,2.9344,2.9344,2.9344,2.9432,2.9628,2.9628,2.9731,2.9906,3.0053,2.9936,2.9599,2.9613,2.9731,2.9892,2.9906,2.9906,2.9906,2.9906,2.9913,2.9941,2.9749,2.9611,2.9486,2.9311,2.9051,2.8745,2.873,2.856,2.8189,2.7744,2.7027,0.0,0.0,0.0,0.0,0.0,0.0,0.0,0.0,0.0,0.0,0.0,2.4209,0.0,2.4935,0.0,2.5109,2.4908,2.4763,2.4718,2.4517,2.4489,2.4756,2.5117,2.5324,2.5357,2.5663,2.5972,2.6152,2.6305,2.64,2.656,2.6433,2.6239,2.6132,2.6239,2.6406,2.654,2.672,2.6794,2.6794,2.6794,2.6794,2.6827,2.6807,2.6794,2.6794,2.6794,2.6774,2.6693,2.6734,2.6827,2.6907,2.6867,2.6861,2.6934,2.6894,2.6807,2.6794,2.6814,2.6794,3.796,3.6682,3.6682,3.5713,3.4045,3.2141,3.047,2.9052,2.8856,2.8811,2.8905,2.8886,2.8886,2.8886,2.8949,2.8978,2.8959,2.9008,2.9037,2.9052,2.933,2.9462,2.9496,2.9774,2.9906,2.9906,2.9906,2.995,3.0024,3.0003,3.0068,3.0155,3.0434,3.058,3.0566,3.0287,3.0091,3.0024,3.0125,3.0145,3.0104,3.0206,3.0259,3.0186,3.0166,3.0028,2.9736,2.9683,2.9336,2.8686,2.8619,2.843,2.8047,2.7755,2.7303,0.0,2.6063,0.0,0.0,0.0,0.0,0.0,0.0,0.0,0.0,2.4693,2.4858,2.5189,2.5443,2.5478,2.5283,2.527,2.5363,2.5565,2.5625,2.5825,2.6339,2.6426,2.644,2.646,2.648,2.6513,2.652,2.6734,2.686,2.6894,2.7061,2.7115,2.6974,2.6881,2.6954,2.7262,2.7309,2.7229,2.7255,2.7269,2.7269,2.7282,2.7269,2.7309,2.7269,2.7282,2.7241,2.7126,2.7174,2.7323,2.756,2.7411,2.7322,2.7416,2.7429,2.7376,2.7282,2.7255,2.7309,3.948,3.9198,3.9198,3.8274,3.6755,3.6326,3.4832,3.261,3.1313,3.0053,2.8905,2.8886,2.8886,2.8934,2.9183,2.93,2.9315,2.9599,2.9716,2.971,2.9789,2.9804,2.9818,2.9857,2.9906,2.9906,2.9906,3.015,3.0621,3.0621,3.0905,3.1417,3.1512,3.1555,0.0,0.0,0.0,0.0,3.1328,3.1514,3.124,3.1878,3.193,3.131,3.1092,0.0,3.0426,3.0171,2.9775,2.9344,2.9325,0.0,0.0,0.0,0.0,0.0,0.0,0.0,0.0,0.0,0.0,0.0,2.6495,2.5887,2.5085,2.5192,2.5478,2.5797,2.5877,2.5965,2.6119,2.6165,2.6159,2.6232,2.6246,2.6286,2.6386,2.66,2.6727,2.6727,2.6968,2.7135,2.7122,2.7188,2.7208,2.7262,2.7248,2.7355,2.7542,2.7369,2.7222,2.7296,2.743,2.7356,2.7309,2.739,2.7457,2.7309,2.7309,2.7336,2.7376,2.7362,2.7397,2.7444,2.7404,2.741,2.7587,2.7424,2.7523,2.7924,2.8018,2.7871,2.7416,2.7322,2.7309,3.9883,0.0,3.9883,3.943,0.0,3.869,3.7971,3.658,3.4165,3.266,3.1863,3.1014,3.0641,3.0637,2.9948,2.9657,2.9652,2.9833,2.9906,2.9921,3.0208,3.0355,3.0369,3.0692,3.0838,3.0838,3.0838,3.0993,3.13,3.1279,3.1454,3.1798,3.1798,3.2365,3.3487,3.4585,3.4333,3.2638,3.3963,3.4585,3.4357,3.389,3.3483,3.3132,0.0,0.0,0.0,0.0,0.0,0.0,0.0,0.0,0.0,0.0,0.0,2.8379,2.8271,2.8261,2.8441,2.8437,2.8298,2.8011,2.7378,2.6602,2.5615,2.5772,2.6012,2.6165,2.6212,2.6246,2.6393,2.654,2.66,2.6613,2.6734,2.6834,2.6861,2.6947,2.7041,2.7054,2.7175,2.7309,2.7309,2.7422,2.7672,2.8048,2.8197,2.8373,2.8547,2.7988,2.7645,2.8203,2.8413,2.86,2.8789,2.8621,2.846,2.8473,2.8284,2.8158,2.8136,2.8129,2.8136,2.8171,2.8136,2.8136,2.815,2.815,2.8243,2.8497,2.8577,2.8511,2.819,2.815,2.8129,4.0351,4.0332,4.0332,4.0351,4.0351,4.0371,4.0351,4.0103,0.0,0.0,0.0,3.3175,3.2471,3.2436,3.0806,3.0294,3.0622,3.0357,3.0406,3.0726,3.0889,3.116,3.1467,3.2023,3.2276,3.2276,3.2335,3.2416,3.2476,3.252,3.2774,3.3121,3.3164,3.4083,3.5988,3.8156,3.8131,3.6071,3.7126,3.7726,3.7584,3.588,3.495,3.4943,3.3338,3.2116,3.1305,3.1581,3.1175,2.9912,2.9803,2.9596,2.9188,2.911,2.9081,2.9081,2.9081,2.9198,2.9462,2.9476,2.9254,2.874,2.79,2.7082,2.6265,2.6433,2.6566,2.6586,2.6547,2.6566,2.6566,2.6767,2.6874,2.6907,2.7141,2.7296,2.7309,2.7362,2.7389,2.7471,2.762,2.7694,2.7858,2.8101,2.8415,2.9031,2.9336,2.9576,2.9605,2.8701,2.82,2.8943,2.9474,3.0045,3.0154,3.0026,2.9857,2.9747,2.9485,2.9271,2.9249,2.9271,2.9149,2.892,2.907,2.9173,2.9035,2.9046,2.9145,2.9186,2.9125,2.9117,2.917,2.9236,2.9212,4.2031,4.205,4.205,4.205,4.205,4.205,4.205,4.1775,3.8582,3.6356,3.4886,3.3231,3.2615,3.276,3.1315,3.1725,3.3374,3.2128,3.2375,0.0,3.2353,3.2489,3.3955,3.4092,3.4118,3.4155,3.4432,3.4758,3.5144,3.5385,3.6483,3.816,3.843,3.8556,3.9023,4.0832,4.1593,4.1186,4.0111,3.9349,3.8929,3.7556,3.65,3.5824,3.5195,3.3907,3.2078,3.344,3.3331,3.1351,3.0938,3.0606,3.0225,2.9921,2.9774,2.976,2.9774,2.9769,2.9848,2.9833,2.9641,2.9139,2.8307,2.7622,2.7155,2.7162,2.7168,2.7175,2.7148,2.7168,2.7168,2.7236,2.7296,2.7276,2.7296,2.7329,2.7417,2.7576,2.7848,2.8214,2.872,2.9141,2.9423,2.978,2.9982,3.0222,3.0334,3.0384,3.0302,2.9344,2.8771,2.9138,3.0172,3.0561,3.035,3.0217,3.0452,3.0398,3.0395,3.032,3.0312,3.0334,3.0168,2.9699,3.0018,3.0221,3.0129,2.98,2.9853,3.0013,2.9861,2.965,2.9851,3.015,3.0099,4.2402,4.2402,4.2402,4.2402,4.2402,4.2402,4.2402,4.2283,4.0833,3.9762,3.8894,3.7261,3.6584,3.6554,3.5027,3.4876,3.5809,3.5096,3.5224,3.5865,3.4479,3.4253,3.5016,3.5436,3.5627,3.5714,3.6889,3.7554,3.7742,3.7887,3.8455,3.9548,4.0702,4.1353,4.1481,4.3426,4.4451,4.4451,4.327,4.2558,4.2326,4.0782,3.9791,3.9405,3.8237,3.655,3.4361,3.4922,3.4239,3.2021,3.161,3.1349,3.1166,3.1014,3.0926,3.094,3.0926,3.0926,3.0905,3.0711,3.046,3.023,2.9663,2.9229,2.9061,2.796,2.7309,2.7329,2.7493,2.7635,2.7649,2.8146,2.8503,2.8517,2.8812,2.8913,2.8653,2.8684,2.8864,2.9082,2.9343,2.9701,3.0209,3.0407,3.0698,3.1013,3.134,3.1624,3.178,3.0875,3.0171,3.0439,3.1213,3.169,3.1573,3.1715,3.1831,3.1859,3.1636,3.1525,3.148,3.1466,3.1385,3.1274,3.1385,3.1569,3.1739,3.1427,3.1251,3.1239,3.1196,3.1098,3.1217,3.1403,3.126,4.2987,4.2987,4.2987,4.2987,4.2967,4.2987,4.2987,4.2987,4.2967,4.2987,4.2725,4.0835,3.9968,3.9967,3.8319,3.7864,3.8317,3.7978,3.802,3.8279,3.7041,3.6611,3.7085,3.7634,3.7881,3.8053,3.9502,4.0259,4.028,4.0328,4.0623,4.1142,4.281,4.3678,4.3718,4.5414,4.6308,4.6269,4.5644,4.5291,4.5227,4.3418,4.2434,4.2347,4.0937,3.9121,3.7013,3.6643,3.5528,3.3415,3.2535,3.209,3.2017,3.1944,3.1871,3.1812,3.1798,3.1798,3.1776,3.1368,3.1153,3.1239,3.0786,3.0535,3.0464,2.9047,2.8007,2.8049,2.8372,2.8538,2.8648,2.9202,2.9733,2.9761,3.0175,3.0227,2.9929,2.9878,2.9971,3.0056,3.0204,3.0505,3.0953,3.1191,3.1507,3.2057,3.2497,3.2871,3.2996,3.2343,3.1974,3.2084,3.2394,3.266,3.3115,3.311,3.3104,3.3145,3.2851,3.2643,3.2589,3.26,3.2674,3.2731,3.2668,3.2762,3.3128,3.2802,3.2434,3.2338,3.2187,3.222,3.232,3.2464,3.2431,4.4744,4.4743,4.4686,4.4764,4.4705,4.4705,4.4686,4.4705,4.4744,4.4764,4.4361,4.1343,4.0377,4.0612,3.9176,3.9678,4.1548,4.0062,4.0222,4.1473,3.9957,4.0032,4.1359,4.1662,4.1786,4.1731,4.2214,4.2532,4.2616,4.286,4.39,4.5497,4.5905,4.5905,4.599,4.616,4.6308,4.6308,4.623,4.6191,4.6043,4.4003,4.2861,4.2839,4.2359,4.1163,3.9294,3.9106,3.8164,3.6266,3.4142,3.2946,3.2727,3.2434,3.212,3.1856,3.1827,3.1798,3.1791,3.1346,3.1339,3.1626,3.1073,3.0771,3.1037,3.0565,3.0194,3.0202,3.0216,3.0175,3.0259,3.0379,3.0508,3.0571,3.0634,3.0448,3.0511,3.0405,3.0669,3.1372,3.1613,3.2143,3.2641,3.2962,3.3285,3.33,3.3401,3.3547,3.3634,3.352,3.3354,3.3422,3.3555,3.3373,3.3267,3.3404,3.3634,3.3651,3.3622,3.3528,3.3512,3.3543,3.3607,3.3659,3.3657,3.3641,3.3649,3.3402,3.3005,3.3022,3.2824,3.2524,3.2854,3.3191,3.3234,4.5018,4.5018,4.5018,4.5018,4.5018,4.5018,4.5018,4.5018,4.5018,4.5018,4.4855,4.3505,4.3094,4.3314,4.2595,4.2929,4.3788,4.3101,4.3144,4.3719,4.2218,4.1868,4.2561,4.2846,4.2957,4.311,4.4241,4.4862,4.4944,4.5074,4.5524,4.6201,4.6308,4.6308,4.6308,4.6308,4.6308,4.6308,4.6308,4.6308,4.6201,4.5395,4.4905,4.4886,4.4753,4.3747,4.1891,4.0524,3.887,3.6941,3.4751,3.3443,3.3326,3.3202,3.3063,3.2931,3.2917,3.2917,3.2917,3.2739,3.2717,3.2917,3.2605,3.2472,3.2605,3.2472,3.2405,3.2274,3.1466,3.0922,3.1142,3.159,3.1915,3.2102,3.229,3.2279,3.2011,3.1975,3.2113,3.2398,3.2558,3.2853,3.3351,3.3596,3.3794,3.394,3.3999,3.4043,3.4218,3.4291,3.4277,3.4291,3.4283,3.4111,3.3804,3.4036,3.4247,3.4277,3.4277,3.4291,3.4262,3.4277,3.4338,3.4384,3.4294,3.4271,3.4358,3.4268,3.3999,3.39,3.3915,3.379,3.3961,3.4123,3.4123,4.535,4.535,4.535,4.535,4.535,4.535,4.535,4.535,4.535,4.535,4.535,4.535,4.535,4.533,4.5232,4.5232,4.535,4.535,4.535,4.526,4.4233,4.3756,4.3793,4.4058,4.4207,4.4406,4.559,4.6267,4.6308,4.6308,4.6308,4.6308,4.6308,4.6308,4.6308,4.6308,4.6308,4.6308,4.6308,4.6308,4.6308,4.6308,4.6308,4.6308,4.6308,4.5612,4.4229,4.212,4.0025,3.8109,3.5943,3.446,3.3875,3.3838,3.3794,3.3698,3.3684,3.3684,3.3684,3.3684,3.3684,3.3684,3.3684,3.3684,3.3684,3.3684,3.3684,3.3573,3.2555,3.198,3.2197,3.2695,3.3107,3.3318,3.3589,3.3532,3.3207,3.3213,3.3176,3.3291,3.3345,3.3478,3.3886,3.4013,3.4101,3.43,3.4358,3.4394,3.4636,3.468,3.468,3.471,3.4695,3.4607,3.4394,3.4467,3.4695,3.471,3.4642,3.4628,3.471,3.4695,3.4695,3.4557,3.4666,3.468,3.4616,3.4636,3.4657,3.4672,3.4648,3.4595,3.4552,3.4672,3.4672,4.625,4.623,4.623,4.6191,4.623,4.6211,4.6211,4.6152,4.6169,4.6211,4.6191,4.6211,4.623,4.6172,4.5822,4.5859,4.6169,4.615,4.6172,4.615,4.6056,4.6075,4.6138,4.6158,4.6114,4.5917,4.6114,4.6308,4.6308,4.6308,4.6308,4.6308,4.6308,4.6308,4.6308,4.6308,4.6308,4.6308,4.6308,4.6308,4.6308,4.6308,4.6308,4.6308,4.6308,4.6201,4.5873,4.4255,4.2309,4.0401,3.8435,3.6467,3.4527,3.422,3.4043,3.3779,3.3736,3.3736,3.375,3.3742,3.3742,3.3736,3.3771,3.3736,3.3809,3.3809,3.3771,3.3713,3.3594,3.3484,3.3513,3.3544,3.3648,3.3706,3.3721,3.3727,3.3705,3.3695,3.3821,3.4017,3.4082,3.4193,3.4555,3.4666,3.4584,3.4636,3.4666,3.468,3.468,3.471,3.471,3.471,3.471,3.4695,3.468,3.468,3.4695,3.471,3.471,3.471,3.471,3.471,3.471,3.471,3.471,3.471,3.471,3.471,3.4686,3.471,3.471,3.4686,3.471,3.471,3.471,4.6308,4.6308,4.6308,4.6308,4.6308,4.6308,4.6308,4.6308,4.6308,4.6308,4.6308,4.6308,4.6308,4.6308,4.6152,4.6152,4.6289,4.6308,4.6308,4.6308,4.6308,4.6308,4.6308,4.6308,4.6308,4.6308,4.6308,4.6308,4.6308,4.6308,4.6308,4.6308,4.6308,4.6308,4.6308,4.6308,4.6308,4.6308,4.6308,4.6308,4.6328,4.6308,4.6308,4.6308,4.6308,4.6308,4.6308,4.4406,4.3077,4.2367,4.0521,3.852,3.6552,3.5179,3.449,3.4373,3.4358,3.4335,3.4335,3.4321,3.4335,3.4358,3.4335,3.4329,3.4321,3.4335,3.4321,3.4344,3.4321,3.4335,3.4291,3.4145,3.4101,3.4291,3.4335,3.4329,3.4358,3.4358,3.4402,3.4505,3.4519,3.4578,3.4651,3.471,3.471,3.471,3.471,3.471,3.471,3.471,3.471,3.471,3.471,3.471,3.471,3.471,3.471,3.471,3.471,3.471,3.471,3.471,3.471,3.471,3.471,3.471,3.471,3.471,3.471,3.471,3.471,3.471,3.471,3.471,3.471,4.6308,4.6308,4.6308,4.6308,4.6308,4.6308,4.6308,4.6308,4.6308,4.6308,4.6308,4.6308,4.6308,4.6308,4.6308,4.6308,4.6308,4.6308,4.6308,4.6308,4.6308,4.6308,4.6308,4.6308,4.6308,4.6308,4.6308,4.6308,4.6308,4.6308,4.6387,4.6504,4.6504,4.6582,4.6702,4.6741,4.6699,4.6719,4.6719,4.6741,4.6719,4.6719,4.6641,4.6523,4.6482,4.6426,4.6287,4.4999,4.3652,4.2568,4.1761,4.0254,3.7782,3.5763,3.471,3.471,3.4695,3.471,3.471,3.471,3.4695,3.471,3.471,3.471,3.471,3.471,3.471,3.471,3.471,3.471,3.4666,3.4481,3.4452,3.4666,3.471,3.471,3.471,3.4695,3.4695,3.468,3.468,3.4695,3.471,3.471,3.471,3.471,3.471,3.471,3.471,3.471,3.471,3.471,3.471,3.471,3.471,3.471,3.471,3.471,3.471,3.471,3.471,3.471,3.471,3.471,3.471,3.471,3.471,3.471,3.471,3.471,3.471,3.471,3.471,3.471,3.471,4.6308,4.6308,4.6308,4.6308,4.6308,4.6308,4.6308,4.6308,4.6308,4.6308,4.6308,4.6308,4.6308,4.6308,4.6308,4.6308,4.6308,4.6308,4.6308,4.6308,4.6308,4.6308,4.6308,4.6308,4.6348,4.6367,4.6328,4.6348,4.6426,4.6445,4.6601,4.6853,4.6911,4.7109,4.7561,4.7483,4.7522,4.7503,4.7464,4.7522,4.76,4.7503,4.7285,4.695,4.6911,4.6777,4.6387,4.6219,4.458,4.1739,4.2568,4.1541,3.8242,3.5856,3.471,3.471,3.471,3.471,3.471,3.471,3.471,3.471,3.471,3.471,3.471,3.471,3.471,3.471,3.471,3.471,3.471,3.468,3.4642,3.471,3.471,3.471,3.471,3.471,3.471,3.471,3.471,3.471,3.471,3.471,3.471,3.471,3.471,3.471,3.471,3.471,3.471,3.471,3.471,3.471,3.471,3.471,3.471,3.471,3.471,3.471,3.471,3.471,3.471,3.471,3.471,3.471,3.471,3.471,3.471,3.471,3.471,3.4724,3.471,3.471,3.471,4.6308,4.6308,4.6308,4.6308,4.6308,4.6308,4.6308,4.6308,4.6308,4.6308,4.6308,4.6308,4.6308,4.6308,4.6308,4.6308,4.6308,4.6308,4.6308,4.6328,4.6308,4.6328,4.6328,4.6308,4.6445,4.6677,4.6716,4.6894,4.7132,4.7148,4.7288,4.7363,4.7383,4.7441,4.762,4.76,4.76,4.76,4.76,4.76,4.76,4.762,4.7542,4.7402,4.7363,4.7305,4.719,4.6621,4.5697,4.4381,4.5043,4.3634,3.9908,3.6467,3.478,3.471,3.471,3.471,3.471,3.471,3.471,3.471,3.471,3.471,3.471,3.471,3.471,3.471,3.471,3.471,3.471,3.471,3.471,3.471,3.471,3.471,3.471,3.471,3.471,3.471,3.471,3.471,3.471,3.471,3.471,3.471,3.471,3.471,3.471,3.471,3.471,3.471,3.471,3.471,3.471,3.471,3.471,3.471,3.471,3.471,3.471,3.471,3.471,3.4724,3.4724,3.4753,3.4739,3.4783,3.4827,3.4783,3.4797,3.4768,3.4724,3.4768,3.4856,4.6543,4.6521,4.6719,4.6777,4.6777,4.6777,4.6777,4.6799,4.6777,4.6777,4.6777,4.6799,4.6777,4.6777,4.6777,4.6777,4.6777,4.6777,4.6799,4.6738,4.6582,4.6621,4.6738,4.6799,4.6894,4.7109,4.7168,4.7305,4.7581,4.76,4.7656,4.7773,4.7812,4.7933,4.805,4.8069,4.8089,4.8069,4.8089,4.8069,4.8089,4.8089,4.8011,4.7851,4.7835,4.7757,4.7581,4.7051,4.6368,4.5468,4.4677,4.2899,4.0435,3.7545,3.5498,3.4812,3.471,3.471,3.471,3.471,3.471,3.471,3.471,3.471,3.471,3.471,3.471,3.471,3.471,3.471,3.471,3.471,3.471,3.471,3.471,3.471,3.471,3.471,3.471,3.471,3.471,3.471,3.471,3.471,3.471,3.471,3.471,3.471,3.471,3.471,3.471,3.471,3.471,3.471,3.471,3.471,3.471,3.471,3.471,3.471,3.471,3.471,3.471,3.4783,3.4797,3.4929,3.4958,3.5128,3.5202,3.5061,3.5002,3.5128,3.5216,3.5172,3.5231,4.695,4.6989,4.7402,4.7542,4.7542,4.7522,4.7503,4.7561,4.7542,4.7503,4.7542,4.7483,4.7522,4.7561,4.7464,4.7464,4.7581,4.7483,4.7522,4.7441,4.7246,4.7207,4.7425,4.7444,4.7503,4.762,4.7598,4.7679,4.7815,4.7815,4.7851,4.8223,4.8262,4.8441,4.8675,4.8874,4.8796,4.8776,4.8792,4.8815,4.8815,4.8812,4.8656,4.8262,4.8223,4.8109,4.7835,4.7617,4.6581,4.437,4.2734,4.1599,4.0583,3.8886,3.7132,3.5439,3.4973,3.4865,3.4818,3.471,3.471,3.471,3.471,3.471,3.471,3.471,3.471,3.471,3.4739,3.4768,3.4768,3.4827,3.4827,3.4783,3.4768,3.4724,3.471,3.471,3.471,3.471,3.471,3.471,3.471,3.471,3.471,3.471,3.471,3.471,3.471,3.471,3.471,3.471,3.471,3.471,3.471,3.471,3.471,3.4715,3.4768,3.4812,3.4783,3.4783,3.49,3.4967,3.5002,3.5143,3.5245,3.5392,3.5504,3.5474,3.5518,3.5665,3.5636,3.5533,3.5518,4.7425,4.7444,4.7539,4.76,4.76,4.76,4.762,4.762,4.762,4.7659,4.762,4.76,4.7659,4.762,4.762,4.76,4.7659,4.764,4.7796,4.8008,4.7926,4.7715,4.764,4.762,4.7773,4.8008,4.8047,4.8226,4.8542,4.848,4.8578,4.8695,4.8675,4.8757,4.8894,4.8894,4.8894,4.8894,4.8894,4.8894,4.8894,4.8894,4.8855,4.8734,4.8695,4.8636,4.8522,4.8226,4.7716,4.6658,4.4725,4.3592,4.315,4.1499,3.9361,3.7359,3.7024,3.6394,3.5073,3.4739,3.4724,3.471,3.4768,3.471,3.471,3.4686,3.471,3.4739,3.4909,3.507,3.5123,3.526,3.5401,3.5386,3.504,3.4768,3.4753,3.471,3.471,3.471,3.4739,3.4753,3.4768,3.4768,3.4768,3.4768,3.4768,3.4768,3.4827,3.4788,3.4809,3.473,3.4724,3.471,3.471,3.471,3.4724,3.4745,3.4818,3.4988,3.4958,3.4967,3.5187,3.5416,3.5436,3.5524,3.5538,3.5636,3.5694,3.5841,3.5811,3.5855,3.5753,3.5665,3.5694,4.7832,4.7871,4.805,4.8148,4.8128,4.8148,4.8128,4.8148,4.8148,4.8128,4.8148,4.8148,4.8148,4.8151,4.8148,4.8148,4.8148,4.817,4.8284,4.8437,4.8476,4.8363,4.8187,4.8148,4.8265,4.846,4.8499,4.8659,4.8835,4.8894,4.8894,4.8871,4.8894,4.8894,4.8894,4.8894,4.8894,4.8894,4.8894,4.8894,4.8894,4.8894,4.8894,4.8894,4.8894,4.8894,4.8855,4.8636,4.8304,4.7684,4.6549,4.5193,4.3462,4.2418,4.0314,3.753,3.7128,3.6452,3.5528,3.5128,3.5128,3.5128,3.5128,3.5128,3.5143,3.5105,3.5128,3.5172,3.5304,3.5401,3.543,3.5592,3.568,3.5621,3.5357,3.5128,3.5128,3.5143,3.5128,3.5128,3.5114,3.5114,3.5114,3.5114,3.5114,3.5143,3.5187,3.5172,3.5149,3.5028,3.4999,3.5017,3.5079,3.5176,3.5167,3.5143,3.5134,3.5134,3.5149,3.5251,3.5319,3.5289,3.5359,3.5617,3.5773,3.586,3.5875,3.5934,3.6139,3.6197,3.608,3.6051,3.6022,3.5958,3.5973,4.8262,4.832,4.8714,4.8894,4.8855,4.8894,4.8792,4.8874,4.8815,4.8815,4.8815,4.8874,4.8776,4.8894,4.8737,4.8855,4.8855,4.8757,4.8815,4.8812,4.8812,4.8796,4.8757,4.8714,4.8776,4.8812,4.8894,4.8874,4.8894,4.8894,4.8894,4.8894,4.8894,4.8894,4.8894,4.8894,4.8894,4.8894,4.8894,4.8894,4.8894,4.8894,4.8894,4.8894,4.8894,4.8894,4.8894,4.8835,4.8675,4.8301,4.791,4.6098,4.3109,4.2563,4.0614,3.7935,3.7276,3.6894,3.5761,3.5606,3.565,3.5606,3.5621,3.5718,3.5621,3.5592,3.5577,3.5577,3.5709,3.5767,3.5841,3.5841,3.587,3.5899,3.5811,3.5797,3.5782,3.5738,3.5718,3.5718,3.568,3.5704,3.5718,3.5718,3.5665,3.543,3.5474,3.546,3.5436,3.5373,3.5388,3.548,3.561,3.5756,3.5708,3.5621,3.565,3.5641,3.5626,3.5699,3.5787,3.5749,3.5647,3.5725,3.6031,3.6173,3.6148,3.628,3.6441,3.6495,3.6348,3.6451,3.6539,3.6378,3.6334,4.8734,4.8776,4.8874,4.8894,4.8894,4.8894,4.8894,4.8894,4.8894,4.8894,4.8894,4.8894,4.8894,4.8894,4.8894,4.8894,4.8894,4.8894,4.8894,4.8894,4.8894,4.8894,4.8894,4.8894,4.8894,4.8894,4.8894,4.8894,4.8894,4.8894,4.8894,4.8894,4.8894,4.8894,4.8894,4.8894,4.8894,4.8894,4.8894,4.8894,4.8894,4.8894,4.8894,4.8894,4.8894,4.8894,4.8894,4.8894,4.8855,4.8757,4.8548,4.7818,4.6808,4.6711,4.4616,4.1494,4.0379,3.9188,3.6555,3.5849,3.5709,3.5753,3.5782,3.5718,3.5718,3.5738,3.5723,3.5738,3.589,3.61,3.6275,3.6378,3.6334,3.6305,3.6319,3.6348,3.6305,3.6002,3.5782,3.5738,3.5738,3.5733,3.5723,3.5767,3.5753,3.5709,3.5723,3.5733,3.5714,3.5695,3.5778,3.5899,3.5924,3.6016,3.5992,3.5943,3.5978,3.6007,3.6036,3.6051,3.6153,3.6183,3.6036,3.6153,3.6436,3.6441,3.6343,3.6402,3.6543,3.6573,3.6587,3.6587,3.6587,3.6587,3.6587,4.8894,4.8894,4.8894,4.8894,4.8894,4.8894,4.8894,4.8894,4.8894,4.8894,4.8894,4.8894,4.8894,4.8894,4.8894,4.8894,4.8894,4.8894,4.8894,4.8894,4.8894,4.8894,4.8894,4.8894,4.8894,4.8894,4.8894,4.8894,4.8894,4.8894,4.8894,4.8894,4.8894,4.8894,4.8894,4.8894,4.8894,4.8894,4.8894,4.8894,4.8894,4.8894,4.8894,4.8894,4.8894,4.8894,4.8894,4.8894,4.8894,4.8894,4.8871,4.8409,4.7624,4.7419,4.5734,4.3195,4.141,4.0332,3.8001,3.6693,3.6139,3.6109,3.6109,3.6124,3.6124,3.6124,3.6124,3.6129,3.6261,3.6436,3.6558,3.6573,3.6587,3.6587,3.6587,3.6587,3.6553,3.629,3.6124,3.6124,3.6153,3.6153,3.6124,3.6036,3.6095,3.6168,3.6197,3.6183,3.6212,3.6192,3.6187,3.6217,3.6197,3.6183,3.6183,3.6202,3.6261,3.6305,3.6348,3.6363,3.6422,3.6422,3.6392,3.6509,3.6583,3.6583,3.6514,3.6573,3.6587,3.6587,3.6587,3.6587,3.6587,3.6587,3.6587,4.8894,4.8894,4.8894,4.8894,4.8894,4.8894,4.8894,4.8894,4.8894,4.8894,4.8894,4.8894,4.8894,4.8894,4.8894,4.8894,4.8894,4.8894,4.8894,4.8894,4.8894,4.8894,4.8894,4.8894,4.8894,4.8894,4.8894,4.8894,4.8894,4.8894,4.8894,4.8894,4.8894,4.8894,4.8894,4.8894,4.8894,4.8894,4.8894,4.8894,4.8894,4.8894,4.8894,4.8894,4.8894,4.8894,4.8894,4.8894,4.8894,4.8894,4.8894,4.7949,4.6841,4.6144,4.535,4.3398,4.2116,4.0762,3.9392,3.8041,3.709,3.677,3.7036,3.711,3.7179,3.7257,3.7291,3.7041,3.6972,3.6568,3.6587,3.6587,3.6587,3.6587,3.6587,3.6587,3.6587,3.6587,3.6539,3.6539,3.6451,3.6407,3.6451,3.6436,3.6539,3.6612,3.6612,3.6587,3.6587,3.6558,3.6495,3.6451,3.6392,3.6363,3.6363,3.6363,3.6451,3.648,3.6553,3.6568,3.6597,3.6553,3.6509,3.6553,3.6573,3.6587,3.6587,3.6587,3.6587,3.6587,3.6587,3.6587,3.6587,3.6587,3.6587,4.8894,4.8894,4.8894,4.8894,4.8894,4.8894,4.8894,4.8894,4.8894,4.8894,4.8894,4.8894,4.8894,4.8894,4.8894,4.8894,4.8894,4.8894,4.8894,4.8894,4.8894,4.8894,4.8894,4.8894,4.8894,4.8894,4.8894,4.8894,4.8894,4.8894,4.8894,4.8894,4.8894,4.8894,4.8894,4.8894,4.8894,4.8894,4.8894,4.8894,4.8894,4.8894,4.8894,4.8894,4.8894,4.8894,4.8894,4.8894,4.8894,4.8894,4.8894,4.8663,4.825,4.8158,4.7144,4.5656,4.4572,4.2939,4.0449,3.9405,3.8191,3.7519,3.8019,3.9055,3.9137,3.9153,3.9055,3.8518,3.7617,3.6696,3.6612,3.6819,3.6647,3.6622,3.6967,3.6819,3.6696,3.6992,3.7017,3.7091,3.6918,3.6795,3.7066,3.7091,3.6943,3.6918,3.6819,3.6696,3.6587,3.6587,3.6558,3.6543,3.6543,3.6568,3.6568,3.6539,3.6543,3.6529,3.6583,3.6583,3.6597,3.6587,3.6587,3.6587,3.6587,3.6587,3.6587,3.6587,3.6587,3.6587,3.6587,3.6587,3.6587,3.6587,3.6587,4.8894,4.8894,4.8894,4.8894,4.8894,4.8894,4.8894,4.8894,4.8894,4.8894,4.8894,4.8894,4.8894,4.8894,4.8894,4.8894,4.8894,4.8894,4.8894,4.8894,4.8894,4.8894,4.8894,4.8894,4.8894,4.8894,4.8894,4.8894,4.8894,4.8894,4.8894,4.8894,4.8894,4.8894,4.8894,4.8894,4.8894,4.8894,4.8894,4.8894,4.8894,4.8894,4.8894,4.8894,4.8894,4.8894,4.8894,4.8894,4.8894,4.8894,4.8894,4.8894,4.8894,4.8778,4.8478,4.7395,4.6401,4.4619,4.1614,4.0457,3.9153,3.8543,3.9324,4.0215,4.094,4.1165,4.0843,3.9746,3.9129,3.77,3.677,3.7568,3.7617,3.7224,3.824,3.8469,3.7765,3.8665,3.8714,3.82,3.747,3.7519,3.8142,3.797,3.7519,3.7248,3.7125,3.6893,3.6671,3.6893,3.7017,3.6869,3.6844,3.6587,3.6587,3.6587,3.6587,3.6587,3.6671,3.6671,3.6869,3.7017,3.6795,3.6587,3.6587,3.6967,3.6587,3.6587,3.6587,3.6587,3.6587,3.6587,3.6587,3.6587,3.6893,4.8894,4.8894,4.8894,4.8894,4.8894,4.8894,4.8894,4.8894,4.8894,4.8894,4.8894,4.8894,4.8894,4.8894,4.8894,4.8894,4.8894,4.8894,4.8894,4.8894,4.8894,4.8894,4.8894,4.8894,4.8894,4.8894,4.8894,4.8894,4.8894,4.8894,4.8894,4.8894,4.8894,4.8894,4.8894,4.8894,4.8894,4.8894,4.8894,4.8894,4.8894,4.8894,4.8894,4.8894,4.8894,4.8894,4.8894,4.8894,4.8894,4.8894,4.8894,4.8894,4.8894,4.8894,4.8894,4.8617,4.726,4.5468,4.3582,4.2198,4.1253,4.0432,4.0771,4.1862,4.2724,4.3153,4.2581,4.0819,4.0279,3.9429,3.8191,3.9153,3.908,3.8567,4.0142,4.1766,4.0118,4.0045,4.0996,4.0142,3.8592,3.8787,3.9988,3.9818,3.9527,3.8494,3.8313,3.7224,3.7115,3.7691,3.7789,3.7421,3.7165,3.6721,3.6587,3.6587,3.6587,3.6587,3.6745,3.6869,3.7224,3.7593,3.7332,3.7189,3.7617,3.7848,3.7224,3.6647,3.6587,3.6587,3.6587,3.6967,3.7593,3.7995,3.8264,4.8894,4.8894,4.8894,4.8894,4.8894,4.8894,4.8894,4.8894,4.8894,4.8894,4.8894,4.8894,4.8894,4.8894,4.8894,4.8894,4.8894,4.8894,4.8894,4.8894,4.8894,4.8894,4.8894,4.8894,4.8894,4.8894,4.8894,4.8894,4.8894,4.8894,4.8894,4.8894,4.8894,4.8894,4.8894,4.8894,4.8894,4.8894,4.8894,4.8894,4.8894,4.8894,4.8894,4.8894,4.8894,4.8894,4.8894,4.8894,4.8894,4.8894,4.8894,4.8894,4.8894,4.8894,4.8894,4.8848,4.8435,4.7605,4.5585,4.4595,4.3772,4.2963,4.3629,4.4902,4.5368,4.5327,4.4595,4.2604,4.2365,4.1446,4.0158,4.1229,4.0988,4.1036,4.1766,4.27,4.2006,4.2676,4.3487,4.3082,4.1862,4.1958,4.2676,4.215,4.1574,4.0432,3.9348,3.8387,3.797,3.8836,3.9324,3.9153,3.886,3.8396,3.8372,3.8117,3.7519,3.7248,3.7642,3.775,3.797,3.843,3.8242,3.8227,3.8685,3.8836,3.8396,3.7774,3.6992,3.7273,3.8166,3.8714,3.9162,3.9478,3.9818,4.8894,4.8894,4.8894,4.8894,4.8894,4.8894,4.8894,4.8894,4.8894,4.8894,4.8894,4.8894,4.8894,4.8894,4.8894,4.8894,4.8894,4.8894,4.8894,4.8894,4.8894,4.8894,4.8894,4.8894,4.8894,4.8894,4.8894,4.8894,4.8894,4.8894,4.8894,4.8894,4.8894,4.8894,4.8894,4.8894,4.8894,4.8894,4.8894,4.8894,4.8894,4.8894,4.8894,4.8894,4.8894,4.8894,4.8894,4.8894,4.8894,4.8894,4.8894,4.8894,4.8894,4.8894,4.8894,4.8871,4.8871,4.7837,4.612,4.5933,4.5327,4.4926,4.5421,4.612,4.7097,4.7372,4.6607,4.4666,4.4477,4.3463,4.227,4.3344,4.2867,4.2891,4.3914,4.3629,4.4175,4.5792,4.6331,4.5768,4.5256,4.5233,4.4879,4.3843,4.3463,4.3058,4.2006,4.1061,4.0723,4.1109,4.1374,4.1374,4.1036,4.0626,4.0747,4.0698,3.9697,3.9478,4.0287,4.0166,3.9397,3.9333,3.957,3.9619,3.99,3.9875,3.9673,3.9283,3.8836,3.9381,4.0093,4.0626,4.1133,4.1478,4.179,4.8894,4.8894,4.8894,4.8894,4.8894,4.8894,4.8894,4.8894,4.8894,4.8894,4.8894,4.8894,4.8894,4.8894,4.8894,4.8894,4.8894,4.8894,4.8894,4.8894,4.8894,4.8894,4.8894,4.8894,4.8894,4.8894,4.8894,4.8894,4.8894,4.8894,4.8894,4.8894,4.8894,4.8894,4.8894,4.8894,4.8894,4.8894,4.8894,4.8894,4.8894,4.8894,4.8894,4.8894,4.8894,4.8894,4.8894,4.8894,4.8894,4.8894,4.8894,4.8894,4.8894,4.8894,4.8894,4.8894,4.8894,4.8366,4.7279,4.6841,4.6565,4.6542,4.663,4.7395,4.8366,4.8824,4.8501,4.663,4.6607,4.5468,4.4501,4.535,4.5162,4.5444,4.6308,4.5656,4.5397,4.6864,4.781,4.7419,4.719,4.7814,4.7144,4.5651,4.5162,4.5374,4.4714,4.3677,4.3368,4.3296,4.3249,4.3177,4.2461,4.2078,4.2126,4.215,4.1478,4.1574,4.2365,4.27,4.1999,4.1725,4.1912,4.1802,4.1564,4.2837,4.3785,4.2227,4.0795,4.1116,4.1574,4.2533,4.3153,4.3534,4.4128,4.8894,4.8894,4.8894,4.8894,4.8894,4.8894,4.8894,4.8894,4.8894,4.8894,4.8894,4.8894,4.8894,4.8894,4.8894,4.8894,4.8894,4.8894,4.8894,4.8894,4.8894,4.8894,4.8894,4.8894,4.8894,4.8894,4.8894,4.8894,4.8894,4.8894,4.8894,4.8894,4.8894,4.8894,4.8894,4.8894,4.8894,4.8894,4.8894,4.8894,4.8894,4.8894,4.8894,4.8894,4.8894,4.8894,4.8894,4.8894,4.8894,4.8894,4.8894,4.8894,4.8894,4.8894,4.8894,4.8894,4.8894,4.8594,4.825,4.8181,4.8524,4.8617,4.8524,4.8385,4.8824,4.8894,4.8663,4.8409,4.8088,4.7442,4.6817,4.6981,4.7004,4.7004,4.7465,4.7628,4.7349,4.7721,4.857,4.8686,4.8778,4.8848,4.8871,4.7237,4.6542,4.67,4.6584,4.5562,4.5162,4.5044,4.495,4.4672,4.3748,4.3273,4.3034,4.3034,4.3511,4.3534,4.3867,4.4483,4.469,4.4542,4.3803,4.4057,4.4045,4.5999,4.7168,4.5206,4.3623,4.2867,4.3153,4.4507,4.5538,4.612,4.6887,4.8894,4.8894,4.8894,4.8894,4.8894,4.8894,4.8894,4.8894,4.8894,4.8894,4.8894,4.8894,4.8894,4.8894,4.8894,4.8894,4.8894,4.8894,4.8894,4.8894,4.8894,4.8894,4.8894,4.8894,4.8894,4.8894,4.8894,4.8894,4.8894,4.8894,4.8894,4.8894,4.8894,4.8894,4.8894,4.8894,4.8894,4.8894,4.8894,4.8894,4.8894,4.8894,4.8894,4.8894,4.8894,4.8894,4.8894,4.8894,4.8894,4.8894,4.8894,4.8894,4.8894,4.8894,4.8894,4.8894,4.8894,4.8894,4.8894,4.8894,4.8894,4.8894,4.8848,4.8894,4.8894,4.8894,4.8894,4.8848,4.8894,4.8227,4.8227,4.8339,4.8432,4.8134,4.8227,4.8709,4.8894,4.8894,4.8871,4.8801,4.8824,4.8871,4.8894,4.8709,4.825,4.7972,4.7791,4.7558,4.7004,4.67,4.6612,4.6588,4.5797,4.5773,4.5632,4.575,4.5886,4.5632,4.5421,4.5909,4.6331,4.5656,4.5178,4.5622,4.6005,4.6944,4.7384,4.7168,4.6509,4.5721,4.6026,4.7004,4.786,4.8343,4.8594,4.8894,4.8894,4.8894,4.8894,4.8894,4.8894,4.8894,4.8894,4.8894,4.8894,4.8894,4.8894,4.8894,4.8894,4.8894,4.8894,4.8894,4.8894,4.8894,4.8894,4.8894,4.8894,4.8894,4.8894,4.8894,4.8894,4.8894,4.8894,4.8894,4.8894,4.8894,4.8894,4.8894,4.8894,4.8894,4.8894,4.8894,4.8894,4.8894,4.8894,4.8894,4.8894,4.8894,4.8894,4.8894,4.8894,4.8894,4.8894,4.8894,4.8894,4.8894,4.8894,4.8894,4.8894,4.8894,4.8894,4.8894,4.8894,4.8894,4.8894,4.8894,4.8894,4.8894,4.8894,4.8894,4.8894,4.8894,4.8894,4.8894,4.8894,4.8894,4.8871,4.8871,4.8501,4.8524,4.8894,4.8894,4.8894,4.8894,4.8871,4.8894,4.8894,4.8894,4.8894,4.8732,4.8459,4.8389,4.8297,4.8204,4.8065,4.8204,4.8227,4.8111,4.8343,4.8686,4.7926,4.7237,4.7326,4.7167,4.7307,4.7395,4.6752,4.6705,4.7292,4.7594,4.7674,4.7763,4.7879,4.827,4.8547,4.857,4.8273,4.8412,4.8663,4.8709,4.8894,4.8894,4.8894,4.8894,4.8894,4.8894,4.8894,4.8894,4.8894,4.8894,4.8894,4.8894,4.8894,4.8894,4.8894,4.8894,4.8894,4.8894,4.8894,4.8894,4.8894,4.8894,4.8894,4.8894,4.8894,4.8894,4.8894,4.8894,4.8894,4.8894,4.8894,4.8894,4.8894,4.8894,4.8894,4.8894,4.8894,4.8894,4.8894,4.8894,4.8894,4.8894,4.8894,4.8894,4.8894,4.8894,4.8894,4.8894,4.8894,4.8894,4.8894,4.8894,4.8894,4.8894,4.8894,4.8894,4.8894,4.8894,4.8894,4.8894,4.8894,4.8894,4.8894,4.8894,4.8894,4.8894,4.8894,4.8894,4.8894,4.8894,4.8894,4.8894,4.8894,4.8894,4.8894,4.8894,4.8894,4.8894,4.8894,4.8894,4.8894,4.8894,4.8894,4.8894,4.8894,4.8824,4.8848,4.8894,4.8894,4.8894,4.8894,4.8894,4.8894,4.8894,4.8894,4.8894,4.864,4.8755,4.864,4.8435,4.8412,4.8134,4.832,4.8867,4.8686,4.832,4.8524,4.8801,4.8894,4.8894,4.8894,4.8755,4.8871,4.8894,4.8894,4.8894,4.8894,4.8894,4.8894,4.8894,4.8894,4.8894,4.8894,4.8894,4.8894,4.8894,4.8894,4.8894,4.8894,4.8894,4.8894,4.8894,4.8894,4.8894,4.8894,4.8894,4.8894,4.8894,4.8894,4.8894,4.8894,4.8894,4.8894,4.8894,4.8894,4.8894,4.8894,4.8894,4.8894,4.8894,4.8894,4.8894,4.8894,4.8894,4.8894,4.8894,4.8894,4.8894,4.8894,4.8894,4.8894,4.8894,4.8894,4.8894,4.8894,4.8894,4.8894,4.8894,4.8894,4.8894,4.8894,4.8894,4.8894,4.8894,4.8894,4.8894,4.8894,4.8894,4.8894,4.8894,4.8894,4.8894,4.8894,4.8894,4.8894,4.8894,4.8894,4.8894,4.8894,4.8894,4.8894,4.8894,4.8894,4.8894,4.8894,4.8894,4.8894,4.8894,4.8894,4.8894,4.8894,4.8894,4.8894,4.8894,4.8894,4.8894,4.8894,4.8894,4.8894,4.8894,4.8894,4.8894,4.8824,4.8824,4.8755,4.8824,4.8894,4.8871,4.8871,4.8871,4.8894,4.8894,4.8894,4.8894,4.8894,4.8894,4.8894,4.8894,4.8894,4.8894,4.8894,4.8894,4.8894,4.8894,4.8894,4.8894,4.8894,4.8894,4.8894,4.8894,4.8894,4.8894,4.8894,4.8894,4.8894,4.8894,4.8894,4.8894,4.8894,4.8894,4.8894,4.8894,4.8894,4.8894,4.8894,4.8894,4.8894,4.8894,4.8894,4.8894,4.8894,4.8894,4.8894,4.8894,4.8894,4.8894,4.8894,4.8894,4.8894,4.8894,4.8894,4.8894,4.8894,4.8894,4.8894,4.8894,4.8894,4.8894,4.8894,4.8894,4.8894,4.8894,4.8894,4.8894,4.8894,4.8894,4.8894,4.8894,4.8894,4.8894,4.8894,4.8894,4.8894,4.8894,4.8894,4.8894,4.8894,4.8894,4.8894,4.8894,4.8894,4.8894,4.8894,4.8894,4.8894,4.8894,4.8894,4.8894,4.8894,4.8894,4.8894,4.8894,4.8894,4.8894,4.8894,4.8894,4.8894,4.8894,4.8894,4.8894,4.8894,4.8894,4.8894,4.8894,4.8894,4.8894,4.8894,4.8894,4.8894,4.8894,4.8894,4.8894,4.8894,4.8894,4.8894,4.8894,4.8894,4.8894,4.8894,4.8894,4.8894,4.8894,4.8894,4.8894,4.8894,4.8894,4.8894,4.8894,4.8894,4.8894,4.8894,4.8894,4.8894,4.8894,4.8894,4.8894,4.8894,4.8894,4.8894,4.8894,4.8894,4.8894,4.8894,4.8894,4.8894,4.8894,4.8894,4.8894,4.8894,4.8894,4.8894,4.8894,4.8894,4.8894,4.8894,4.8894,4.8894,4.8894,4.8894,4.8894,4.8894,4.8894,4.8894,4.8894,4.8894,4.8894,4.8894,4.8894,4.8894,4.8894,4.8894,4.8894,4.8894,4.8894,4.8894,4.8894,4.8894,4.8894,4.8894,4.8894,4.8894,4.8894,4.8894,4.8894,4.8894,4.8894,4.8894,4.8894,4.8894,4.8894,4.8894,4.8894,4.8894,4.8894,4.8894,4.8894,4.8894,4.8894,4.8894,4.8894,4.8894,4.8894,4.8894,4.8894,4.8894,4.8894,4.8894,4.8894,4.8894,4.8894,4.8894,4.8894,4.8894,4.8894,4.8894,4.8894,4.8894,4.8894,4.8894,4.8894,4.8894,4.8894,4.8894,4.8894,4.8894,4.8894,4.8894,4.8894,4.8894,4.8894,4.8894,4.8894,4.8894,4.8894,4.8894,4.8894,4.8894,4.8894,4.8894,4.8894,4.8894,4.8894,4.8894,4.8894,4.8894,4.8894,4.8894,4.8894,4.8894,4.8894,4.8894,4.8894,4.8894,4.8894,4.8894,4.8894,4.8894,4.8894,4.8894,4.8894,4.8894,4.8894,4.8894,4.8894,4.8894,4.8894,4.8894,4.8894,4.8894,4.8894,4.8894,4.8894,4.8894,4.8894,4.8894,4.8894,4.8894,4.8894,4.8894,4.8894,4.8894,4.8894,4.8894,4.8894,4.8894,4.8894,4.8894,4.8894,4.8894,4.8894,4.8894,4.8894,4.8894,4.8894,4.8894,4.8894,4.8894,4.8894,4.8894,4.8894,4.8894,4.8894,4.8894,4.8894,4.8894,4.8894,4.8894,4.8894,4.8894,4.8894,4.8894,4.8894,4.8894,4.8894,4.8894,4.8894,4.8894,4.8894,4.8894,4.8894,4.8894,4.8894,4.8894,4.8894,4.8894,4.8894,4.8894,4.8894,4.8894,4.8894,4.8894,4.8894,4.8894,4.8894,4.8894,4.8894,4.8894,4.8894,4.8894,4.8894,4.8894,4.8894,4.8894,4.8894,4.8894,4.8894,4.8894,4.8894,4.8894,4.8894,4.8894,4.8894,4.8894,4.8894,4.8894,4.8894,4.8894,4.8894,4.8894,4.8894,4.8894,4.8894,4.8894,4.8894,4.8894,4.8894,4.8894,4.8894,4.8894,4.8894,4.8894,4.8894,4.8894,4.8894,4.8894,4.8894,4.8894,4.8894,4.8894,4.8894,4.8894,4.8894,4.8894,4.8894,4.8894,4.8894,4.8894,4.8894,4.8894,4.8894,4.8894,4.8894,4.8894,4.8894,4.8894,4.8894,4.8894,4.8894,4.8894,4.8894,4.8894,4.8894,4.8894,4.8894,4.8894,4.8894,4.8894,4.8894,4.8894,4.8894,4.8894,4.8894,4.8894,4.8894,4.8894,4.8894,4.8894,4.8894,4.8894,4.8894,4.8894,4.8894,4.8894,4.8894,4.8894,4.8894,4.8894,4.8894,4.8894,4.8894,4.8894,4.8894,4.8894,4.8894,4.8894,4.8894,4.8894,4.8894,4.8894,4.8894,4.8894,4.8894,4.8894,4.8894,4.8894,4.8894,4.8894,4.8894,4.8894,4.8894,4.8894,4.8894,4.8894,4.8894,4.8894,4.8894,4.8894,4.8894,4.8894,4.8894,4.8894,4.8894,4.8894,4.8894,4.8894,4.8894,4.8894,4.8894,4.8894,4.8894,4.8894,4.8894,4.8894,4.8894,4.8894,4.8894,4.8894,4.8894,4.8894,4.8894,4.8894,4.8894,4.8894,4.8894,4.8894,4.8894,4.8894,4.8894,4.8894,4.8894,4.8894,4.8894,4.8894,4.8894,4.8894,4.8894,4.8894,4.8894,4.8894,4.8894,4.8894,4.8894,4.8894,4.8894,4.8894,4.8894,4.8894,4.8894,4.8894,4.8894,4.8894,4.8894,4.8894,4.8894,4.8894,4.8894,4.8894,4.8894,4.8894,4.8894,4.8894,4.8894,4.8894,4.8894,4.8894,4.8894,4.8894,4.8894,4.8894,4.8894,4.8894,4.8894,4.8894,4.8894,4.8894,4.8894,4.8894,4.8894,4.8894,4.8894,4.8894,4.8894,4.8894,4.8894,4.8894,4.8894,4.8894,4.8894,4.8894,4.8894,4.8894,4.8894,4.8894,4.8894,4.8894,4.8894,4.8894,4.8894,4.8894,4.8894,4.8894,4.8894,4.8894,4.8894,4.8894,4.8894,4.8894,4.8894,4.8894,4.8894,4.8894,4.8894,4.8894,4.8894,4.8894,4.8894,4.8894,4.8894,4.8894,4.8894,4.8894,4.8894,4.8894,4.8894,4.8894,4.8894,4.8894,4.8894,4.8894,4.8894,4.8894,4.8894,4.8894,4.8894,4.8894,4.8894,4.8894,4.8894,4.8894,4.8894,4.8894,4.8894,4.8894,4.8894,4.8894,4.8894,4.8894,4.8894,4.8894,4.8894,4.8894,4.8894,4.8894,4.8894,4.8894,4.8894,4.8894,4.8894,4.8894,4.8894,4.8894,4.8894,4.8894,4.8894,4.8894,4.8894,4.8894,4.8894,4.8894,4.8894,4.8894,4.8894,4.8894,4.8894,4.8894,4.8894,4.8894,4.8894,4.8894,4.8894,4.8894,4.8894,4.8894,4.8894,4.8894,4.8894,4.8894,4.8894,4.8894,4.8894,4.8894,4.8894,4.8894,4.8894,4.8894,4.8894,4.8894,4.8894,4.8894,4.8894,4.8894,4.8894,4.8894,4.8894,4.8894,4.8894,4.8894,4.8894,4.8894,4.8894,4.8894,4.8894,4.8894,4.8894,4.8894,4.8894,4.8894,4.8894,4.8894,4.8894,4.8894,4.8894,4.8894,4.8894,4.8894,4.8894,4.8894,4.8894,4.8894,4.8894,4.8894,4.8894,4.8894,4.8894,4.8894,4.8894,4.8894,4.8894,4.8894,4.8894,4.8894,4.8894,4.8894,4.8894,4.8894,4.8894,4.8894,4.8894,4.8894,4.8894,4.8894,4.8894,4.8894,4.8894,4.8894,4.8894,4.8894,4.8894,4.8894,4.8894,4.8894,4.8894,4.8894,4.8894,4.8894,4.8894,4.8894,4.8894,4.8894,4.8894,4.8894,4.8894,4.8894,4.8894,4.8894,4.8894,4.8894,4.8894,4.8894,4.8894,4.8894,4.8894,4.8894,4.8894,4.8894,4.8894,4.8894,4.8894,4.8894,4.8894,4.8894,4.8894,4.8894,4.8894,4.8894,4.8894,4.8894,4.8894,4.8894,4.8894,4.8894,4.8894,4.8894,4.8894,4.8894,4.8894,4.8894,4.8894,4.8894,4.8894,4.8894,4.8894,4.8894,4.8894,4.8894,4.8894,4.8894,4.8894,4.8894,4.8894,4.8894,4.8894,4.8894,4.8894,4.8894,4.8894,4.8894,4.8894,4.8894,4.8894,4.8894,4.8894,4.8894,4.8894,4.8894,4.8894,4.8894,4.8894,4.8894,4.8894,4.8894,4.8894,4.8894,4.8894,4.8894,4.8894,4.8894,4.8894,4.8894,4.8894,4.8894,4.8894,4.8894,4.8894,4.8894,4.8894,4.8894,4.8894,4.8894,4.8894,4.8894,4.8894,4.8894,4.8894,4.8894,4.8894,4.8894,4.8894,4.8894,4.8894,4.8894,4.8894,4.8894,4.8894,4.8894,4.8894,4.8894,4.8894,4.8894,4.8894,4.8894,4.8894,4.8894,4.8894,4.8894,4.8894,4.8894,4.8894,4.8894,4.8894,4.8894,4.8894,4.8894,4.8894,4.8894,4.8894,4.8894,4.8894,4.8894,4.8894,4.8894,4.8894,4.8894,4.8894,4.8894,4.8894,4.8894,4.8894,4.8894,4.8894,4.8894,4.8894,4.8894,4.8894,4.8894,4.8894,4.8894,4.8894,4.8894,4.8894,4.8894,4.8894,4.8894,4.8894,4.8894,4.8894,4.8894,4.8894,4.8894,4.8894,4.8894,4.8894,4.8894,4.8894,4.8894,4.8894,4.8894,4.8894,4.8894,4.8894,4.8894,4.8894,4.8894,4.8894,4.8894,4.8894,4.8894,4.8894,4.8894,4.8894,4.8894,4.8894,4.8894,4.8894,4.8894,4.8894,4.8894,4.8894,4.8894,4.8894,4.8894,4.8894,4.8894,4.8894,4.8894,4.8894,4.8894,4.8894,4.8894,4.8894,4.8894,4.8894,4.8894,4.8894,4.8894,4.8894,4.8894,4.8894,4.8894,4.8894,4.8894,4.8894,4.8894,4.8894,4.8894,4.8894,4.8894,4.8894,4.8894,4.8894,4.8894,4.8894,4.8894,4.8894,4.8894,4.8894,4.8894,4.8894,4.8894,4.8894,4.8894,4.8894,4.8894,4.8894,4.8894,4.8894,4.8894,4.8894,4.8894,4.8894,4.8894,4.8894,4.8894,4.8894,4.8894,4.8894,4.8894,4.8894,4.8894,4.8894,4.8894,4.8894,4.8894,4.8894,4.8894,4.8894,4.8894,4.8894,4.8894,4.8894,4.8894,4.8894,4.8894,4.8894,4.8894,4.8894,4.8894,4.8894,4.8894,4.8894,4.8894,4.8894,4.8894,4.8894,4.8894,4.8894,4.8894,4.8894,4.8894,4.8894,4.8894,4.8894,4.8894,4.8894,4.8894,4.8894,4.8894,4.8894,4.8894,4.8894,4.8894,4.8894,4.8894,4.8894,4.8894,4.8894,4.8894,4.8894,4.8894,4.8894,4.8894,4.8894,4.8894,4.8894,4.8894,4.8894,4.8894,4.8894,4.8894,4.8894,4.8894,4.8894,4.8894,4.8894,4.8894]}]]